<?xml version="1.0" encoding="UTF-8" standalone="no" ?>
<gpx xmlns="http://www.topografix.com/GPX/1/1" xmlns:xsi="http://www.w3.org/2001/XMLSchema-instance" xsi:schemaLocation="http://www.topografix.com/GPX/1/1 http://www.topografix.com/GPX/1/1/gpx.xsd" version="1.1" creator="VisuGPX - https://www.visugpx.com">
  <metadata>
    <name>plaine coche maison</name>
    <desc><![CDATA[plaine coche maison
]]></desc>
  </metadata>
  <trk>
    <name><![CDATA[02-MARS-14 17:04:25]]></name>
    <trkseg>
      <trkpt lat="45.52312" lon="5.9085">
        <ele>804.28</ele>
        <time>2014-03-02T12:54:14Z</time>
      </trkpt>
      <trkpt lat="45.52313" lon="5.90851">
        <ele>803.32</ele>
        <time>2014-03-02T12:54:24Z</time>
      </trkpt>
      <trkpt lat="45.52322" lon="5.90856">
        <ele>801.88</ele>
        <time>2014-03-02T12:54:29Z</time>
      </trkpt>
      <trkpt lat="45.52334" lon="5.90874">
        <ele>798.51</ele>
        <time>2014-03-02T12:54:35Z</time>
      </trkpt>
      <trkpt lat="45.52343" lon="5.90899">
        <ele>795.63</ele>
        <time>2014-03-02T12:54:40Z</time>
      </trkpt>
      <trkpt lat="45.52349" lon="5.90916">
        <ele>793.71</ele>
        <time>2014-03-02T12:54:43Z</time>
      </trkpt>
      <trkpt lat="45.52362" lon="5.90941">
        <ele>790.34</ele>
        <time>2014-03-02T12:54:48Z</time>
      </trkpt>
      <trkpt lat="45.52372" lon="5.90955">
        <ele>787.46</ele>
        <time>2014-03-02T12:54:52Z</time>
      </trkpt>
      <trkpt lat="45.52376" lon="5.90963">
        <ele>786.02</ele>
        <time>2014-03-02T12:54:54Z</time>
      </trkpt>
      <trkpt lat="45.52383" lon="5.90981">
        <ele>782.17</ele>
        <time>2014-03-02T12:54:58Z</time>
      </trkpt>
      <trkpt lat="45.52394" lon="5.90994">
        <ele>778.81</ele>
        <time>2014-03-02T12:55:02Z</time>
      </trkpt>
      <trkpt lat="45.52398" lon="5.90996">
        <ele>777.84</ele>
        <time>2014-03-02T12:55:03Z</time>
      </trkpt>
      <trkpt lat="45.52403" lon="5.90998">
        <ele>776.4</ele>
        <time>2014-03-02T12:55:04Z</time>
      </trkpt>
      <trkpt lat="45.5241" lon="5.91">
        <ele>774.48</ele>
        <time>2014-03-02T12:55:05Z</time>
      </trkpt>
      <trkpt lat="45.52416" lon="5.91002">
        <ele>773.52</ele>
        <time>2014-03-02T12:55:06Z</time>
      </trkpt>
      <trkpt lat="45.52422" lon="5.91005">
        <ele>773.04</ele>
        <time>2014-03-02T12:55:07Z</time>
      </trkpt>
      <trkpt lat="45.52428" lon="5.91009">
        <ele>771.6</ele>
        <time>2014-03-02T12:55:08Z</time>
      </trkpt>
      <trkpt lat="45.52438" lon="5.91015">
        <ele>770.63</ele>
        <time>2014-03-02T12:55:10Z</time>
      </trkpt>
      <trkpt lat="45.52443" lon="5.91017">
        <ele>769.19</ele>
        <time>2014-03-02T12:55:11Z</time>
      </trkpt>
      <trkpt lat="45.52466" lon="5.91019">
        <ele>763.9</ele>
        <time>2014-03-02T12:55:15Z</time>
      </trkpt>
      <trkpt lat="45.52483" lon="5.91019">
        <ele>760.06</ele>
        <time>2014-03-02T12:55:18Z</time>
      </trkpt>
      <trkpt lat="45.525" lon="5.91016">
        <ele>756.69</ele>
        <time>2014-03-02T12:55:21Z</time>
      </trkpt>
      <trkpt lat="45.52511" lon="5.91016">
        <ele>754.29</ele>
        <time>2014-03-02T12:55:23Z</time>
      </trkpt>
      <trkpt lat="45.52516" lon="5.91019">
        <ele>753.33</ele>
        <time>2014-03-02T12:55:24Z</time>
      </trkpt>
      <trkpt lat="45.5252" lon="5.91023">
        <ele>750.93</ele>
        <time>2014-03-02T12:55:25Z</time>
      </trkpt>
      <trkpt lat="45.52524" lon="5.91029">
        <ele>749.97</ele>
        <time>2014-03-02T12:55:26Z</time>
      </trkpt>
      <trkpt lat="45.52527" lon="5.91036">
        <ele>748.52</ele>
        <time>2014-03-02T12:55:27Z</time>
      </trkpt>
      <trkpt lat="45.52536" lon="5.91056">
        <ele>745.16</ele>
        <time>2014-03-02T12:55:31Z</time>
      </trkpt>
      <trkpt lat="45.52546" lon="5.9106">
        <ele>743.24</ele>
        <time>2014-03-02T12:55:34Z</time>
      </trkpt>
      <trkpt lat="45.52551" lon="5.91059">
        <ele>742.76</ele>
        <time>2014-03-02T12:55:35Z</time>
      </trkpt>
      <trkpt lat="45.52566" lon="5.91052">
        <ele>742.28</ele>
        <time>2014-03-02T12:55:38Z</time>
      </trkpt>
      <trkpt lat="45.52572" lon="5.91048">
        <ele>741.31</ele>
        <time>2014-03-02T12:55:39Z</time>
      </trkpt>
      <trkpt lat="45.52577" lon="5.91043">
        <ele>740.83</ele>
        <time>2014-03-02T12:55:40Z</time>
      </trkpt>
      <trkpt lat="45.52582" lon="5.91037">
        <ele>740.35</ele>
        <time>2014-03-02T12:55:41Z</time>
      </trkpt>
      <trkpt lat="45.52587" lon="5.91031">
        <ele>739.87</ele>
        <time>2014-03-02T12:55:42Z</time>
      </trkpt>
      <trkpt lat="45.52598" lon="5.91018">
        <ele>739.39</ele>
        <time>2014-03-02T12:55:44Z</time>
      </trkpt>
      <trkpt lat="45.52604" lon="5.91012">
        <ele>738.43</ele>
        <time>2014-03-02T12:55:45Z</time>
      </trkpt>
      <trkpt lat="45.52612" lon="5.91007">
        <ele>737.95</ele>
        <time>2014-03-02T12:55:46Z</time>
      </trkpt>
      <trkpt lat="45.52651" lon="5.90987">
        <ele>734.58</ele>
        <time>2014-03-02T12:55:51Z</time>
      </trkpt>
      <trkpt lat="45.52688" lon="5.90969">
        <ele>730.74</ele>
        <time>2014-03-02T12:55:56Z</time>
      </trkpt>
      <trkpt lat="45.52708" lon="5.90958">
        <ele>727.37</ele>
        <time>2014-03-02T12:55:59Z</time>
      </trkpt>
      <trkpt lat="45.5273" lon="5.90943">
        <ele>723.53</ele>
        <time>2014-03-02T12:56:03Z</time>
      </trkpt>
      <trkpt lat="45.52733" lon="5.90939">
        <ele>723.05</ele>
        <time>2014-03-02T12:56:04Z</time>
      </trkpt>
      <trkpt lat="45.52736" lon="5.90934">
        <ele>722.57</ele>
        <time>2014-03-02T12:56:05Z</time>
      </trkpt>
      <trkpt lat="45.52738" lon="5.90927">
        <ele>721.61</ele>
        <time>2014-03-02T12:56:06Z</time>
      </trkpt>
      <trkpt lat="45.52739" lon="5.9092">
        <ele>721.61</ele>
        <time>2014-03-02T12:56:07Z</time>
      </trkpt>
      <trkpt lat="45.5274" lon="5.90912">
        <ele>721.61</ele>
        <time>2014-03-02T12:56:08Z</time>
      </trkpt>
      <trkpt lat="45.52739" lon="5.90796">
        <ele>721.13</ele>
        <time>2014-03-02T12:56:22Z</time>
      </trkpt>
      <trkpt lat="45.52738" lon="5.90768">
        <ele>721.61</ele>
        <time>2014-03-02T12:56:26Z</time>
      </trkpt>
      <trkpt lat="45.52735" lon="5.90744">
        <ele>721.61</ele>
        <time>2014-03-02T12:56:30Z</time>
      </trkpt>
      <trkpt lat="45.52737" lon="5.90677">
        <ele>722.57</ele>
        <time>2014-03-02T12:56:43Z</time>
      </trkpt>
      <trkpt lat="45.52745" lon="5.90658">
        <ele>722.09</ele>
        <time>2014-03-02T12:56:47Z</time>
      </trkpt>
      <trkpt lat="45.5275" lon="5.90655">
        <ele>721.13</ele>
        <time>2014-03-02T12:56:48Z</time>
      </trkpt>
      <trkpt lat="45.52756" lon="5.90654">
        <ele>720.16</ele>
        <time>2014-03-02T12:56:49Z</time>
      </trkpt>
      <trkpt lat="45.5278" lon="5.9065">
        <ele>715.84</ele>
        <time>2014-03-02T12:56:52Z</time>
      </trkpt>
      <trkpt lat="45.52809" lon="5.90644">
        <ele>711.03</ele>
        <time>2014-03-02T12:56:55Z</time>
      </trkpt>
      <trkpt lat="45.52819" lon="5.90641">
        <ele>710.07</ele>
        <time>2014-03-02T12:56:56Z</time>
      </trkpt>
      <trkpt lat="45.52829" lon="5.90636">
        <ele>708.15</ele>
        <time>2014-03-02T12:56:57Z</time>
      </trkpt>
      <trkpt lat="45.52848" lon="5.90626">
        <ele>706.23</ele>
        <time>2014-03-02T12:56:59Z</time>
      </trkpt>
      <trkpt lat="45.52858" lon="5.90623">
        <ele>705.26</ele>
        <time>2014-03-02T12:57:00Z</time>
      </trkpt>
      <trkpt lat="45.52869" lon="5.90622">
        <ele>704.3</ele>
        <time>2014-03-02T12:57:01Z</time>
      </trkpt>
      <trkpt lat="45.52879" lon="5.90624">
        <ele>704.3</ele>
        <time>2014-03-02T12:57:02Z</time>
      </trkpt>
      <trkpt lat="45.5289" lon="5.90626">
        <ele>703.82</ele>
        <time>2014-03-02T12:57:03Z</time>
      </trkpt>
      <trkpt lat="45.52931" lon="5.90629">
        <ele>700.46</ele>
        <time>2014-03-02T12:57:07Z</time>
      </trkpt>
      <trkpt lat="45.5295" lon="5.90629">
        <ele>697.09</ele>
        <time>2014-03-02T12:57:09Z</time>
      </trkpt>
      <trkpt lat="45.52971" lon="5.9063">
        <ele>694.21</ele>
        <time>2014-03-02T12:57:11Z</time>
      </trkpt>
      <trkpt lat="45.52993" lon="5.90632">
        <ele>690.84</ele>
        <time>2014-03-02T12:57:13Z</time>
      </trkpt>
      <trkpt lat="45.53036" lon="5.90634">
        <ele>687.48</ele>
        <time>2014-03-02T12:57:17Z</time>
      </trkpt>
      <trkpt lat="45.53065" lon="5.90634">
        <ele>684.6</ele>
        <time>2014-03-02T12:57:20Z</time>
      </trkpt>
      <trkpt lat="45.53092" lon="5.90637">
        <ele>680.75</ele>
        <time>2014-03-02T12:57:23Z</time>
      </trkpt>
      <trkpt lat="45.53119" lon="5.90639">
        <ele>676.91</ele>
        <time>2014-03-02T12:57:26Z</time>
      </trkpt>
      <trkpt lat="45.53138" lon="5.90642">
        <ele>674.02</ele>
        <time>2014-03-02T12:57:28Z</time>
      </trkpt>
      <trkpt lat="45.53148" lon="5.90647">
        <ele>672.58</ele>
        <time>2014-03-02T12:57:29Z</time>
      </trkpt>
      <trkpt lat="45.53158" lon="5.90653">
        <ele>671.62</ele>
        <time>2014-03-02T12:57:30Z</time>
      </trkpt>
      <trkpt lat="45.53197" lon="5.90681">
        <ele>668.25</ele>
        <time>2014-03-02T12:57:34Z</time>
      </trkpt>
      <trkpt lat="45.53207" lon="5.90687">
        <ele>668.25</ele>
        <time>2014-03-02T12:57:35Z</time>
      </trkpt>
      <trkpt lat="45.53257" lon="5.90734">
        <ele>665.85</ele>
        <time>2014-03-02T12:57:41Z</time>
      </trkpt>
      <trkpt lat="45.53263" lon="5.90745">
        <ele>664.89</ele>
        <time>2014-03-02T12:57:42Z</time>
      </trkpt>
      <trkpt lat="45.53268" lon="5.90757">
        <ele>664.41</ele>
        <time>2014-03-02T12:57:43Z</time>
      </trkpt>
      <trkpt lat="45.53276" lon="5.90781">
        <ele>663.45</ele>
        <time>2014-03-02T12:57:45Z</time>
      </trkpt>
      <trkpt lat="45.53281" lon="5.90791">
        <ele>663.45</ele>
        <time>2014-03-02T12:57:46Z</time>
      </trkpt>
      <trkpt lat="45.53287" lon="5.908">
        <ele>663.45</ele>
        <time>2014-03-02T12:57:47Z</time>
      </trkpt>
      <trkpt lat="45.53294" lon="5.90806">
        <ele>663.45</ele>
        <time>2014-03-02T12:57:48Z</time>
      </trkpt>
      <trkpt lat="45.53301" lon="5.9081">
        <ele>662.97</ele>
        <time>2014-03-02T12:57:49Z</time>
      </trkpt>
      <trkpt lat="45.53309" lon="5.90812">
        <ele>662.01</ele>
        <time>2014-03-02T12:57:50Z</time>
      </trkpt>
      <trkpt lat="45.53317" lon="5.90811">
        <ele>661.52</ele>
        <time>2014-03-02T12:57:51Z</time>
      </trkpt>
      <trkpt lat="45.53325" lon="5.90808">
        <ele>661.52</ele>
        <time>2014-03-02T12:57:52Z</time>
      </trkpt>
      <trkpt lat="45.53333" lon="5.90805">
        <ele>661.04</ele>
        <time>2014-03-02T12:57:53Z</time>
      </trkpt>
      <trkpt lat="45.53439" lon="5.90777">
        <ele>657.2</ele>
        <time>2014-03-02T12:58:06Z</time>
      </trkpt>
      <trkpt lat="45.53518" lon="5.90757">
        <ele>654.31</ele>
        <time>2014-03-02T12:58:16Z</time>
      </trkpt>
      <trkpt lat="45.53547" lon="5.90749">
        <ele>653.83</ele>
        <time>2014-03-02T12:58:20Z</time>
      </trkpt>
      <trkpt lat="45.53555" lon="5.90749">
        <ele>653.35</ele>
        <time>2014-03-02T12:58:21Z</time>
      </trkpt>
      <trkpt lat="45.53562" lon="5.9075">
        <ele>652.87</ele>
        <time>2014-03-02T12:58:22Z</time>
      </trkpt>
      <trkpt lat="45.5357" lon="5.90751">
        <ele>652.39</ele>
        <time>2014-03-02T12:58:23Z</time>
      </trkpt>
      <trkpt lat="45.53578" lon="5.90753">
        <ele>652.87</ele>
        <time>2014-03-02T12:58:24Z</time>
      </trkpt>
      <trkpt lat="45.53585" lon="5.90756">
        <ele>652.39</ele>
        <time>2014-03-02T12:58:25Z</time>
      </trkpt>
      <trkpt lat="45.53593" lon="5.9076">
        <ele>650.95</ele>
        <time>2014-03-02T12:58:26Z</time>
      </trkpt>
      <trkpt lat="45.53601" lon="5.90766">
        <ele>650.95</ele>
        <time>2014-03-02T12:58:27Z</time>
      </trkpt>
      <trkpt lat="45.53609" lon="5.90772">
        <ele>650.47</ele>
        <time>2014-03-02T12:58:28Z</time>
      </trkpt>
      <trkpt lat="45.53647" lon="5.90811">
        <ele>647.59</ele>
        <time>2014-03-02T12:58:33Z</time>
      </trkpt>
      <trkpt lat="45.53684" lon="5.90854">
        <ele>644.7</ele>
        <time>2014-03-02T12:58:38Z</time>
      </trkpt>
      <trkpt lat="45.53691" lon="5.9086">
        <ele>644.22</ele>
        <time>2014-03-02T12:58:39Z</time>
      </trkpt>
      <trkpt lat="45.53698" lon="5.90864">
        <ele>643.74</ele>
        <time>2014-03-02T12:58:40Z</time>
      </trkpt>
      <trkpt lat="45.53706" lon="5.90863">
        <ele>643.26</ele>
        <time>2014-03-02T12:58:41Z</time>
      </trkpt>
      <trkpt lat="45.53712" lon="5.90857">
        <ele>642.78</ele>
        <time>2014-03-02T12:58:42Z</time>
      </trkpt>
      <trkpt lat="45.53717" lon="5.90849">
        <ele>642.3</ele>
        <time>2014-03-02T12:58:43Z</time>
      </trkpt>
      <trkpt lat="45.53722" lon="5.90841">
        <ele>642.78</ele>
        <time>2014-03-02T12:58:44Z</time>
      </trkpt>
      <trkpt lat="45.53728" lon="5.90835">
        <ele>641.82</ele>
        <time>2014-03-02T12:58:45Z</time>
      </trkpt>
      <trkpt lat="45.53735" lon="5.90833">
        <ele>640.86</ele>
        <time>2014-03-02T12:58:46Z</time>
      </trkpt>
      <trkpt lat="45.53742" lon="5.90834">
        <ele>640.38</ele>
        <time>2014-03-02T12:58:47Z</time>
      </trkpt>
      <trkpt lat="45.53749" lon="5.90837">
        <ele>638.93</ele>
        <time>2014-03-02T12:58:48Z</time>
      </trkpt>
      <trkpt lat="45.53756" lon="5.90838">
        <ele>638.45</ele>
        <time>2014-03-02T12:58:49Z</time>
      </trkpt>
      <trkpt lat="45.53764" lon="5.90836">
        <ele>637.49</ele>
        <time>2014-03-02T12:58:50Z</time>
      </trkpt>
      <trkpt lat="45.53771" lon="5.90831">
        <ele>636.53</ele>
        <time>2014-03-02T12:58:51Z</time>
      </trkpt>
      <trkpt lat="45.53777" lon="5.90824">
        <ele>635.57</ele>
        <time>2014-03-02T12:58:52Z</time>
      </trkpt>
      <trkpt lat="45.53783" lon="5.90819">
        <ele>634.61</ele>
        <time>2014-03-02T12:58:53Z</time>
      </trkpt>
      <trkpt lat="45.53789" lon="5.90818">
        <ele>634.13</ele>
        <time>2014-03-02T12:58:54Z</time>
      </trkpt>
      <trkpt lat="45.53795" lon="5.90822">
        <ele>633.17</ele>
        <time>2014-03-02T12:58:55Z</time>
      </trkpt>
      <trkpt lat="45.53801" lon="5.90829">
        <ele>632.2</ele>
        <time>2014-03-02T12:58:56Z</time>
      </trkpt>
      <trkpt lat="45.53806" lon="5.90836">
        <ele>631.72</ele>
        <time>2014-03-02T12:58:57Z</time>
      </trkpt>
      <trkpt lat="45.53814" lon="5.9084">
        <ele>631.24</ele>
        <time>2014-03-02T12:58:58Z</time>
      </trkpt>
      <trkpt lat="45.53822" lon="5.90841">
        <ele>630.28</ele>
        <time>2014-03-02T12:58:59Z</time>
      </trkpt>
      <trkpt lat="45.53831" lon="5.9084">
        <ele>628.84</ele>
        <time>2014-03-02T12:59:00Z</time>
      </trkpt>
      <trkpt lat="45.5384" lon="5.90841">
        <ele>627.4</ele>
        <time>2014-03-02T12:59:01Z</time>
      </trkpt>
      <trkpt lat="45.53849" lon="5.90844">
        <ele>626.44</ele>
        <time>2014-03-02T12:59:02Z</time>
      </trkpt>
      <trkpt lat="45.53859" lon="5.90849">
        <ele>626.44</ele>
        <time>2014-03-02T12:59:03Z</time>
      </trkpt>
      <trkpt lat="45.53883" lon="5.90868">
        <ele>624.99</ele>
        <time>2014-03-02T12:59:06Z</time>
      </trkpt>
      <trkpt lat="45.53936" lon="5.90904">
        <ele>624.03</ele>
        <time>2014-03-02T12:59:13Z</time>
      </trkpt>
      <trkpt lat="45.53978" lon="5.90947">
        <ele>623.07</ele>
        <time>2014-03-02T12:59:20Z</time>
      </trkpt>
      <trkpt lat="45.53984" lon="5.90953">
        <ele>622.11</ele>
        <time>2014-03-02T12:59:21Z</time>
      </trkpt>
      <trkpt lat="45.53991" lon="5.90958">
        <ele>622.11</ele>
        <time>2014-03-02T12:59:22Z</time>
      </trkpt>
      <trkpt lat="45.53999" lon="5.90963">
        <ele>621.63</ele>
        <time>2014-03-02T12:59:23Z</time>
      </trkpt>
      <trkpt lat="45.54007" lon="5.90967">
        <ele>620.19</ele>
        <time>2014-03-02T12:59:24Z</time>
      </trkpt>
      <trkpt lat="45.54049" lon="5.90986">
        <ele>617.78</ele>
        <time>2014-03-02T12:59:29Z</time>
      </trkpt>
      <trkpt lat="45.54057" lon="5.90991">
        <ele>616.82</ele>
        <time>2014-03-02T12:59:30Z</time>
      </trkpt>
      <trkpt lat="45.54064" lon="5.90998">
        <ele>617.3</ele>
        <time>2014-03-02T12:59:31Z</time>
      </trkpt>
      <trkpt lat="45.54071" lon="5.91006">
        <ele>616.34</ele>
        <time>2014-03-02T12:59:32Z</time>
      </trkpt>
      <trkpt lat="45.54077" lon="5.91015">
        <ele>616.34</ele>
        <time>2014-03-02T12:59:33Z</time>
      </trkpt>
      <trkpt lat="45.54081" lon="5.91026">
        <ele>614.9</ele>
        <time>2014-03-02T12:59:34Z</time>
      </trkpt>
      <trkpt lat="45.54082" lon="5.91038">
        <ele>614.9</ele>
        <time>2014-03-02T12:59:35Z</time>
      </trkpt>
      <trkpt lat="45.54081" lon="5.9105">
        <ele>614.42</ele>
        <time>2014-03-02T12:59:36Z</time>
      </trkpt>
      <trkpt lat="45.5408" lon="5.91062">
        <ele>613.94</ele>
        <time>2014-03-02T12:59:37Z</time>
      </trkpt>
      <trkpt lat="45.54078" lon="5.91075">
        <ele>612.98</ele>
        <time>2014-03-02T12:59:38Z</time>
      </trkpt>
      <trkpt lat="45.5407" lon="5.91128">
        <ele>610.09</ele>
        <time>2014-03-02T12:59:42Z</time>
      </trkpt>
      <trkpt lat="45.54065" lon="5.91141">
        <ele>609.13</ele>
        <time>2014-03-02T12:59:43Z</time>
      </trkpt>
      <trkpt lat="45.54059" lon="5.91153">
        <ele>609.13</ele>
        <time>2014-03-02T12:59:44Z</time>
      </trkpt>
      <trkpt lat="45.54036" lon="5.91199">
        <ele>605.29</ele>
        <time>2014-03-02T12:59:48Z</time>
      </trkpt>
      <trkpt lat="45.54031" lon="5.91212">
        <ele>605.29</ele>
        <time>2014-03-02T12:59:49Z</time>
      </trkpt>
      <trkpt lat="45.54029" lon="5.91225">
        <ele>604.33</ele>
        <time>2014-03-02T12:59:50Z</time>
      </trkpt>
      <trkpt lat="45.54027" lon="5.91239">
        <ele>604.81</ele>
        <time>2014-03-02T12:59:51Z</time>
      </trkpt>
      <trkpt lat="45.54027" lon="5.91252">
        <ele>602.88</ele>
        <time>2014-03-02T12:59:52Z</time>
      </trkpt>
      <trkpt lat="45.54027" lon="5.91264">
        <ele>601.92</ele>
        <time>2014-03-02T12:59:53Z</time>
      </trkpt>
      <trkpt lat="45.54029" lon="5.91288">
        <ele>600</ele>
        <time>2014-03-02T12:59:55Z</time>
      </trkpt>
      <trkpt lat="45.54033" lon="5.91298">
        <ele>599.04</ele>
        <time>2014-03-02T12:59:56Z</time>
      </trkpt>
      <trkpt lat="45.54039" lon="5.91307">
        <ele>598.08</ele>
        <time>2014-03-02T12:59:57Z</time>
      </trkpt>
      <trkpt lat="45.54047" lon="5.91313">
        <ele>597.12</ele>
        <time>2014-03-02T12:59:58Z</time>
      </trkpt>
      <trkpt lat="45.54057" lon="5.91315">
        <ele>596.15</ele>
        <time>2014-03-02T12:59:59Z</time>
      </trkpt>
      <trkpt lat="45.54068" lon="5.91315">
        <ele>594.71</ele>
        <time>2014-03-02T13:00:00Z</time>
      </trkpt>
      <trkpt lat="45.54078" lon="5.91315">
        <ele>593.27</ele>
        <time>2014-03-02T13:00:01Z</time>
      </trkpt>
      <trkpt lat="45.54089" lon="5.91315">
        <ele>592.31</ele>
        <time>2014-03-02T13:00:02Z</time>
      </trkpt>
      <trkpt lat="45.541" lon="5.91317">
        <ele>590.87</ele>
        <time>2014-03-02T13:00:03Z</time>
      </trkpt>
      <trkpt lat="45.54112" lon="5.91321">
        <ele>589.91</ele>
        <time>2014-03-02T13:00:04Z</time>
      </trkpt>
      <trkpt lat="45.54123" lon="5.91324">
        <ele>589.91</ele>
        <time>2014-03-02T13:00:05Z</time>
      </trkpt>
      <trkpt lat="45.54158" lon="5.91338">
        <ele>585.58</ele>
        <time>2014-03-02T13:00:08Z</time>
      </trkpt>
      <trkpt lat="45.54204" lon="5.91356">
        <ele>583.18</ele>
        <time>2014-03-02T13:00:12Z</time>
      </trkpt>
      <trkpt lat="45.54236" lon="5.91369">
        <ele>579.81</ele>
        <time>2014-03-02T13:00:15Z</time>
      </trkpt>
      <trkpt lat="45.54255" lon="5.91377">
        <ele>578.37</ele>
        <time>2014-03-02T13:00:17Z</time>
      </trkpt>
      <trkpt lat="45.54263" lon="5.91381">
        <ele>577.41</ele>
        <time>2014-03-02T13:00:18Z</time>
      </trkpt>
      <trkpt lat="45.54281" lon="5.91388">
        <ele>575.01</ele>
        <time>2014-03-02T13:00:20Z</time>
      </trkpt>
      <trkpt lat="45.54289" lon="5.91388">
        <ele>574.53</ele>
        <time>2014-03-02T13:00:21Z</time>
      </trkpt>
      <trkpt lat="45.54296" lon="5.91383">
        <ele>573.08</ele>
        <time>2014-03-02T13:00:22Z</time>
      </trkpt>
      <trkpt lat="45.54303" lon="5.91376">
        <ele>572.6</ele>
        <time>2014-03-02T13:00:23Z</time>
      </trkpt>
      <trkpt lat="45.5431" lon="5.91368">
        <ele>571.64</ele>
        <time>2014-03-02T13:00:24Z</time>
      </trkpt>
      <trkpt lat="45.54315" lon="5.91358">
        <ele>570.2</ele>
        <time>2014-03-02T13:00:25Z</time>
      </trkpt>
      <trkpt lat="45.54321" lon="5.91347">
        <ele>569.72</ele>
        <time>2014-03-02T13:00:26Z</time>
      </trkpt>
      <trkpt lat="45.54325" lon="5.91335">
        <ele>568.76</ele>
        <time>2014-03-02T13:00:27Z</time>
      </trkpt>
      <trkpt lat="45.5434" lon="5.913">
        <ele>564.91</ele>
        <time>2014-03-02T13:00:30Z</time>
      </trkpt>
      <trkpt lat="45.54346" lon="5.91292">
        <ele>563.95</ele>
        <time>2014-03-02T13:00:31Z</time>
      </trkpt>
      <trkpt lat="45.54352" lon="5.91285">
        <ele>562.99</ele>
        <time>2014-03-02T13:00:32Z</time>
      </trkpt>
      <trkpt lat="45.54359" lon="5.91282">
        <ele>562.03</ele>
        <time>2014-03-02T13:00:33Z</time>
      </trkpt>
      <trkpt lat="45.54377" lon="5.91279">
        <ele>559.62</ele>
        <time>2014-03-02T13:00:35Z</time>
      </trkpt>
      <trkpt lat="45.54387" lon="5.91275">
        <ele>558.66</ele>
        <time>2014-03-02T13:00:36Z</time>
      </trkpt>
      <trkpt lat="45.54396" lon="5.9127">
        <ele>558.66</ele>
        <time>2014-03-02T13:00:37Z</time>
      </trkpt>
      <trkpt lat="45.54416" lon="5.91257">
        <ele>557.22</ele>
        <time>2014-03-02T13:00:40Z</time>
      </trkpt>
      <trkpt lat="45.54422" lon="5.91258">
        <ele>556.74</ele>
        <time>2014-03-02T13:00:41Z</time>
      </trkpt>
      <trkpt lat="45.54425" lon="5.91262">
        <ele>556.26</ele>
        <time>2014-03-02T13:00:42Z</time>
      </trkpt>
      <trkpt lat="45.54426" lon="5.9127">
        <ele>555.78</ele>
        <time>2014-03-02T13:00:43Z</time>
      </trkpt>
      <trkpt lat="45.54425" lon="5.91278">
        <ele>554.34</ele>
        <time>2014-03-02T13:00:44Z</time>
      </trkpt>
      <trkpt lat="45.54422" lon="5.91288">
        <ele>553.38</ele>
        <time>2014-03-02T13:00:45Z</time>
      </trkpt>
      <trkpt lat="45.54421" lon="5.91298">
        <ele>553.38</ele>
        <time>2014-03-02T13:00:46Z</time>
      </trkpt>
      <trkpt lat="45.54421" lon="5.91309">
        <ele>552.41</ele>
        <time>2014-03-02T13:00:47Z</time>
      </trkpt>
      <trkpt lat="45.54423" lon="5.91321">
        <ele>552.41</ele>
        <time>2014-03-02T13:00:48Z</time>
      </trkpt>
      <trkpt lat="45.54427" lon="5.91332">
        <ele>550.49</ele>
        <time>2014-03-02T13:00:49Z</time>
      </trkpt>
      <trkpt lat="45.54432" lon="5.91342">
        <ele>550.01</ele>
        <time>2014-03-02T13:00:50Z</time>
      </trkpt>
      <trkpt lat="45.54438" lon="5.91353">
        <ele>549.53</ele>
        <time>2014-03-02T13:00:51Z</time>
      </trkpt>
      <trkpt lat="45.54443" lon="5.91365">
        <ele>548.09</ele>
        <time>2014-03-02T13:00:52Z</time>
      </trkpt>
      <trkpt lat="45.54447" lon="5.91378">
        <ele>547.61</ele>
        <time>2014-03-02T13:00:53Z</time>
      </trkpt>
      <trkpt lat="45.54449" lon="5.91392">
        <ele>546.65</ele>
        <time>2014-03-02T13:00:54Z</time>
      </trkpt>
      <trkpt lat="45.5445" lon="5.91406">
        <ele>546.17</ele>
        <time>2014-03-02T13:00:55Z</time>
      </trkpt>
      <trkpt lat="45.54451" lon="5.9142">
        <ele>544.72</ele>
        <time>2014-03-02T13:00:56Z</time>
      </trkpt>
      <trkpt lat="45.54451" lon="5.91461">
        <ele>542.8</ele>
        <time>2014-03-02T13:00:59Z</time>
      </trkpt>
      <trkpt lat="45.5445" lon="5.91487">
        <ele>541.36</ele>
        <time>2014-03-02T13:01:01Z</time>
      </trkpt>
      <trkpt lat="45.54445" lon="5.915">
        <ele>540.4</ele>
        <time>2014-03-02T13:01:02Z</time>
      </trkpt>
      <trkpt lat="45.54438" lon="5.9151">
        <ele>539.44</ele>
        <time>2014-03-02T13:01:03Z</time>
      </trkpt>
      <trkpt lat="45.5443" lon="5.91517">
        <ele>539.44</ele>
        <time>2014-03-02T13:01:04Z</time>
      </trkpt>
      <trkpt lat="45.54421" lon="5.91523">
        <ele>538.96</ele>
        <time>2014-03-02T13:01:05Z</time>
      </trkpt>
      <trkpt lat="45.54414" lon="5.91532">
        <ele>538.96</ele>
        <time>2014-03-02T13:01:06Z</time>
      </trkpt>
      <trkpt lat="45.54409" lon="5.91542">
        <ele>538.96</ele>
        <time>2014-03-02T13:01:07Z</time>
      </trkpt>
      <trkpt lat="45.54406" lon="5.91554">
        <ele>538.48</ele>
        <time>2014-03-02T13:01:08Z</time>
      </trkpt>
      <trkpt lat="45.54405" lon="5.91566">
        <ele>537.99</ele>
        <time>2014-03-02T13:01:09Z</time>
      </trkpt>
      <trkpt lat="45.54404" lon="5.91579">
        <ele>537.99</ele>
        <time>2014-03-02T13:01:10Z</time>
      </trkpt>
      <trkpt lat="45.54402" lon="5.91613">
        <ele>537.51</ele>
        <time>2014-03-02T13:01:15Z</time>
      </trkpt>
      <trkpt lat="45.54403" lon="5.91617">
        <ele>537.03</ele>
        <time>2014-03-02T13:01:16Z</time>
      </trkpt>
      <trkpt lat="45.54406" lon="5.9162">
        <ele>536.55</ele>
        <time>2014-03-02T13:01:17Z</time>
      </trkpt>
      <trkpt lat="45.54409" lon="5.91622">
        <ele>536.07</ele>
        <time>2014-03-02T13:01:18Z</time>
      </trkpt>
      <trkpt lat="45.54414" lon="5.91622">
        <ele>536.07</ele>
        <time>2014-03-02T13:01:19Z</time>
      </trkpt>
      <trkpt lat="45.5442" lon="5.91622">
        <ele>535.59</ele>
        <time>2014-03-02T13:01:20Z</time>
      </trkpt>
      <trkpt lat="45.54426" lon="5.91622">
        <ele>535.11</ele>
        <time>2014-03-02T13:01:21Z</time>
      </trkpt>
      <trkpt lat="45.54464" lon="5.91623">
        <ele>532.23</ele>
        <time>2014-03-02T13:01:26Z</time>
      </trkpt>
      <trkpt lat="45.54472" lon="5.91625">
        <ele>531.75</ele>
        <time>2014-03-02T13:01:27Z</time>
      </trkpt>
      <trkpt lat="45.5448" lon="5.9163">
        <ele>531.27</ele>
        <time>2014-03-02T13:01:28Z</time>
      </trkpt>
      <trkpt lat="45.54488" lon="5.91636">
        <ele>530.3</ele>
        <time>2014-03-02T13:01:29Z</time>
      </trkpt>
      <trkpt lat="45.54495" lon="5.91644">
        <ele>529.34</ele>
        <time>2014-03-02T13:01:30Z</time>
      </trkpt>
      <trkpt lat="45.54502" lon="5.91653">
        <ele>528.86</ele>
        <time>2014-03-02T13:01:31Z</time>
      </trkpt>
      <trkpt lat="45.54508" lon="5.91665">
        <ele>527.9</ele>
        <time>2014-03-02T13:01:32Z</time>
      </trkpt>
      <trkpt lat="45.54514" lon="5.91677">
        <ele>526.46</ele>
        <time>2014-03-02T13:01:33Z</time>
      </trkpt>
      <trkpt lat="45.54536" lon="5.91728">
        <ele>522.61</ele>
        <time>2014-03-02T13:01:37Z</time>
      </trkpt>
      <trkpt lat="45.5454" lon="5.91743">
        <ele>522.13</ele>
        <time>2014-03-02T13:01:38Z</time>
      </trkpt>
      <trkpt lat="45.54543" lon="5.91758">
        <ele>522.13</ele>
        <time>2014-03-02T13:01:39Z</time>
      </trkpt>
      <trkpt lat="45.54548" lon="5.91789">
        <ele>520.21</ele>
        <time>2014-03-02T13:01:41Z</time>
      </trkpt>
      <trkpt lat="45.54549" lon="5.91806">
        <ele>519.25</ele>
        <time>2014-03-02T13:01:42Z</time>
      </trkpt>
      <trkpt lat="45.54548" lon="5.91822">
        <ele>517.81</ele>
        <time>2014-03-02T13:01:43Z</time>
      </trkpt>
      <trkpt lat="45.54546" lon="5.91839">
        <ele>516.85</ele>
        <time>2014-03-02T13:01:44Z</time>
      </trkpt>
      <trkpt lat="45.54543" lon="5.91855">
        <ele>515.4</ele>
        <time>2014-03-02T13:01:45Z</time>
      </trkpt>
      <trkpt lat="45.54538" lon="5.91872">
        <ele>514.92</ele>
        <time>2014-03-02T13:01:46Z</time>
      </trkpt>
      <trkpt lat="45.54533" lon="5.91887">
        <ele>513</ele>
        <time>2014-03-02T13:01:47Z</time>
      </trkpt>
      <trkpt lat="45.54527" lon="5.91902">
        <ele>512.04</ele>
        <time>2014-03-02T13:01:48Z</time>
      </trkpt>
      <trkpt lat="45.5452" lon="5.91915">
        <ele>511.08</ele>
        <time>2014-03-02T13:01:49Z</time>
      </trkpt>
      <trkpt lat="45.54512" lon="5.91928">
        <ele>510.12</ele>
        <time>2014-03-02T13:01:50Z</time>
      </trkpt>
      <trkpt lat="45.54502" lon="5.91941">
        <ele>509.16</ele>
        <time>2014-03-02T13:01:51Z</time>
      </trkpt>
      <trkpt lat="45.54492" lon="5.91951">
        <ele>508.19</ele>
        <time>2014-03-02T13:01:52Z</time>
      </trkpt>
      <trkpt lat="45.54482" lon="5.9196">
        <ele>508.19</ele>
        <time>2014-03-02T13:01:53Z</time>
      </trkpt>
      <trkpt lat="45.54472" lon="5.91969">
        <ele>506.75</ele>
        <time>2014-03-02T13:01:54Z</time>
      </trkpt>
      <trkpt lat="45.54463" lon="5.9198">
        <ele>505.79</ele>
        <time>2014-03-02T13:01:55Z</time>
      </trkpt>
      <trkpt lat="45.54454" lon="5.91993">
        <ele>505.31</ele>
        <time>2014-03-02T13:01:56Z</time>
      </trkpt>
      <trkpt lat="45.54447" lon="5.92005">
        <ele>504.35</ele>
        <time>2014-03-02T13:01:57Z</time>
      </trkpt>
      <trkpt lat="45.54441" lon="5.92017">
        <ele>503.39</ele>
        <time>2014-03-02T13:01:58Z</time>
      </trkpt>
      <trkpt lat="45.54435" lon="5.92028">
        <ele>503.39</ele>
        <time>2014-03-02T13:01:59Z</time>
      </trkpt>
      <trkpt lat="45.54431" lon="5.9204">
        <ele>502.91</ele>
        <time>2014-03-02T13:02:00Z</time>
      </trkpt>
      <trkpt lat="45.5443" lon="5.92052">
        <ele>501.95</ele>
        <time>2014-03-02T13:02:01Z</time>
      </trkpt>
      <trkpt lat="45.54433" lon="5.92065">
        <ele>500.98</ele>
        <time>2014-03-02T13:02:02Z</time>
      </trkpt>
      <trkpt lat="45.54437" lon="5.92076">
        <ele>500.5</ele>
        <time>2014-03-02T13:02:03Z</time>
      </trkpt>
      <trkpt lat="45.54443" lon="5.92086">
        <ele>499.54</ele>
        <time>2014-03-02T13:02:04Z</time>
      </trkpt>
      <trkpt lat="45.54449" lon="5.92093">
        <ele>499.54</ele>
        <time>2014-03-02T13:02:05Z</time>
      </trkpt>
      <trkpt lat="45.54455" lon="5.92099">
        <ele>499.54</ele>
        <time>2014-03-02T13:02:06Z</time>
      </trkpt>
      <trkpt lat="45.54462" lon="5.92104">
        <ele>499.54</ele>
        <time>2014-03-02T13:02:07Z</time>
      </trkpt>
      <trkpt lat="45.5447" lon="5.92107">
        <ele>499.54</ele>
        <time>2014-03-02T13:02:08Z</time>
      </trkpt>
      <trkpt lat="45.54483" lon="5.921">
        <ele>499.54</ele>
        <time>2014-03-02T13:02:09Z</time>
      </trkpt>
      <trkpt lat="45.54492" lon="5.92097">
        <ele>499.06</ele>
        <time>2014-03-02T13:02:10Z</time>
      </trkpt>
      <trkpt lat="45.54502" lon="5.92094">
        <ele>499.54</ele>
        <time>2014-03-02T13:02:11Z</time>
      </trkpt>
      <trkpt lat="45.54511" lon="5.9209">
        <ele>500.02</ele>
        <time>2014-03-02T13:02:12Z</time>
      </trkpt>
      <trkpt lat="45.54519" lon="5.92086">
        <ele>500.5</ele>
        <time>2014-03-02T13:02:13Z</time>
      </trkpt>
      <trkpt lat="45.54609" lon="5.92063">
        <ele>502.43</ele>
        <time>2014-03-02T13:02:27Z</time>
      </trkpt>
      <trkpt lat="45.5462" lon="5.92064">
        <ele>502.43</ele>
        <time>2014-03-02T13:02:29Z</time>
      </trkpt>
      <trkpt lat="45.54625" lon="5.92065">
        <ele>502.91</ele>
        <time>2014-03-02T13:02:30Z</time>
      </trkpt>
      <trkpt lat="45.54716" lon="5.92085">
        <ele>502.43</ele>
        <time>2014-03-02T13:02:46Z</time>
      </trkpt>
      <trkpt lat="45.54763" lon="5.92101">
        <ele>500.02</ele>
        <time>2014-03-02T13:02:53Z</time>
      </trkpt>
      <trkpt lat="45.54802" lon="5.92123">
        <ele>496.18</ele>
        <time>2014-03-02T13:02:58Z</time>
      </trkpt>
      <trkpt lat="45.5482" lon="5.92129">
        <ele>495.22</ele>
        <time>2014-03-02T13:03:00Z</time>
      </trkpt>
      <trkpt lat="45.54829" lon="5.92131">
        <ele>494.74</ele>
        <time>2014-03-02T13:03:01Z</time>
      </trkpt>
      <trkpt lat="45.54839" lon="5.92131">
        <ele>493.77</ele>
        <time>2014-03-02T13:03:02Z</time>
      </trkpt>
      <trkpt lat="45.5486" lon="5.92131">
        <ele>492.33</ele>
        <time>2014-03-02T13:03:04Z</time>
      </trkpt>
      <trkpt lat="45.5489" lon="5.92136">
        <ele>488.49</ele>
        <time>2014-03-02T13:03:07Z</time>
      </trkpt>
      <trkpt lat="45.54909" lon="5.92141">
        <ele>487.05</ele>
        <time>2014-03-02T13:03:09Z</time>
      </trkpt>
      <trkpt lat="45.54918" lon="5.92145">
        <ele>487.05</ele>
        <time>2014-03-02T13:03:10Z</time>
      </trkpt>
      <trkpt lat="45.54927" lon="5.92149">
        <ele>486.08</ele>
        <time>2014-03-02T13:03:11Z</time>
      </trkpt>
      <trkpt lat="45.54936" lon="5.92149">
        <ele>485.6</ele>
        <time>2014-03-02T13:03:12Z</time>
      </trkpt>
      <trkpt lat="45.54945" lon="5.92147">
        <ele>484.16</ele>
        <time>2014-03-02T13:03:13Z</time>
      </trkpt>
      <trkpt lat="45.54975" lon="5.92141">
        <ele>481.28</ele>
        <time>2014-03-02T13:03:16Z</time>
      </trkpt>
      <trkpt lat="45.55018" lon="5.92136">
        <ele>477.91</ele>
        <time>2014-03-02T13:03:20Z</time>
      </trkpt>
      <trkpt lat="45.55063" lon="5.92133">
        <ele>474.55</ele>
        <time>2014-03-02T13:03:24Z</time>
      </trkpt>
      <trkpt lat="45.55127" lon="5.92138">
        <ele>470.7</ele>
        <time>2014-03-02T13:03:30Z</time>
      </trkpt>
      <trkpt lat="45.55169" lon="5.92143">
        <ele>467.82</ele>
        <time>2014-03-02T13:03:34Z</time>
      </trkpt>
      <trkpt lat="45.55231" lon="5.9215">
        <ele>463.49</ele>
        <time>2014-03-02T13:03:40Z</time>
      </trkpt>
      <trkpt lat="45.55293" lon="5.92154">
        <ele>460.13</ele>
        <time>2014-03-02T13:03:46Z</time>
      </trkpt>
      <trkpt lat="45.55302" lon="5.92153">
        <ele>460.13</ele>
        <time>2014-03-02T13:03:47Z</time>
      </trkpt>
      <trkpt lat="45.55315" lon="5.92155">
        <ele>459.17</ele>
        <time>2014-03-02T13:03:49Z</time>
      </trkpt>
      <trkpt lat="45.5532" lon="5.92157">
        <ele>459.65</ele>
        <time>2014-03-02T13:03:50Z</time>
      </trkpt>
      <trkpt lat="45.55334" lon="5.92165">
        <ele>458.21</ele>
        <time>2014-03-02T13:03:53Z</time>
      </trkpt>
      <trkpt lat="45.5534" lon="5.92166">
        <ele>457.24</ele>
        <time>2014-03-02T13:03:54Z</time>
      </trkpt>
      <trkpt lat="45.55346" lon="5.92167">
        <ele>457.24</ele>
        <time>2014-03-02T13:03:55Z</time>
      </trkpt>
      <trkpt lat="45.55352" lon="5.92169">
        <ele>456.76</ele>
        <time>2014-03-02T13:03:56Z</time>
      </trkpt>
      <trkpt lat="45.55359" lon="5.92171">
        <ele>455.8</ele>
        <time>2014-03-02T13:03:57Z</time>
      </trkpt>
      <trkpt lat="45.55389" lon="5.92176">
        <ele>454.84</ele>
        <time>2014-03-02T13:04:01Z</time>
      </trkpt>
      <trkpt lat="45.5544" lon="5.92173">
        <ele>451</ele>
        <time>2014-03-02T13:04:07Z</time>
      </trkpt>
      <trkpt lat="45.55449" lon="5.92173">
        <ele>451</ele>
        <time>2014-03-02T13:04:08Z</time>
      </trkpt>
      <trkpt lat="45.55467" lon="5.92174">
        <ele>449.55</ele>
        <time>2014-03-02T13:04:10Z</time>
      </trkpt>
      <trkpt lat="45.55486" lon="5.92176">
        <ele>448.59</ele>
        <time>2014-03-02T13:04:12Z</time>
      </trkpt>
      <trkpt lat="45.55515" lon="5.9218">
        <ele>446.67</ele>
        <time>2014-03-02T13:04:15Z</time>
      </trkpt>
      <trkpt lat="45.55554" lon="5.92186">
        <ele>443.31</ele>
        <time>2014-03-02T13:04:19Z</time>
      </trkpt>
      <trkpt lat="45.55605" lon="5.92192">
        <ele>440.42</ele>
        <time>2014-03-02T13:04:24Z</time>
      </trkpt>
      <trkpt lat="45.55615" lon="5.92193">
        <ele>439.94</ele>
        <time>2014-03-02T13:04:25Z</time>
      </trkpt>
      <trkpt lat="45.55667" lon="5.92199">
        <ele>436.58</ele>
        <time>2014-03-02T13:04:30Z</time>
      </trkpt>
      <trkpt lat="45.55718" lon="5.92204">
        <ele>432.73</ele>
        <time>2014-03-02T13:04:35Z</time>
      </trkpt>
      <trkpt lat="45.55761" lon="5.92209">
        <ele>429.85</ele>
        <time>2014-03-02T13:04:39Z</time>
      </trkpt>
      <trkpt lat="45.55803" lon="5.92215">
        <ele>426.48</ele>
        <time>2014-03-02T13:04:43Z</time>
      </trkpt>
      <trkpt lat="45.55847" lon="5.9222">
        <ele>422.64</ele>
        <time>2014-03-02T13:04:47Z</time>
      </trkpt>
      <trkpt lat="45.55868" lon="5.92222">
        <ele>421.19</ele>
        <time>2014-03-02T13:04:49Z</time>
      </trkpt>
      <trkpt lat="45.55886" lon="5.92225">
        <ele>419.75</ele>
        <time>2014-03-02T13:04:51Z</time>
      </trkpt>
      <trkpt lat="45.559" lon="5.92228">
        <ele>418.79</ele>
        <time>2014-03-02T13:04:53Z</time>
      </trkpt>
      <trkpt lat="45.55906" lon="5.92232">
        <ele>418.31</ele>
        <time>2014-03-02T13:04:54Z</time>
      </trkpt>
      <trkpt lat="45.55913" lon="5.92239">
        <ele>417.35</ele>
        <time>2014-03-02T13:04:55Z</time>
      </trkpt>
      <trkpt lat="45.55919" lon="5.92246">
        <ele>416.87</ele>
        <time>2014-03-02T13:04:56Z</time>
      </trkpt>
      <trkpt lat="45.55947" lon="5.92278">
        <ele>413.5</ele>
        <time>2014-03-02T13:05:00Z</time>
      </trkpt>
      <trkpt lat="45.55954" lon="5.92287">
        <ele>412.54</ele>
        <time>2014-03-02T13:05:01Z</time>
      </trkpt>
      <trkpt lat="45.5596" lon="5.92298">
        <ele>411.58</ele>
        <time>2014-03-02T13:05:02Z</time>
      </trkpt>
      <trkpt lat="45.55965" lon="5.9231">
        <ele>411.1</ele>
        <time>2014-03-02T13:05:03Z</time>
      </trkpt>
      <trkpt lat="45.5597" lon="5.92322">
        <ele>409.66</ele>
        <time>2014-03-02T13:05:04Z</time>
      </trkpt>
      <trkpt lat="45.55974" lon="5.92336">
        <ele>409.18</ele>
        <time>2014-03-02T13:05:05Z</time>
      </trkpt>
      <trkpt lat="45.55977" lon="5.9235">
        <ele>408.22</ele>
        <time>2014-03-02T13:05:06Z</time>
      </trkpt>
      <trkpt lat="45.55979" lon="5.92365">
        <ele>407.26</ele>
        <time>2014-03-02T13:05:07Z</time>
      </trkpt>
      <trkpt lat="45.55985" lon="5.92394">
        <ele>405.33</ele>
        <time>2014-03-02T13:05:09Z</time>
      </trkpt>
      <trkpt lat="45.5599" lon="5.92408">
        <ele>404.37</ele>
        <time>2014-03-02T13:05:10Z</time>
      </trkpt>
      <trkpt lat="45.55996" lon="5.92422">
        <ele>404.37</ele>
        <time>2014-03-02T13:05:11Z</time>
      </trkpt>
      <trkpt lat="45.56013" lon="5.92462">
        <ele>401.01</ele>
        <time>2014-03-02T13:05:14Z</time>
      </trkpt>
      <trkpt lat="45.56036" lon="5.92518">
        <ele>397.64</ele>
        <time>2014-03-02T13:05:18Z</time>
      </trkpt>
      <trkpt lat="45.56056" lon="5.92574">
        <ele>393.8</ele>
        <time>2014-03-02T13:05:22Z</time>
      </trkpt>
      <trkpt lat="45.5606" lon="5.92588">
        <ele>392.36</ele>
        <time>2014-03-02T13:05:23Z</time>
      </trkpt>
      <trkpt lat="45.56067" lon="5.92599">
        <ele>391.39</ele>
        <time>2014-03-02T13:05:24Z</time>
      </trkpt>
      <trkpt lat="45.56076" lon="5.92609">
        <ele>390.43</ele>
        <time>2014-03-02T13:05:25Z</time>
      </trkpt>
      <trkpt lat="45.56111" lon="5.92651">
        <ele>387.07</ele>
        <time>2014-03-02T13:05:29Z</time>
      </trkpt>
      <trkpt lat="45.56128" lon="5.92675">
        <ele>385.63</ele>
        <time>2014-03-02T13:05:31Z</time>
      </trkpt>
      <trkpt lat="45.56151" lon="5.92714">
        <ele>382.74</ele>
        <time>2014-03-02T13:05:34Z</time>
      </trkpt>
      <trkpt lat="45.56172" lon="5.92749">
        <ele>379.38</ele>
        <time>2014-03-02T13:05:37Z</time>
      </trkpt>
      <trkpt lat="45.56178" lon="5.92761">
        <ele>378.42</ele>
        <time>2014-03-02T13:05:38Z</time>
      </trkpt>
      <trkpt lat="45.56181" lon="5.92775">
        <ele>377.94</ele>
        <time>2014-03-02T13:05:39Z</time>
      </trkpt>
      <trkpt lat="45.56183" lon="5.9279">
        <ele>376.49</ele>
        <time>2014-03-02T13:05:40Z</time>
      </trkpt>
      <trkpt lat="45.56184" lon="5.92805">
        <ele>375.53</ele>
        <time>2014-03-02T13:05:41Z</time>
      </trkpt>
      <trkpt lat="45.56185" lon="5.9282">
        <ele>374.57</ele>
        <time>2014-03-02T13:05:42Z</time>
      </trkpt>
      <trkpt lat="45.56186" lon="5.92878">
        <ele>370.73</ele>
        <time>2014-03-02T13:05:46Z</time>
      </trkpt>
      <trkpt lat="45.56185" lon="5.92902">
        <ele>370.24</ele>
        <time>2014-03-02T13:05:48Z</time>
      </trkpt>
      <trkpt lat="45.56182" lon="5.92913">
        <ele>369.28</ele>
        <time>2014-03-02T13:05:49Z</time>
      </trkpt>
      <trkpt lat="45.56177" lon="5.92922">
        <ele>367.84</ele>
        <time>2014-03-02T13:05:50Z</time>
      </trkpt>
      <trkpt lat="45.5617" lon="5.9293">
        <ele>367.36</ele>
        <time>2014-03-02T13:05:51Z</time>
      </trkpt>
      <trkpt lat="45.56163" lon="5.92938">
        <ele>366.4</ele>
        <time>2014-03-02T13:05:52Z</time>
      </trkpt>
      <trkpt lat="45.56136" lon="5.92979">
        <ele>363.04</ele>
        <time>2014-03-02T13:05:56Z</time>
      </trkpt>
      <trkpt lat="45.56114" lon="5.93026">
        <ele>359.67</ele>
        <time>2014-03-02T13:06:00Z</time>
      </trkpt>
      <trkpt lat="45.56105" lon="5.93035">
        <ele>358.71</ele>
        <time>2014-03-02T13:06:01Z</time>
      </trkpt>
      <trkpt lat="45.56096" lon="5.9304">
        <ele>358.23</ele>
        <time>2014-03-02T13:06:02Z</time>
      </trkpt>
      <trkpt lat="45.56088" lon="5.93046">
        <ele>357.75</ele>
        <time>2014-03-02T13:06:03Z</time>
      </trkpt>
      <trkpt lat="45.56081" lon="5.93052">
        <ele>356.79</ele>
        <time>2014-03-02T13:06:04Z</time>
      </trkpt>
      <trkpt lat="45.56077" lon="5.9306">
        <ele>356.31</ele>
        <time>2014-03-02T13:06:05Z</time>
      </trkpt>
      <trkpt lat="45.56075" lon="5.93071">
        <ele>355.83</ele>
        <time>2014-03-02T13:06:06Z</time>
      </trkpt>
      <trkpt lat="45.56073" lon="5.93081">
        <ele>355.83</ele>
        <time>2014-03-02T13:06:07Z</time>
      </trkpt>
      <trkpt lat="45.56068" lon="5.93089">
        <ele>355.83</ele>
        <time>2014-03-02T13:06:08Z</time>
      </trkpt>
      <trkpt lat="45.56062" lon="5.93095">
        <ele>356.31</ele>
        <time>2014-03-02T13:06:09Z</time>
      </trkpt>
      <trkpt lat="45.56057" lon="5.93101">
        <ele>356.31</ele>
        <time>2014-03-02T13:06:10Z</time>
      </trkpt>
      <trkpt lat="45.56053" lon="5.93107">
        <ele>356.79</ele>
        <time>2014-03-02T13:06:11Z</time>
      </trkpt>
      <trkpt lat="45.5605" lon="5.93115">
        <ele>356.31</ele>
        <time>2014-03-02T13:06:12Z</time>
      </trkpt>
      <trkpt lat="45.56047" lon="5.93123">
        <ele>356.31</ele>
        <time>2014-03-02T13:06:13Z</time>
      </trkpt>
      <trkpt lat="45.56046" lon="5.93132">
        <ele>356.79</ele>
        <time>2014-03-02T13:06:14Z</time>
      </trkpt>
      <trkpt lat="45.56045" lon="5.93141">
        <ele>356.79</ele>
        <time>2014-03-02T13:06:15Z</time>
      </trkpt>
      <trkpt lat="45.56044" lon="5.93149">
        <ele>356.79</ele>
        <time>2014-03-02T13:06:16Z</time>
      </trkpt>
      <trkpt lat="45.56042" lon="5.93183">
        <ele>356.79</ele>
        <time>2014-03-02T13:06:20Z</time>
      </trkpt>
      <trkpt lat="45.56041" lon="5.93188">
        <ele>356.79</ele>
        <time>2014-03-02T13:06:21Z</time>
      </trkpt>
      <trkpt lat="45.56041" lon="5.93191">
        <ele>356.79</ele>
        <time>2014-03-02T13:06:28Z</time>
      </trkpt>
      <trkpt lat="45.5604" lon="5.9319">
        <ele>356.31</ele>
        <time>2014-03-02T13:06:41Z</time>
      </trkpt>
      <trkpt lat="45.5604" lon="5.93193">
        <ele>356.31</ele>
        <time>2014-03-02T13:06:42Z</time>
      </trkpt>
      <trkpt lat="45.5604" lon="5.93196">
        <ele>356.79</ele>
        <time>2014-03-02T13:06:43Z</time>
      </trkpt>
      <trkpt lat="45.5604" lon="5.93199">
        <ele>356.31</ele>
        <time>2014-03-02T13:06:44Z</time>
      </trkpt>
      <trkpt lat="45.5604" lon="5.93202">
        <ele>356.31</ele>
        <time>2014-03-02T13:06:45Z</time>
      </trkpt>
      <trkpt lat="45.5604" lon="5.93206">
        <ele>356.31</ele>
        <time>2014-03-02T13:06:46Z</time>
      </trkpt>
      <trkpt lat="45.5604" lon="5.93211">
        <ele>356.31</ele>
        <time>2014-03-02T13:06:47Z</time>
      </trkpt>
      <trkpt lat="45.56041" lon="5.93216">
        <ele>356.31</ele>
        <time>2014-03-02T13:06:48Z</time>
      </trkpt>
      <trkpt lat="45.56041" lon="5.93223">
        <ele>356.31</ele>
        <time>2014-03-02T13:06:49Z</time>
      </trkpt>
      <trkpt lat="45.5604" lon="5.93236">
        <ele>356.31</ele>
        <time>2014-03-02T13:06:51Z</time>
      </trkpt>
      <trkpt lat="45.56039" lon="5.93243">
        <ele>356.79</ele>
        <time>2014-03-02T13:06:52Z</time>
      </trkpt>
      <trkpt lat="45.56033" lon="5.93354">
        <ele>357.75</ele>
        <time>2014-03-02T13:07:09Z</time>
      </trkpt>
      <trkpt lat="45.56026" lon="5.93461">
        <ele>360.15</ele>
        <time>2014-03-02T13:07:27Z</time>
      </trkpt>
      <trkpt lat="45.56026" lon="5.93473">
        <ele>360.63</ele>
        <time>2014-03-02T13:07:29Z</time>
      </trkpt>
      <trkpt lat="45.56027" lon="5.93479">
        <ele>360.63</ele>
        <time>2014-03-02T13:07:30Z</time>
      </trkpt>
      <trkpt lat="45.56053" lon="5.93524">
        <ele>364</ele>
        <time>2014-03-02T13:07:42Z</time>
      </trkpt>
      <trkpt lat="45.56093" lon="5.93561">
        <ele>366.4</ele>
        <time>2014-03-02T13:07:58Z</time>
      </trkpt>
      <trkpt lat="45.56116" lon="5.936">
        <ele>369.76</ele>
        <time>2014-03-02T13:08:11Z</time>
      </trkpt>
      <trkpt lat="45.5612" lon="5.93654">
        <ele>370.73</ele>
        <time>2014-03-02T13:08:22Z</time>
      </trkpt>
      <trkpt lat="45.56117" lon="5.93665">
        <ele>370.73</ele>
        <time>2014-03-02T13:08:24Z</time>
      </trkpt>
      <trkpt lat="45.56114" lon="5.9367">
        <ele>370.73</ele>
        <time>2014-03-02T13:08:25Z</time>
      </trkpt>
      <trkpt lat="45.56091" lon="5.93709">
        <ele>370.73</ele>
        <time>2014-03-02T13:08:33Z</time>
      </trkpt>
      <trkpt lat="45.56086" lon="5.9372">
        <ele>370.24</ele>
        <time>2014-03-02T13:08:35Z</time>
      </trkpt>
      <trkpt lat="45.56072" lon="5.93776">
        <ele>369.28</ele>
        <time>2014-03-02T13:08:44Z</time>
      </trkpt>
      <trkpt lat="45.56073" lon="5.93781">
        <ele>369.28</ele>
        <time>2014-03-02T13:08:45Z</time>
      </trkpt>
      <trkpt lat="45.56075" lon="5.93785">
        <ele>368.8</ele>
        <time>2014-03-02T13:08:46Z</time>
      </trkpt>
      <trkpt lat="45.56085" lon="5.93785">
        <ele>368.32</ele>
        <time>2014-03-02T13:08:50Z</time>
      </trkpt>
      <trkpt lat="45.56095" lon="5.93771">
        <ele>367.84</ele>
        <time>2014-03-02T13:08:54Z</time>
      </trkpt>
      <trkpt lat="45.56098" lon="5.93766">
        <ele>367.36</ele>
        <time>2014-03-02T13:08:55Z</time>
      </trkpt>
      <trkpt lat="45.56106" lon="5.93749">
        <ele>367.36</ele>
        <time>2014-03-02T13:08:58Z</time>
      </trkpt>
      <trkpt lat="45.56112" lon="5.93738">
        <ele>366.88</ele>
        <time>2014-03-02T13:09:00Z</time>
      </trkpt>
      <trkpt lat="45.56122" lon="5.9372">
        <ele>366.4</ele>
        <time>2014-03-02T13:09:03Z</time>
      </trkpt>
      <trkpt lat="45.56162" lon="5.93663">
        <ele>363.52</ele>
        <time>2014-03-02T13:09:14Z</time>
      </trkpt>
      <trkpt lat="45.56167" lon="5.93659">
        <ele>363.52</ele>
        <time>2014-03-02T13:09:15Z</time>
      </trkpt>
      <trkpt lat="45.56176" lon="5.93653">
        <ele>363.52</ele>
        <time>2014-03-02T13:09:17Z</time>
      </trkpt>
      <trkpt lat="45.56186" lon="5.93649">
        <ele>363.04</ele>
        <time>2014-03-02T13:09:19Z</time>
      </trkpt>
      <trkpt lat="45.56191" lon="5.93648">
        <ele>363.52</ele>
        <time>2014-03-02T13:09:20Z</time>
      </trkpt>
      <trkpt lat="45.56196" lon="5.93649">
        <ele>363.04</ele>
        <time>2014-03-02T13:09:21Z</time>
      </trkpt>
      <trkpt lat="45.56201" lon="5.93651">
        <ele>363.04</ele>
        <time>2014-03-02T13:09:22Z</time>
      </trkpt>
      <trkpt lat="45.56206" lon="5.93652">
        <ele>362.55</ele>
        <time>2014-03-02T13:09:23Z</time>
      </trkpt>
      <trkpt lat="45.56215" lon="5.93657">
        <ele>362.07</ele>
        <time>2014-03-02T13:09:25Z</time>
      </trkpt>
      <trkpt lat="45.56256" lon="5.93681">
        <ele>358.71</ele>
        <time>2014-03-02T13:09:33Z</time>
      </trkpt>
      <trkpt lat="45.5628" lon="5.93695">
        <ele>355.83</ele>
        <time>2014-03-02T13:09:39Z</time>
      </trkpt>
      <trkpt lat="45.56312" lon="5.93713">
        <ele>352.46</ele>
        <time>2014-03-02T13:09:45Z</time>
      </trkpt>
      <trkpt lat="45.56323" lon="5.93719">
        <ele>351.02</ele>
        <time>2014-03-02T13:09:47Z</time>
      </trkpt>
      <trkpt lat="45.56354" lon="5.93736">
        <ele>347.65</ele>
        <time>2014-03-02T13:09:52Z</time>
      </trkpt>
      <trkpt lat="45.56374" lon="5.93749">
        <ele>344.29</ele>
        <time>2014-03-02T13:09:55Z</time>
      </trkpt>
      <trkpt lat="45.56406" lon="5.93783">
        <ele>341.89</ele>
        <time>2014-03-02T13:10:01Z</time>
      </trkpt>
      <trkpt lat="45.56409" lon="5.93789">
        <ele>341.41</ele>
        <time>2014-03-02T13:10:02Z</time>
      </trkpt>
      <trkpt lat="45.56411" lon="5.93795">
        <ele>340.92</ele>
        <time>2014-03-02T13:10:03Z</time>
      </trkpt>
      <trkpt lat="45.56411" lon="5.93801">
        <ele>340.44</ele>
        <time>2014-03-02T13:10:04Z</time>
      </trkpt>
      <trkpt lat="45.5641" lon="5.93808">
        <ele>339.96</ele>
        <time>2014-03-02T13:10:05Z</time>
      </trkpt>
      <trkpt lat="45.56408" lon="5.93815">
        <ele>339.48</ele>
        <time>2014-03-02T13:10:06Z</time>
      </trkpt>
      <trkpt lat="45.56406" lon="5.93821">
        <ele>339</ele>
        <time>2014-03-02T13:10:07Z</time>
      </trkpt>
      <trkpt lat="45.56403" lon="5.93826">
        <ele>338.52</ele>
        <time>2014-03-02T13:10:08Z</time>
      </trkpt>
      <trkpt lat="45.56399" lon="5.93832">
        <ele>338.04</ele>
        <time>2014-03-02T13:10:09Z</time>
      </trkpt>
      <trkpt lat="45.56386" lon="5.93856">
        <ele>336.6</ele>
        <time>2014-03-02T13:10:13Z</time>
      </trkpt>
      <trkpt lat="45.56383" lon="5.93859">
        <ele>336.12</ele>
        <time>2014-03-02T13:10:14Z</time>
      </trkpt>
      <trkpt lat="45.56372" lon="5.93868">
        <ele>334.68</ele>
        <time>2014-03-02T13:10:17Z</time>
      </trkpt>
      <trkpt lat="45.56345" lon="5.93899">
        <ele>331.79</ele>
        <time>2014-03-02T13:10:23Z</time>
      </trkpt>
      <trkpt lat="45.56333" lon="5.93915">
        <ele>330.35</ele>
        <time>2014-03-02T13:10:26Z</time>
      </trkpt>
      <trkpt lat="45.56331" lon="5.9392">
        <ele>329.87</ele>
        <time>2014-03-02T13:10:27Z</time>
      </trkpt>
      <trkpt lat="45.56329" lon="5.93926">
        <ele>329.39</ele>
        <time>2014-03-02T13:10:28Z</time>
      </trkpt>
      <trkpt lat="45.5633" lon="5.93932">
        <ele>329.39</ele>
        <time>2014-03-02T13:10:29Z</time>
      </trkpt>
      <trkpt lat="45.56332" lon="5.93938">
        <ele>328.43</ele>
        <time>2014-03-02T13:10:30Z</time>
      </trkpt>
      <trkpt lat="45.56334" lon="5.93944">
        <ele>327.95</ele>
        <time>2014-03-02T13:10:31Z</time>
      </trkpt>
      <trkpt lat="45.56337" lon="5.93948">
        <ele>327.95</ele>
        <time>2014-03-02T13:10:32Z</time>
      </trkpt>
      <trkpt lat="45.56339" lon="5.93958">
        <ele>326.99</ele>
        <time>2014-03-02T13:10:34Z</time>
      </trkpt>
      <trkpt lat="45.56338" lon="5.93962">
        <ele>326.99</ele>
        <time>2014-03-02T13:10:35Z</time>
      </trkpt>
      <trkpt lat="45.56335" lon="5.93966">
        <ele>326.99</ele>
        <time>2014-03-02T13:10:36Z</time>
      </trkpt>
      <trkpt lat="45.56331" lon="5.93969">
        <ele>326.99</ele>
        <time>2014-03-02T13:10:37Z</time>
      </trkpt>
      <trkpt lat="45.56327" lon="5.9397">
        <ele>326.99</ele>
        <time>2014-03-02T13:10:38Z</time>
      </trkpt>
      <trkpt lat="45.56323" lon="5.93972">
        <ele>326.99</ele>
        <time>2014-03-02T13:10:39Z</time>
      </trkpt>
      <trkpt lat="45.56319" lon="5.93975">
        <ele>326.99</ele>
        <time>2014-03-02T13:10:40Z</time>
      </trkpt>
      <trkpt lat="45.56294" lon="5.93989">
        <ele>326.5</ele>
        <time>2014-03-02T13:10:45Z</time>
      </trkpt>
      <trkpt lat="45.56285" lon="5.93995">
        <ele>326.5</ele>
        <time>2014-03-02T13:10:47Z</time>
      </trkpt>
      <trkpt lat="45.5628" lon="5.93998">
        <ele>326.99</ele>
        <time>2014-03-02T13:10:48Z</time>
      </trkpt>
      <trkpt lat="45.56228" lon="5.9403">
        <ele>326.99</ele>
        <time>2014-03-02T13:10:59Z</time>
      </trkpt>
      <trkpt lat="45.56224" lon="5.94034">
        <ele>326.99</ele>
        <time>2014-03-02T13:11:00Z</time>
      </trkpt>
      <trkpt lat="45.5622" lon="5.94037">
        <ele>327.47</ele>
        <time>2014-03-02T13:11:01Z</time>
      </trkpt>
      <trkpt lat="45.56216" lon="5.94041">
        <ele>326.99</ele>
        <time>2014-03-02T13:11:02Z</time>
      </trkpt>
      <trkpt lat="45.56211" lon="5.94044">
        <ele>326.99</ele>
        <time>2014-03-02T13:11:03Z</time>
      </trkpt>
      <trkpt lat="45.56207" lon="5.94048">
        <ele>326.99</ele>
        <time>2014-03-02T13:11:04Z</time>
      </trkpt>
      <trkpt lat="45.56202" lon="5.94052">
        <ele>327.47</ele>
        <time>2014-03-02T13:11:05Z</time>
      </trkpt>
      <trkpt lat="45.56197" lon="5.94055">
        <ele>326.99</ele>
        <time>2014-03-02T13:11:06Z</time>
      </trkpt>
      <trkpt lat="45.56189" lon="5.94061">
        <ele>327.47</ele>
        <time>2014-03-02T13:11:08Z</time>
      </trkpt>
      <trkpt lat="45.56177" lon="5.94073">
        <ele>327.47</ele>
        <time>2014-03-02T13:11:11Z</time>
      </trkpt>
      <trkpt lat="45.56173" lon="5.94078">
        <ele>327.47</ele>
        <time>2014-03-02T13:11:12Z</time>
      </trkpt>
      <trkpt lat="45.56168" lon="5.94082">
        <ele>327.47</ele>
        <time>2014-03-02T13:11:13Z</time>
      </trkpt>
      <trkpt lat="45.56131" lon="5.94125">
        <ele>327.47</ele>
        <time>2014-03-02T13:11:24Z</time>
      </trkpt>
      <trkpt lat="45.56127" lon="5.94137">
        <ele>327.95</ele>
        <time>2014-03-02T13:11:27Z</time>
      </trkpt>
      <trkpt lat="45.56127" lon="5.94141">
        <ele>327.95</ele>
        <time>2014-03-02T13:11:28Z</time>
      </trkpt>
      <trkpt lat="45.56127" lon="5.94146">
        <ele>327.95</ele>
        <time>2014-03-02T13:11:29Z</time>
      </trkpt>
      <trkpt lat="45.56127" lon="5.94151">
        <ele>326.99</ele>
        <time>2014-03-02T13:11:30Z</time>
      </trkpt>
      <trkpt lat="45.56126" lon="5.94156">
        <ele>327.47</ele>
        <time>2014-03-02T13:11:31Z</time>
      </trkpt>
      <trkpt lat="45.56125" lon="5.94162">
        <ele>326.99</ele>
        <time>2014-03-02T13:11:32Z</time>
      </trkpt>
      <trkpt lat="45.56123" lon="5.94167">
        <ele>327.47</ele>
        <time>2014-03-02T13:11:33Z</time>
      </trkpt>
      <trkpt lat="45.56122" lon="5.94173">
        <ele>327.47</ele>
        <time>2014-03-02T13:11:34Z</time>
      </trkpt>
      <trkpt lat="45.5612" lon="5.94183">
        <ele>327.47</ele>
        <time>2014-03-02T13:11:36Z</time>
      </trkpt>
      <trkpt lat="45.56121" lon="5.94188">
        <ele>327.47</ele>
        <time>2014-03-02T13:11:37Z</time>
      </trkpt>
      <trkpt lat="45.56122" lon="5.94194">
        <ele>326.02</ele>
        <time>2014-03-02T13:11:38Z</time>
      </trkpt>
      <trkpt lat="45.56122" lon="5.942">
        <ele>326.5</ele>
        <time>2014-03-02T13:11:39Z</time>
      </trkpt>
      <trkpt lat="45.56121" lon="5.94206">
        <ele>326.5</ele>
        <time>2014-03-02T13:11:40Z</time>
      </trkpt>
      <trkpt lat="45.56118" lon="5.94212">
        <ele>326.5</ele>
        <time>2014-03-02T13:11:41Z</time>
      </trkpt>
      <trkpt lat="45.56116" lon="5.94217">
        <ele>326.5</ele>
        <time>2014-03-02T13:11:42Z</time>
      </trkpt>
      <trkpt lat="45.56114" lon="5.94223">
        <ele>326.5</ele>
        <time>2014-03-02T13:11:43Z</time>
      </trkpt>
      <trkpt lat="45.56113" lon="5.9423">
        <ele>326.5</ele>
        <time>2014-03-02T13:11:44Z</time>
      </trkpt>
      <trkpt lat="45.56114" lon="5.94237">
        <ele>326.5</ele>
        <time>2014-03-02T13:11:45Z</time>
      </trkpt>
      <trkpt lat="45.56115" lon="5.94244">
        <ele>326.5</ele>
        <time>2014-03-02T13:11:46Z</time>
      </trkpt>
      <trkpt lat="45.56118" lon="5.94257">
        <ele>326.5</ele>
        <time>2014-03-02T13:11:48Z</time>
      </trkpt>
      <trkpt lat="45.56118" lon="5.94264">
        <ele>326.5</ele>
        <time>2014-03-02T13:11:49Z</time>
      </trkpt>
      <trkpt lat="45.56118" lon="5.94271">
        <ele>326.02</ele>
        <time>2014-03-02T13:11:50Z</time>
      </trkpt>
      <trkpt lat="45.56116" lon="5.94298">
        <ele>326.5</ele>
        <time>2014-03-02T13:11:54Z</time>
      </trkpt>
      <trkpt lat="45.56113" lon="5.94312">
        <ele>326.02</ele>
        <time>2014-03-02T13:11:56Z</time>
      </trkpt>
      <trkpt lat="45.56107" lon="5.94392">
        <ele>326.02</ele>
        <time>2014-03-02T13:12:07Z</time>
      </trkpt>
      <trkpt lat="45.56081" lon="5.94497">
        <ele>326.5</ele>
        <time>2014-03-02T13:12:22Z</time>
      </trkpt>
      <trkpt lat="45.5607" lon="5.94522">
        <ele>326.5</ele>
        <time>2014-03-02T13:12:26Z</time>
      </trkpt>
      <trkpt lat="45.56066" lon="5.94528">
        <ele>326.02</ele>
        <time>2014-03-02T13:12:27Z</time>
      </trkpt>
      <trkpt lat="45.56062" lon="5.94532">
        <ele>326.5</ele>
        <time>2014-03-02T13:12:28Z</time>
      </trkpt>
      <trkpt lat="45.56057" lon="5.94536">
        <ele>326.5</ele>
        <time>2014-03-02T13:12:29Z</time>
      </trkpt>
      <trkpt lat="45.56052" lon="5.94538">
        <ele>326.99</ele>
        <time>2014-03-02T13:12:30Z</time>
      </trkpt>
      <trkpt lat="45.56047" lon="5.9454">
        <ele>326.5</ele>
        <time>2014-03-02T13:12:31Z</time>
      </trkpt>
      <trkpt lat="45.56041" lon="5.94541">
        <ele>326.5</ele>
        <time>2014-03-02T13:12:32Z</time>
      </trkpt>
      <trkpt lat="45.56036" lon="5.94542">
        <ele>326.02</ele>
        <time>2014-03-02T13:12:33Z</time>
      </trkpt>
      <trkpt lat="45.55977" lon="5.94554">
        <ele>326.02</ele>
        <time>2014-03-02T13:12:44Z</time>
      </trkpt>
      <trkpt lat="45.55957" lon="5.94565">
        <ele>326.02</ele>
        <time>2014-03-02T13:12:48Z</time>
      </trkpt>
      <trkpt lat="45.55953" lon="5.9457">
        <ele>326.02</ele>
        <time>2014-03-02T13:12:49Z</time>
      </trkpt>
      <trkpt lat="45.55949" lon="5.94575">
        <ele>326.02</ele>
        <time>2014-03-02T13:12:50Z</time>
      </trkpt>
      <trkpt lat="45.55946" lon="5.9458">
        <ele>325.54</ele>
        <time>2014-03-02T13:12:51Z</time>
      </trkpt>
      <trkpt lat="45.55942" lon="5.94586">
        <ele>326.02</ele>
        <time>2014-03-02T13:12:52Z</time>
      </trkpt>
      <trkpt lat="45.5594" lon="5.94592">
        <ele>326.02</ele>
        <time>2014-03-02T13:12:53Z</time>
      </trkpt>
      <trkpt lat="45.55894" lon="5.94681">
        <ele>326.02</ele>
        <time>2014-03-02T13:13:08Z</time>
      </trkpt>
      <trkpt lat="45.55881" lon="5.94721">
        <ele>326.02</ele>
        <time>2014-03-02T13:13:14Z</time>
      </trkpt>
      <trkpt lat="45.55878" lon="5.94735">
        <ele>326.5</ele>
        <time>2014-03-02T13:13:16Z</time>
      </trkpt>
      <trkpt lat="45.55877" lon="5.94742">
        <ele>326.02</ele>
        <time>2014-03-02T13:13:17Z</time>
      </trkpt>
      <trkpt lat="45.55861" lon="5.94791">
        <ele>327.47</ele>
        <time>2014-03-02T13:13:26Z</time>
      </trkpt>
      <trkpt lat="45.55856" lon="5.94793">
        <ele>327.47</ele>
        <time>2014-03-02T13:13:27Z</time>
      </trkpt>
      <trkpt lat="45.5579" lon="5.94832">
        <ele>327.47</ele>
        <time>2014-03-02T13:13:42Z</time>
      </trkpt>
      <trkpt lat="45.55763" lon="5.94851">
        <ele>327.95</ele>
        <time>2014-03-02T13:13:49Z</time>
      </trkpt>
      <trkpt lat="45.55762" lon="5.94855">
        <ele>327.47</ele>
        <time>2014-03-02T13:13:50Z</time>
      </trkpt>
      <trkpt lat="45.55763" lon="5.94862">
        <ele>327.47</ele>
        <time>2014-03-02T13:13:52Z</time>
      </trkpt>
      <trkpt lat="45.55761" lon="5.94882">
        <ele>326.5</ele>
        <time>2014-03-02T13:14:00Z</time>
      </trkpt>
      <trkpt lat="45.55761" lon="5.94882">
        <ele>326.02</ele>
        <time>2014-03-02T13:14:42Z</time>
      </trkpt>
      <trkpt lat="45.55761" lon="5.94882">
        <ele>326.5</ele>
        <time>2014-03-02T13:15:12Z</time>
      </trkpt>
      <trkpt lat="45.55761" lon="5.94883">
        <ele>326.02</ele>
        <time>2014-03-02T13:15:39Z</time>
      </trkpt>
      <trkpt lat="45.55761" lon="5.94883">
        <ele>326.02</ele>
        <time>2014-03-02T13:15:50Z</time>
      </trkpt>
      <trkpt lat="45.55758" lon="5.94888">
        <ele>325.06</ele>
        <time>2014-03-02T13:15:53Z</time>
      </trkpt>
      <trkpt lat="45.55753" lon="5.94892">
        <ele>324.58</ele>
        <time>2014-03-02T13:15:55Z</time>
      </trkpt>
      <trkpt lat="45.55746" lon="5.94898">
        <ele>325.06</ele>
        <time>2014-03-02T13:15:57Z</time>
      </trkpt>
      <trkpt lat="45.55731" lon="5.94909">
        <ele>324.58</ele>
        <time>2014-03-02T13:16:01Z</time>
      </trkpt>
      <trkpt lat="45.55727" lon="5.94913">
        <ele>324.58</ele>
        <time>2014-03-02T13:16:02Z</time>
      </trkpt>
      <trkpt lat="45.55682" lon="5.94981">
        <ele>324.58</ele>
        <time>2014-03-02T13:16:16Z</time>
      </trkpt>
      <trkpt lat="45.55655" lon="5.9501">
        <ele>325.06</ele>
        <time>2014-03-02T13:16:23Z</time>
      </trkpt>
      <trkpt lat="45.55652" lon="5.95015">
        <ele>325.06</ele>
        <time>2014-03-02T13:16:24Z</time>
      </trkpt>
      <trkpt lat="45.5564" lon="5.95029">
        <ele>324.58</ele>
        <time>2014-03-02T13:16:27Z</time>
      </trkpt>
      <trkpt lat="45.55581" lon="5.95103">
        <ele>324.1</ele>
        <time>2014-03-02T13:16:42Z</time>
      </trkpt>
      <trkpt lat="45.55514" lon="5.9519">
        <ele>324.1</ele>
        <time>2014-03-02T13:16:59Z</time>
      </trkpt>
      <trkpt lat="45.55438" lon="5.95288">
        <ele>323.62</ele>
        <time>2014-03-02T13:17:18Z</time>
      </trkpt>
      <trkpt lat="45.55386" lon="5.95347">
        <ele>325.06</ele>
        <time>2014-03-02T13:17:31Z</time>
      </trkpt>
      <trkpt lat="45.55352" lon="5.95387">
        <ele>326.5</ele>
        <time>2014-03-02T13:17:41Z</time>
      </trkpt>
      <trkpt lat="45.5535" lon="5.95392">
        <ele>326.02</ele>
        <time>2014-03-02T13:17:42Z</time>
      </trkpt>
      <trkpt lat="45.55348" lon="5.95395">
        <ele>326.5</ele>
        <time>2014-03-02T13:17:43Z</time>
      </trkpt>
      <trkpt lat="45.55347" lon="5.95399">
        <ele>326.02</ele>
        <time>2014-03-02T13:17:44Z</time>
      </trkpt>
      <trkpt lat="45.55348" lon="5.95401">
        <ele>325.54</ele>
        <time>2014-03-02T13:17:55Z</time>
      </trkpt>
      <trkpt lat="45.55348" lon="5.95402">
        <ele>326.02</ele>
        <time>2014-03-02T13:18:26Z</time>
      </trkpt>
      <trkpt lat="45.55348" lon="5.95402">
        <ele>325.06</ele>
        <time>2014-03-02T13:18:53Z</time>
      </trkpt>
      <trkpt lat="45.55348" lon="5.95402">
        <ele>324.1</ele>
        <time>2014-03-02T13:19:32Z</time>
      </trkpt>
      <trkpt lat="45.55348" lon="5.95402">
        <ele>325.06</ele>
        <time>2014-03-02T13:20:06Z</time>
      </trkpt>
      <trkpt lat="45.55348" lon="5.95402">
        <ele>323.62</ele>
        <time>2014-03-02T13:20:37Z</time>
      </trkpt>
      <trkpt lat="45.55348" lon="5.95404">
        <ele>323.62</ele>
        <time>2014-03-02T13:20:59Z</time>
      </trkpt>
      <trkpt lat="45.55348" lon="5.95406">
        <ele>324.58</ele>
        <time>2014-03-02T13:21:00Z</time>
      </trkpt>
      <trkpt lat="45.55348" lon="5.95409">
        <ele>324.58</ele>
        <time>2014-03-02T13:21:01Z</time>
      </trkpt>
      <trkpt lat="45.55349" lon="5.95413">
        <ele>324.58</ele>
        <time>2014-03-02T13:21:02Z</time>
      </trkpt>
      <trkpt lat="45.55352" lon="5.95416">
        <ele>324.58</ele>
        <time>2014-03-02T13:21:03Z</time>
      </trkpt>
      <trkpt lat="45.55355" lon="5.95419">
        <ele>324.1</ele>
        <time>2014-03-02T13:21:04Z</time>
      </trkpt>
      <trkpt lat="45.55358" lon="5.95421">
        <ele>323.62</ele>
        <time>2014-03-02T13:21:05Z</time>
      </trkpt>
      <trkpt lat="45.55372" lon="5.95432">
        <ele>324.58</ele>
        <time>2014-03-02T13:21:09Z</time>
      </trkpt>
      <trkpt lat="45.55376" lon="5.95432">
        <ele>323.14</ele>
        <time>2014-03-02T13:21:10Z</time>
      </trkpt>
      <trkpt lat="45.5538" lon="5.9543">
        <ele>323.62</ele>
        <time>2014-03-02T13:21:11Z</time>
      </trkpt>
      <trkpt lat="45.55383" lon="5.95426">
        <ele>322.66</ele>
        <time>2014-03-02T13:21:12Z</time>
      </trkpt>
      <trkpt lat="45.55386" lon="5.9542">
        <ele>322.18</ele>
        <time>2014-03-02T13:21:13Z</time>
      </trkpt>
      <trkpt lat="45.5539" lon="5.95415">
        <ele>322.18</ele>
        <time>2014-03-02T13:21:14Z</time>
      </trkpt>
      <trkpt lat="45.55394" lon="5.95411">
        <ele>322.18</ele>
        <time>2014-03-02T13:21:15Z</time>
      </trkpt>
      <trkpt lat="45.55399" lon="5.9541">
        <ele>322.66</ele>
        <time>2014-03-02T13:21:16Z</time>
      </trkpt>
      <trkpt lat="45.55404" lon="5.95412">
        <ele>322.66</ele>
        <time>2014-03-02T13:21:17Z</time>
      </trkpt>
      <trkpt lat="45.55409" lon="5.95415">
        <ele>322.66</ele>
        <time>2014-03-02T13:21:18Z</time>
      </trkpt>
      <trkpt lat="45.55413" lon="5.95417">
        <ele>323.14</ele>
        <time>2014-03-02T13:21:19Z</time>
      </trkpt>
      <trkpt lat="45.55417" lon="5.95421">
        <ele>322.66</ele>
        <time>2014-03-02T13:21:20Z</time>
      </trkpt>
      <trkpt lat="45.55422" lon="5.95424">
        <ele>322.66</ele>
        <time>2014-03-02T13:21:21Z</time>
      </trkpt>
      <trkpt lat="45.55427" lon="5.95426">
        <ele>322.66</ele>
        <time>2014-03-02T13:21:22Z</time>
      </trkpt>
      <trkpt lat="45.55432" lon="5.95427">
        <ele>323.14</ele>
        <time>2014-03-02T13:21:23Z</time>
      </trkpt>
      <trkpt lat="45.55437" lon="5.95426">
        <ele>322.66</ele>
        <time>2014-03-02T13:21:24Z</time>
      </trkpt>
      <trkpt lat="45.55442" lon="5.95424">
        <ele>322.18</ele>
        <time>2014-03-02T13:21:25Z</time>
      </trkpt>
      <trkpt lat="45.55446" lon="5.95421">
        <ele>322.18</ele>
        <time>2014-03-02T13:21:26Z</time>
      </trkpt>
      <trkpt lat="45.5545" lon="5.95417">
        <ele>322.66</ele>
        <time>2014-03-02T13:21:27Z</time>
      </trkpt>
      <trkpt lat="45.55455" lon="5.95413">
        <ele>322.66</ele>
        <time>2014-03-02T13:21:28Z</time>
      </trkpt>
      <trkpt lat="45.55459" lon="5.95409">
        <ele>322.66</ele>
        <time>2014-03-02T13:21:29Z</time>
      </trkpt>
      <trkpt lat="45.55463" lon="5.95403">
        <ele>322.18</ele>
        <time>2014-03-02T13:21:30Z</time>
      </trkpt>
      <trkpt lat="45.55467" lon="5.95397">
        <ele>322.18</ele>
        <time>2014-03-02T13:21:31Z</time>
      </trkpt>
      <trkpt lat="45.5547" lon="5.95389">
        <ele>321.7</ele>
        <time>2014-03-02T13:21:32Z</time>
      </trkpt>
      <trkpt lat="45.55472" lon="5.95382">
        <ele>322.18</ele>
        <time>2014-03-02T13:21:33Z</time>
      </trkpt>
      <trkpt lat="45.55475" lon="5.95376">
        <ele>322.66</ele>
        <time>2014-03-02T13:21:34Z</time>
      </trkpt>
      <trkpt lat="45.55478" lon="5.95371">
        <ele>321.22</ele>
        <time>2014-03-02T13:21:35Z</time>
      </trkpt>
      <trkpt lat="45.55483" lon="5.9537">
        <ele>321.7</ele>
        <time>2014-03-02T13:21:36Z</time>
      </trkpt>
      <trkpt lat="45.55487" lon="5.95372">
        <ele>321.22</ele>
        <time>2014-03-02T13:21:37Z</time>
      </trkpt>
      <trkpt lat="45.55491" lon="5.95377">
        <ele>321.7</ele>
        <time>2014-03-02T13:21:38Z</time>
      </trkpt>
      <trkpt lat="45.55494" lon="5.95383">
        <ele>321.7</ele>
        <time>2014-03-02T13:21:39Z</time>
      </trkpt>
      <trkpt lat="45.55496" lon="5.95388">
        <ele>321.22</ele>
        <time>2014-03-02T13:21:40Z</time>
      </trkpt>
      <trkpt lat="45.55499" lon="5.95394">
        <ele>321.22</ele>
        <time>2014-03-02T13:21:41Z</time>
      </trkpt>
      <trkpt lat="45.55522" lon="5.95448">
        <ele>322.66</ele>
        <time>2014-03-02T13:21:50Z</time>
      </trkpt>
      <trkpt lat="45.55525" lon="5.95452">
        <ele>322.66</ele>
        <time>2014-03-02T13:21:51Z</time>
      </trkpt>
      <trkpt lat="45.55562" lon="5.95523">
        <ele>324.58</ele>
        <time>2014-03-02T13:22:06Z</time>
      </trkpt>
      <trkpt lat="45.55618" lon="5.95601">
        <ele>326.02</ele>
        <time>2014-03-02T13:22:22Z</time>
      </trkpt>
      <trkpt lat="45.55695" lon="5.95686">
        <ele>325.54</ele>
        <time>2014-03-02T13:22:40Z</time>
      </trkpt>
      <trkpt lat="45.5574" lon="5.95739">
        <ele>327.95</ele>
        <time>2014-03-02T13:22:54Z</time>
      </trkpt>
      <trkpt lat="45.55791" lon="5.95793">
        <ele>326.5</ele>
        <time>2014-03-02T13:23:07Z</time>
      </trkpt>
      <trkpt lat="45.55795" lon="5.95798">
        <ele>326.99</ele>
        <time>2014-03-02T13:23:08Z</time>
      </trkpt>
      <trkpt lat="45.5581" lon="5.95817">
        <ele>326.5</ele>
        <time>2014-03-02T13:23:12Z</time>
      </trkpt>
      <trkpt lat="45.55811" lon="5.95824">
        <ele>326.02</ele>
        <time>2014-03-02T13:23:13Z</time>
      </trkpt>
      <trkpt lat="45.55812" lon="5.9583">
        <ele>326.02</ele>
        <time>2014-03-02T13:23:14Z</time>
      </trkpt>
      <trkpt lat="45.55811" lon="5.95838">
        <ele>326.02</ele>
        <time>2014-03-02T13:23:15Z</time>
      </trkpt>
      <trkpt lat="45.55809" lon="5.95845">
        <ele>325.54</ele>
        <time>2014-03-02T13:23:16Z</time>
      </trkpt>
      <trkpt lat="45.55777" lon="5.95957">
        <ele>324.58</ele>
        <time>2014-03-02T13:23:30Z</time>
      </trkpt>
      <trkpt lat="45.55732" lon="5.96084">
        <ele>324.1</ele>
        <time>2014-03-02T13:23:46Z</time>
      </trkpt>
      <trkpt lat="45.55679" lon="5.96185">
        <ele>325.06</ele>
        <time>2014-03-02T13:24:02Z</time>
      </trkpt>
      <trkpt lat="45.55677" lon="5.9619">
        <ele>325.06</ele>
        <time>2014-03-02T13:24:03Z</time>
      </trkpt>
      <trkpt lat="45.55668" lon="5.96203">
        <ele>326.02</ele>
        <time>2014-03-02T13:24:06Z</time>
      </trkpt>
      <trkpt lat="45.55664" lon="5.96205">
        <ele>325.54</ele>
        <time>2014-03-02T13:24:07Z</time>
      </trkpt>
      <trkpt lat="45.5566" lon="5.96205">
        <ele>326.02</ele>
        <time>2014-03-02T13:24:08Z</time>
      </trkpt>
      <trkpt lat="45.55657" lon="5.96203">
        <ele>326.02</ele>
        <time>2014-03-02T13:24:09Z</time>
      </trkpt>
      <trkpt lat="45.55653" lon="5.96198">
        <ele>325.54</ele>
        <time>2014-03-02T13:24:10Z</time>
      </trkpt>
      <trkpt lat="45.55651" lon="5.96193">
        <ele>325.54</ele>
        <time>2014-03-02T13:24:11Z</time>
      </trkpt>
      <trkpt lat="45.55647" lon="5.96188">
        <ele>325.06</ele>
        <time>2014-03-02T13:24:12Z</time>
      </trkpt>
      <trkpt lat="45.5564" lon="5.96178">
        <ele>324.58</ele>
        <time>2014-03-02T13:24:14Z</time>
      </trkpt>
      <trkpt lat="45.55635" lon="5.96175">
        <ele>324.58</ele>
        <time>2014-03-02T13:24:15Z</time>
      </trkpt>
      <trkpt lat="45.5563" lon="5.96176">
        <ele>324.58</ele>
        <time>2014-03-02T13:24:16Z</time>
      </trkpt>
      <trkpt lat="45.55624" lon="5.96178">
        <ele>324.58</ele>
        <time>2014-03-02T13:24:17Z</time>
      </trkpt>
      <trkpt lat="45.55619" lon="5.9618">
        <ele>324.58</ele>
        <time>2014-03-02T13:24:18Z</time>
      </trkpt>
      <trkpt lat="45.55615" lon="5.96182">
        <ele>325.06</ele>
        <time>2014-03-02T13:24:19Z</time>
      </trkpt>
      <trkpt lat="45.55586" lon="5.96192">
        <ele>325.54</ele>
        <time>2014-03-02T13:24:25Z</time>
      </trkpt>
      <trkpt lat="45.55582" lon="5.96194">
        <ele>325.54</ele>
        <time>2014-03-02T13:24:26Z</time>
      </trkpt>
      <trkpt lat="45.55535" lon="5.96222">
        <ele>326.99</ele>
        <time>2014-03-02T13:24:37Z</time>
      </trkpt>
      <trkpt lat="45.55456" lon="5.96266">
        <ele>328.43</ele>
        <time>2014-03-02T13:24:55Z</time>
      </trkpt>
      <trkpt lat="45.55372" lon="5.96273">
        <ele>329.87</ele>
        <time>2014-03-02T13:25:13Z</time>
      </trkpt>
      <trkpt lat="45.55323" lon="5.9628">
        <ele>330.35</ele>
        <time>2014-03-02T13:25:24Z</time>
      </trkpt>
      <trkpt lat="45.55319" lon="5.96282">
        <ele>330.83</ele>
        <time>2014-03-02T13:25:25Z</time>
      </trkpt>
      <trkpt lat="45.55315" lon="5.96285">
        <ele>330.83</ele>
        <time>2014-03-02T13:25:26Z</time>
      </trkpt>
      <trkpt lat="45.55295" lon="5.96301">
        <ele>330.83</ele>
        <time>2014-03-02T13:25:31Z</time>
      </trkpt>
      <trkpt lat="45.55251" lon="5.96368">
        <ele>330.83</ele>
        <time>2014-03-02T13:25:45Z</time>
      </trkpt>
      <trkpt lat="45.55236" lon="5.96397">
        <ele>330.83</ele>
        <time>2014-03-02T13:25:53Z</time>
      </trkpt>
      <trkpt lat="45.55232" lon="5.96408">
        <ele>330.83</ele>
        <time>2014-03-02T13:25:55Z</time>
      </trkpt>
      <trkpt lat="45.55228" lon="5.96413">
        <ele>330.83</ele>
        <time>2014-03-02T13:25:56Z</time>
      </trkpt>
      <trkpt lat="45.55225" lon="5.96418">
        <ele>330.83</ele>
        <time>2014-03-02T13:25:57Z</time>
      </trkpt>
      <trkpt lat="45.55221" lon="5.96422">
        <ele>330.35</ele>
        <time>2014-03-02T13:25:58Z</time>
      </trkpt>
      <trkpt lat="45.55217" lon="5.96426">
        <ele>330.83</ele>
        <time>2014-03-02T13:25:59Z</time>
      </trkpt>
      <trkpt lat="45.55213" lon="5.96429">
        <ele>330.83</ele>
        <time>2014-03-02T13:26:00Z</time>
      </trkpt>
      <trkpt lat="45.55209" lon="5.96432">
        <ele>331.31</ele>
        <time>2014-03-02T13:26:01Z</time>
      </trkpt>
      <trkpt lat="45.55205" lon="5.96434">
        <ele>331.31</ele>
        <time>2014-03-02T13:26:02Z</time>
      </trkpt>
      <trkpt lat="45.55166" lon="5.96454">
        <ele>332.27</ele>
        <time>2014-03-02T13:26:11Z</time>
      </trkpt>
      <trkpt lat="45.55161" lon="5.96455">
        <ele>331.79</ele>
        <time>2014-03-02T13:26:12Z</time>
      </trkpt>
      <trkpt lat="45.55157" lon="5.96456">
        <ele>332.27</ele>
        <time>2014-03-02T13:26:13Z</time>
      </trkpt>
      <trkpt lat="45.55119" lon="5.96465">
        <ele>332.75</ele>
        <time>2014-03-02T13:26:21Z</time>
      </trkpt>
      <trkpt lat="45.55103" lon="5.9647">
        <ele>333.23</ele>
        <time>2014-03-02T13:26:25Z</time>
      </trkpt>
      <trkpt lat="45.55098" lon="5.9647">
        <ele>333.71</ele>
        <time>2014-03-02T13:26:26Z</time>
      </trkpt>
      <trkpt lat="45.55032" lon="5.96494">
        <ele>336.12</ele>
        <time>2014-03-02T13:26:43Z</time>
      </trkpt>
      <trkpt lat="45.54944" lon="5.96552">
        <ele>336.6</ele>
        <time>2014-03-02T13:27:04Z</time>
      </trkpt>
      <trkpt lat="45.54929" lon="5.96562">
        <ele>337.08</ele>
        <time>2014-03-02T13:27:08Z</time>
      </trkpt>
      <trkpt lat="45.54926" lon="5.96563">
        <ele>337.56</ele>
        <time>2014-03-02T13:27:09Z</time>
      </trkpt>
      <trkpt lat="45.54922" lon="5.96563">
        <ele>337.56</ele>
        <time>2014-03-02T13:27:10Z</time>
      </trkpt>
      <trkpt lat="45.54919" lon="5.96561">
        <ele>337.56</ele>
        <time>2014-03-02T13:27:11Z</time>
      </trkpt>
      <trkpt lat="45.54917" lon="5.96557">
        <ele>337.56</ele>
        <time>2014-03-02T13:27:12Z</time>
      </trkpt>
      <trkpt lat="45.54916" lon="5.96551">
        <ele>337.08</ele>
        <time>2014-03-02T13:27:13Z</time>
      </trkpt>
      <trkpt lat="45.54915" lon="5.96545">
        <ele>337.08</ele>
        <time>2014-03-02T13:27:14Z</time>
      </trkpt>
      <trkpt lat="45.54915" lon="5.96538">
        <ele>337.08</ele>
        <time>2014-03-02T13:27:15Z</time>
      </trkpt>
      <trkpt lat="45.54915" lon="5.96531">
        <ele>336.6</ele>
        <time>2014-03-02T13:27:16Z</time>
      </trkpt>
      <trkpt lat="45.54915" lon="5.96524">
        <ele>336.12</ele>
        <time>2014-03-02T13:27:17Z</time>
      </trkpt>
      <trkpt lat="45.54914" lon="5.96517">
        <ele>336.6</ele>
        <time>2014-03-02T13:27:18Z</time>
      </trkpt>
      <trkpt lat="45.54913" lon="5.96509">
        <ele>336.12</ele>
        <time>2014-03-02T13:27:19Z</time>
      </trkpt>
      <trkpt lat="45.54913" lon="5.96502">
        <ele>335.16</ele>
        <time>2014-03-02T13:27:20Z</time>
      </trkpt>
      <trkpt lat="45.54914" lon="5.96493">
        <ele>335.64</ele>
        <time>2014-03-02T13:27:21Z</time>
      </trkpt>
      <trkpt lat="45.54914" lon="5.96486">
        <ele>335.64</ele>
        <time>2014-03-02T13:27:22Z</time>
      </trkpt>
      <trkpt lat="45.54915" lon="5.96478">
        <ele>336.12</ele>
        <time>2014-03-02T13:27:23Z</time>
      </trkpt>
      <trkpt lat="45.54916" lon="5.96471">
        <ele>335.16</ele>
        <time>2014-03-02T13:27:24Z</time>
      </trkpt>
      <trkpt lat="45.54917" lon="5.96451">
        <ele>336.12</ele>
        <time>2014-03-02T13:27:27Z</time>
      </trkpt>
      <trkpt lat="45.54915" lon="5.96446">
        <ele>336.12</ele>
        <time>2014-03-02T13:27:28Z</time>
      </trkpt>
      <trkpt lat="45.54915" lon="5.96442">
        <ele>336.12</ele>
        <time>2014-03-02T13:27:29Z</time>
      </trkpt>
      <trkpt lat="45.54915" lon="5.96439">
        <ele>336.6</ele>
        <time>2014-03-02T13:27:30Z</time>
      </trkpt>
      <trkpt lat="45.54915" lon="5.96435">
        <ele>336.6</ele>
        <time>2014-03-02T13:27:31Z</time>
      </trkpt>
      <trkpt lat="45.54914" lon="5.96432">
        <ele>336.6</ele>
        <time>2014-03-02T13:27:32Z</time>
      </trkpt>
      <trkpt lat="45.54913" lon="5.96428">
        <ele>337.56</ele>
        <time>2014-03-02T13:27:33Z</time>
      </trkpt>
      <trkpt lat="45.5491" lon="5.96403">
        <ele>340.92</ele>
        <time>2014-03-02T13:27:40Z</time>
      </trkpt>
      <trkpt lat="45.54909" lon="5.964">
        <ele>341.41</ele>
        <time>2014-03-02T13:27:41Z</time>
      </trkpt>
      <trkpt lat="45.5489" lon="5.9637">
        <ele>342.85</ele>
        <time>2014-03-02T13:27:51Z</time>
      </trkpt>
      <trkpt lat="45.54856" lon="5.96314">
        <ele>343.33</ele>
        <time>2014-03-02T13:28:04Z</time>
      </trkpt>
      <trkpt lat="45.54853" lon="5.9631">
        <ele>342.85</ele>
        <time>2014-03-02T13:28:14Z</time>
      </trkpt>
      <trkpt lat="45.54853" lon="5.9631">
        <ele>342.37</ele>
        <time>2014-03-02T13:28:50Z</time>
      </trkpt>
      <trkpt lat="45.54853" lon="5.9631">
        <ele>342.37</ele>
        <time>2014-03-02T13:29:27Z</time>
      </trkpt>
      <trkpt lat="45.54853" lon="5.9631">
        <ele>340.92</ele>
        <time>2014-03-02T13:29:33Z</time>
      </trkpt>
      <trkpt lat="45.54853" lon="5.9631">
        <ele>342.37</ele>
        <time>2014-03-02T13:29:44Z</time>
      </trkpt>
      <trkpt lat="45.54854" lon="5.96311">
        <ele>341.89</ele>
        <time>2014-03-02T13:30:18Z</time>
      </trkpt>
      <trkpt lat="45.54854" lon="5.96312">
        <ele>341.41</ele>
        <time>2014-03-02T13:30:53Z</time>
      </trkpt>
      <trkpt lat="45.54849" lon="5.96304">
        <ele>340.92</ele>
        <time>2014-03-02T13:31:12Z</time>
      </trkpt>
      <trkpt lat="45.54849" lon="5.96301">
        <ele>341.41</ele>
        <time>2014-03-02T13:31:13Z</time>
      </trkpt>
      <trkpt lat="45.54847" lon="5.96298">
        <ele>340.92</ele>
        <time>2014-03-02T13:31:14Z</time>
      </trkpt>
      <trkpt lat="45.54845" lon="5.96294">
        <ele>340.92</ele>
        <time>2014-03-02T13:31:15Z</time>
      </trkpt>
      <trkpt lat="45.54842" lon="5.9629">
        <ele>340.44</ele>
        <time>2014-03-02T13:31:16Z</time>
      </trkpt>
      <trkpt lat="45.5484" lon="5.96286">
        <ele>339.96</ele>
        <time>2014-03-02T13:31:17Z</time>
      </trkpt>
      <trkpt lat="45.54837" lon="5.96283">
        <ele>339.48</ele>
        <time>2014-03-02T13:31:18Z</time>
      </trkpt>
      <trkpt lat="45.54835" lon="5.9628">
        <ele>339.48</ele>
        <time>2014-03-02T13:31:19Z</time>
      </trkpt>
      <trkpt lat="45.54833" lon="5.96279">
        <ele>339.48</ele>
        <time>2014-03-02T13:31:20Z</time>
      </trkpt>
      <trkpt lat="45.5483" lon="5.9628">
        <ele>339.48</ele>
        <time>2014-03-02T13:31:21Z</time>
      </trkpt>
      <trkpt lat="45.54828" lon="5.96282">
        <ele>339.96</ele>
        <time>2014-03-02T13:31:22Z</time>
      </trkpt>
      <trkpt lat="45.54826" lon="5.96285">
        <ele>339.48</ele>
        <time>2014-03-02T13:31:23Z</time>
      </trkpt>
      <trkpt lat="45.54824" lon="5.96288">
        <ele>339.96</ele>
        <time>2014-03-02T13:31:24Z</time>
      </trkpt>
      <trkpt lat="45.54792" lon="5.96327">
        <ele>342.37</ele>
        <time>2014-03-02T13:31:37Z</time>
      </trkpt>
      <trkpt lat="45.54754" lon="5.96347">
        <ele>346.21</ele>
        <time>2014-03-02T13:31:50Z</time>
      </trkpt>
      <trkpt lat="45.54701" lon="5.96376">
        <ele>348.13</ele>
        <time>2014-03-02T13:32:07Z</time>
      </trkpt>
      <trkpt lat="45.54647" lon="5.96409">
        <ele>350.06</ele>
        <time>2014-03-02T13:32:24Z</time>
      </trkpt>
      <trkpt lat="45.5461" lon="5.96432">
        <ele>350.06</ele>
        <time>2014-03-02T13:32:35Z</time>
      </trkpt>
      <trkpt lat="45.54606" lon="5.96433">
        <ele>350.06</ele>
        <time>2014-03-02T13:32:36Z</time>
      </trkpt>
      <trkpt lat="45.54528" lon="5.96449">
        <ele>349.1</ele>
        <time>2014-03-02T13:32:54Z</time>
      </trkpt>
      <trkpt lat="45.54464" lon="5.96475">
        <ele>349.58</ele>
        <time>2014-03-02T13:33:09Z</time>
      </trkpt>
      <trkpt lat="45.54404" lon="5.96503">
        <ele>350.54</ele>
        <time>2014-03-02T13:33:25Z</time>
      </trkpt>
      <trkpt lat="45.54328" lon="5.96542">
        <ele>348.62</ele>
        <time>2014-03-02T13:33:43Z</time>
      </trkpt>
      <trkpt lat="45.54303" lon="5.9658">
        <ele>348.62</ele>
        <time>2014-03-02T13:33:56Z</time>
      </trkpt>
      <trkpt lat="45.54305" lon="5.96604">
        <ele>345.25</ele>
        <time>2014-03-02T13:34:00Z</time>
      </trkpt>
      <trkpt lat="45.54306" lon="5.96611">
        <ele>343.81</ele>
        <time>2014-03-02T13:34:01Z</time>
      </trkpt>
      <trkpt lat="45.54308" lon="5.96619">
        <ele>343.33</ele>
        <time>2014-03-02T13:34:02Z</time>
      </trkpt>
      <trkpt lat="45.54319" lon="5.96667">
        <ele>340.92</ele>
        <time>2014-03-02T13:34:07Z</time>
      </trkpt>
      <trkpt lat="45.54319" lon="5.96674">
        <ele>339.96</ele>
        <time>2014-03-02T13:34:08Z</time>
      </trkpt>
      <trkpt lat="45.54318" lon="5.9668">
        <ele>340.44</ele>
        <time>2014-03-02T13:34:09Z</time>
      </trkpt>
      <trkpt lat="45.54316" lon="5.96685">
        <ele>339.96</ele>
        <time>2014-03-02T13:34:10Z</time>
      </trkpt>
      <trkpt lat="45.54313" lon="5.96689">
        <ele>339.48</ele>
        <time>2014-03-02T13:34:11Z</time>
      </trkpt>
      <trkpt lat="45.5431" lon="5.96692">
        <ele>339.48</ele>
        <time>2014-03-02T13:34:12Z</time>
      </trkpt>
      <trkpt lat="45.54307" lon="5.96694">
        <ele>339</ele>
        <time>2014-03-02T13:34:13Z</time>
      </trkpt>
      <trkpt lat="45.54304" lon="5.96696">
        <ele>339.48</ele>
        <time>2014-03-02T13:34:14Z</time>
      </trkpt>
      <trkpt lat="45.54301" lon="5.96698">
        <ele>339.48</ele>
        <time>2014-03-02T13:34:15Z</time>
      </trkpt>
      <trkpt lat="45.54298" lon="5.967">
        <ele>339.48</ele>
        <time>2014-03-02T13:34:16Z</time>
      </trkpt>
      <trkpt lat="45.54294" lon="5.96702">
        <ele>339</ele>
        <time>2014-03-02T13:34:17Z</time>
      </trkpt>
      <trkpt lat="45.54291" lon="5.96703">
        <ele>339.48</ele>
        <time>2014-03-02T13:34:18Z</time>
      </trkpt>
      <trkpt lat="45.54287" lon="5.96703">
        <ele>339.48</ele>
        <time>2014-03-02T13:34:19Z</time>
      </trkpt>
      <trkpt lat="45.54242" lon="5.96716">
        <ele>340.44</ele>
        <time>2014-03-02T13:34:33Z</time>
      </trkpt>
      <trkpt lat="45.54192" lon="5.96736">
        <ele>341.89</ele>
        <time>2014-03-02T13:34:49Z</time>
      </trkpt>
      <trkpt lat="45.54143" lon="5.96751">
        <ele>344.29</ele>
        <time>2014-03-02T13:35:05Z</time>
      </trkpt>
      <trkpt lat="45.54098" lon="5.96769">
        <ele>344.77</ele>
        <time>2014-03-02T13:35:22Z</time>
      </trkpt>
      <trkpt lat="45.54101" lon="5.9682">
        <ele>344.29</ele>
        <time>2014-03-02T13:35:32Z</time>
      </trkpt>
      <trkpt lat="45.54112" lon="5.9688">
        <ele>342.85</ele>
        <time>2014-03-02T13:35:44Z</time>
      </trkpt>
      <trkpt lat="45.54116" lon="5.96883">
        <ele>342.85</ele>
        <time>2014-03-02T13:35:45Z</time>
      </trkpt>
      <trkpt lat="45.5417" lon="5.9694">
        <ele>343.81</ele>
        <time>2014-03-02T13:35:59Z</time>
      </trkpt>
      <trkpt lat="45.54199" lon="5.96989">
        <ele>341.89</ele>
        <time>2014-03-02T13:36:08Z</time>
      </trkpt>
      <trkpt lat="45.54199" lon="5.96995">
        <ele>342.37</ele>
        <time>2014-03-02T13:36:09Z</time>
      </trkpt>
      <trkpt lat="45.54196" lon="5.97">
        <ele>341.89</ele>
        <time>2014-03-02T13:36:10Z</time>
      </trkpt>
      <trkpt lat="45.54192" lon="5.97004">
        <ele>341.89</ele>
        <time>2014-03-02T13:36:11Z</time>
      </trkpt>
      <trkpt lat="45.54188" lon="5.97007">
        <ele>341.41</ele>
        <time>2014-03-02T13:36:12Z</time>
      </trkpt>
      <trkpt lat="45.54184" lon="5.9701">
        <ele>341.89</ele>
        <time>2014-03-02T13:36:13Z</time>
      </trkpt>
      <trkpt lat="45.54179" lon="5.97014">
        <ele>341.41</ele>
        <time>2014-03-02T13:36:14Z</time>
      </trkpt>
      <trkpt lat="45.54162" lon="5.97029">
        <ele>341.41</ele>
        <time>2014-03-02T13:36:18Z</time>
      </trkpt>
      <trkpt lat="45.54145" lon="5.97041">
        <ele>341.41</ele>
        <time>2014-03-02T13:36:22Z</time>
      </trkpt>
      <trkpt lat="45.54142" lon="5.97044">
        <ele>341.89</ele>
        <time>2014-03-02T13:36:23Z</time>
      </trkpt>
      <trkpt lat="45.54139" lon="5.97047">
        <ele>341.41</ele>
        <time>2014-03-02T13:36:24Z</time>
      </trkpt>
      <trkpt lat="45.54104" lon="5.97068">
        <ele>341.89</ele>
        <time>2014-03-02T13:36:35Z</time>
      </trkpt>
      <trkpt lat="45.541" lon="5.97071">
        <ele>341.41</ele>
        <time>2014-03-02T13:36:36Z</time>
      </trkpt>
      <trkpt lat="45.54096" lon="5.97074">
        <ele>341.41</ele>
        <time>2014-03-02T13:36:37Z</time>
      </trkpt>
      <trkpt lat="45.54084" lon="5.97079">
        <ele>341.41</ele>
        <time>2014-03-02T13:36:40Z</time>
      </trkpt>
      <trkpt lat="45.54066" lon="5.9708">
        <ele>341.41</ele>
        <time>2014-03-02T13:36:44Z</time>
      </trkpt>
      <trkpt lat="45.54062" lon="5.97079">
        <ele>341.89</ele>
        <time>2014-03-02T13:36:45Z</time>
      </trkpt>
      <trkpt lat="45.54059" lon="5.97077">
        <ele>341.89</ele>
        <time>2014-03-02T13:36:46Z</time>
      </trkpt>
      <trkpt lat="45.54054" lon="5.97075">
        <ele>341.89</ele>
        <time>2014-03-02T13:36:47Z</time>
      </trkpt>
      <trkpt lat="45.5405" lon="5.97072">
        <ele>342.37</ele>
        <time>2014-03-02T13:36:48Z</time>
      </trkpt>
      <trkpt lat="45.54012" lon="5.9706">
        <ele>342.85</ele>
        <time>2014-03-02T13:37:00Z</time>
      </trkpt>
      <trkpt lat="45.5397" lon="5.97088">
        <ele>342.85</ele>
        <time>2014-03-02T13:37:13Z</time>
      </trkpt>
      <trkpt lat="45.53959" lon="5.97095">
        <ele>343.33</ele>
        <time>2014-03-02T13:37:23Z</time>
      </trkpt>
      <trkpt lat="45.53959" lon="5.97095">
        <ele>342.85</ele>
        <time>2014-03-02T13:38:00Z</time>
      </trkpt>
      <trkpt lat="45.53959" lon="5.97095">
        <ele>342.85</ele>
        <time>2014-03-02T13:38:34Z</time>
      </trkpt>
      <trkpt lat="45.5394" lon="5.971">
        <ele>343.81</ele>
        <time>2014-03-02T13:38:49Z</time>
      </trkpt>
      <trkpt lat="45.53899" lon="5.97113">
        <ele>344.29</ele>
        <time>2014-03-02T13:39:03Z</time>
      </trkpt>
      <trkpt lat="45.53851" lon="5.97128">
        <ele>345.73</ele>
        <time>2014-03-02T13:39:18Z</time>
      </trkpt>
      <trkpt lat="45.538" lon="5.97137">
        <ele>349.1</ele>
        <time>2014-03-02T13:39:34Z</time>
      </trkpt>
      <trkpt lat="45.5376" lon="5.97147">
        <ele>351.02</ele>
        <time>2014-03-02T13:39:48Z</time>
      </trkpt>
      <trkpt lat="45.53725" lon="5.97172">
        <ele>352.46</ele>
        <time>2014-03-02T13:40:01Z</time>
      </trkpt>
      <trkpt lat="45.53667" lon="5.97191">
        <ele>354.86</ele>
        <time>2014-03-02T13:40:19Z</time>
      </trkpt>
      <trkpt lat="45.53609" lon="5.9722">
        <ele>356.79</ele>
        <time>2014-03-02T13:40:36Z</time>
      </trkpt>
      <trkpt lat="45.53558" lon="5.97234">
        <ele>357.27</ele>
        <time>2014-03-02T13:40:50Z</time>
      </trkpt>
      <trkpt lat="45.53505" lon="5.97273">
        <ele>357.27</ele>
        <time>2014-03-02T13:41:05Z</time>
      </trkpt>
      <trkpt lat="45.53463" lon="5.97306">
        <ele>356.31</ele>
        <time>2014-03-02T13:41:17Z</time>
      </trkpt>
      <trkpt lat="45.53442" lon="5.97327">
        <ele>355.83</ele>
        <time>2014-03-02T13:41:23Z</time>
      </trkpt>
      <trkpt lat="45.53423" lon="5.97349">
        <ele>354.38</ele>
        <time>2014-03-02T13:41:28Z</time>
      </trkpt>
      <trkpt lat="45.53408" lon="5.97369">
        <ele>352.94</ele>
        <time>2014-03-02T13:41:32Z</time>
      </trkpt>
      <trkpt lat="45.53394" lon="5.97384">
        <ele>351.98</ele>
        <time>2014-03-02T13:41:36Z</time>
      </trkpt>
      <trkpt lat="45.53338" lon="5.9742">
        <ele>351.02</ele>
        <time>2014-03-02T13:41:48Z</time>
      </trkpt>
      <trkpt lat="45.5333" lon="5.97425">
        <ele>351.5</ele>
        <time>2014-03-02T13:41:50Z</time>
      </trkpt>
      <trkpt lat="45.53326" lon="5.97428">
        <ele>351.02</ele>
        <time>2014-03-02T13:41:51Z</time>
      </trkpt>
      <trkpt lat="45.53303" lon="5.97441">
        <ele>351.5</ele>
        <time>2014-03-02T13:41:56Z</time>
      </trkpt>
      <trkpt lat="45.53298" lon="5.97444">
        <ele>351.5</ele>
        <time>2014-03-02T13:41:57Z</time>
      </trkpt>
      <trkpt lat="45.53243" lon="5.97472">
        <ele>352.46</ele>
        <time>2014-03-02T13:42:11Z</time>
      </trkpt>
      <trkpt lat="45.53217" lon="5.97492">
        <ele>351.02</ele>
        <time>2014-03-02T13:42:18Z</time>
      </trkpt>
      <trkpt lat="45.5321" lon="5.97499">
        <ele>350.06</ele>
        <time>2014-03-02T13:42:20Z</time>
      </trkpt>
      <trkpt lat="45.53195" lon="5.97516">
        <ele>349.58</ele>
        <time>2014-03-02T13:42:26Z</time>
      </trkpt>
      <trkpt lat="45.53194" lon="5.97519">
        <ele>349.1</ele>
        <time>2014-03-02T13:42:27Z</time>
      </trkpt>
      <trkpt lat="45.53195" lon="5.97523">
        <ele>349.1</ele>
        <time>2014-03-02T13:42:28Z</time>
      </trkpt>
      <trkpt lat="45.53197" lon="5.97528">
        <ele>348.62</ele>
        <time>2014-03-02T13:42:29Z</time>
      </trkpt>
      <trkpt lat="45.53199" lon="5.97533">
        <ele>348.62</ele>
        <time>2014-03-02T13:42:30Z</time>
      </trkpt>
      <trkpt lat="45.5321" lon="5.97586">
        <ele>347.65</ele>
        <time>2014-03-02T13:42:41Z</time>
      </trkpt>
      <trkpt lat="45.53224" lon="5.97658">
        <ele>347.17</ele>
        <time>2014-03-02T13:42:57Z</time>
      </trkpt>
      <trkpt lat="45.53235" lon="5.97708">
        <ele>347.17</ele>
        <time>2014-03-02T13:43:11Z</time>
      </trkpt>
      <trkpt lat="45.53239" lon="5.97723">
        <ele>347.17</ele>
        <time>2014-03-02T13:43:20Z</time>
      </trkpt>
      <trkpt lat="45.5324" lon="5.97725">
        <ele>347.17</ele>
        <time>2014-03-02T13:43:21Z</time>
      </trkpt>
      <trkpt lat="45.53241" lon="5.97727">
        <ele>347.65</ele>
        <time>2014-03-02T13:43:22Z</time>
      </trkpt>
      <trkpt lat="45.53249" lon="5.9774">
        <ele>347.17</ele>
        <time>2014-03-02T13:43:29Z</time>
      </trkpt>
      <trkpt lat="45.53251" lon="5.97741">
        <ele>347.17</ele>
        <time>2014-03-02T13:43:30Z</time>
      </trkpt>
      <trkpt lat="45.53278" lon="5.97739">
        <ele>348.13</ele>
        <time>2014-03-02T13:43:41Z</time>
      </trkpt>
      <trkpt lat="45.53296" lon="5.97767">
        <ele>347.65</ele>
        <time>2014-03-02T13:43:50Z</time>
      </trkpt>
      <trkpt lat="45.53305" lon="5.97809">
        <ele>349.1</ele>
        <time>2014-03-02T13:44:01Z</time>
      </trkpt>
      <trkpt lat="45.53332" lon="5.97838">
        <ele>351.02</ele>
        <time>2014-03-02T13:44:14Z</time>
      </trkpt>
      <trkpt lat="45.53368" lon="5.97859">
        <ele>351.02</ele>
        <time>2014-03-02T13:44:28Z</time>
      </trkpt>
      <trkpt lat="45.53389" lon="5.97885">
        <ele>349.1</ele>
        <time>2014-03-02T13:44:35Z</time>
      </trkpt>
      <trkpt lat="45.53399" lon="5.97897">
        <ele>349.1</ele>
        <time>2014-03-02T13:44:38Z</time>
      </trkpt>
      <trkpt lat="45.53402" lon="5.97902">
        <ele>349.1</ele>
        <time>2014-03-02T13:44:39Z</time>
      </trkpt>
      <trkpt lat="45.53412" lon="5.97951">
        <ele>350.06</ele>
        <time>2014-03-02T13:44:50Z</time>
      </trkpt>
      <trkpt lat="45.534" lon="5.98018">
        <ele>351.5</ele>
        <time>2014-03-02T13:45:05Z</time>
      </trkpt>
      <trkpt lat="45.53405" lon="5.98085">
        <ele>354.38</ele>
        <time>2014-03-02T13:45:20Z</time>
      </trkpt>
      <trkpt lat="45.53399" lon="5.98146">
        <ele>355.83</ele>
        <time>2014-03-02T13:45:34Z</time>
      </trkpt>
      <trkpt lat="45.53384" lon="5.98197">
        <ele>357.75</ele>
        <time>2014-03-02T13:45:47Z</time>
      </trkpt>
      <trkpt lat="45.53378" lon="5.98269">
        <ele>359.19</ele>
        <time>2014-03-02T13:46:01Z</time>
      </trkpt>
      <trkpt lat="45.53379" lon="5.98273">
        <ele>359.19</ele>
        <time>2014-03-02T13:46:02Z</time>
      </trkpt>
      <trkpt lat="45.53392" lon="5.98273">
        <ele>358.23</ele>
        <time>2014-03-02T13:46:06Z</time>
      </trkpt>
      <trkpt lat="45.53396" lon="5.98269">
        <ele>358.23</ele>
        <time>2014-03-02T13:46:07Z</time>
      </trkpt>
      <trkpt lat="45.53407" lon="5.9826">
        <ele>358.71</ele>
        <time>2014-03-02T13:46:09Z</time>
      </trkpt>
      <trkpt lat="45.53442" lon="5.98249">
        <ele>359.67</ele>
        <time>2014-03-02T13:46:20Z</time>
      </trkpt>
      <trkpt lat="45.53444" lon="5.98288">
        <ele>360.63</ele>
        <time>2014-03-02T13:46:31Z</time>
      </trkpt>
      <trkpt lat="45.53449" lon="5.98309">
        <ele>364</ele>
        <time>2014-03-02T13:46:41Z</time>
      </trkpt>
      <trkpt lat="45.5345" lon="5.98313">
        <ele>364.48</ele>
        <time>2014-03-02T13:46:43Z</time>
      </trkpt>
      <trkpt lat="45.53443" lon="5.98335">
        <ele>368.32</ele>
        <time>2014-03-02T13:46:56Z</time>
      </trkpt>
      <trkpt lat="45.53442" lon="5.98337">
        <ele>368.32</ele>
        <time>2014-03-02T13:46:57Z</time>
      </trkpt>
      <trkpt lat="45.53423" lon="5.98351">
        <ele>370.73</ele>
        <time>2014-03-02T13:47:11Z</time>
      </trkpt>
      <trkpt lat="45.5341" lon="5.98356">
        <ele>371.69</ele>
        <time>2014-03-02T13:47:18Z</time>
      </trkpt>
      <trkpt lat="45.53405" lon="5.98363">
        <ele>373.61</ele>
        <time>2014-03-02T13:47:22Z</time>
      </trkpt>
      <trkpt lat="45.534" lon="5.9837">
        <ele>375.05</ele>
        <time>2014-03-02T13:47:26Z</time>
      </trkpt>
      <trkpt lat="45.53401" lon="5.98385">
        <ele>377.45</ele>
        <time>2014-03-02T13:47:33Z</time>
      </trkpt>
      <trkpt lat="45.53401" lon="5.98388">
        <ele>378.42</ele>
        <time>2014-03-02T13:47:35Z</time>
      </trkpt>
      <trkpt lat="45.534" lon="5.98391">
        <ele>378.42</ele>
        <time>2014-03-02T13:47:37Z</time>
      </trkpt>
      <trkpt lat="45.53395" lon="5.98396">
        <ele>378.42</ele>
        <time>2014-03-02T13:47:41Z</time>
      </trkpt>
      <trkpt lat="45.53384" lon="5.98421">
        <ele>375.53</ele>
        <time>2014-03-02T13:47:50Z</time>
      </trkpt>
      <trkpt lat="45.53376" lon="5.98442">
        <ele>372.17</ele>
        <time>2014-03-02T13:47:54Z</time>
      </trkpt>
      <trkpt lat="45.53374" lon="5.98449">
        <ele>372.17</ele>
        <time>2014-03-02T13:47:55Z</time>
      </trkpt>
      <trkpt lat="45.53367" lon="5.98474">
        <ele>370.73</ele>
        <time>2014-03-02T13:47:58Z</time>
      </trkpt>
      <trkpt lat="45.53362" lon="5.98498">
        <ele>370.73</ele>
        <time>2014-03-02T13:48:01Z</time>
      </trkpt>
      <trkpt lat="45.53352" lon="5.98533">
        <ele>373.13</ele>
        <time>2014-03-02T13:48:10Z</time>
      </trkpt>
      <trkpt lat="45.53351" lon="5.98535">
        <ele>374.09</ele>
        <time>2014-03-02T13:48:11Z</time>
      </trkpt>
      <trkpt lat="45.5335" lon="5.98537">
        <ele>374.57</ele>
        <time>2014-03-02T13:48:12Z</time>
      </trkpt>
      <trkpt lat="45.53349" lon="5.98542">
        <ele>375.05</ele>
        <time>2014-03-02T13:48:14Z</time>
      </trkpt>
      <trkpt lat="45.53326" lon="5.98579">
        <ele>374.57</ele>
        <time>2014-03-02T13:48:26Z</time>
      </trkpt>
      <trkpt lat="45.53322" lon="5.98584">
        <ele>375.05</ele>
        <time>2014-03-02T13:48:27Z</time>
      </trkpt>
      <trkpt lat="45.5332" lon="5.98589">
        <ele>374.57</ele>
        <time>2014-03-02T13:48:28Z</time>
      </trkpt>
      <trkpt lat="45.53318" lon="5.98596">
        <ele>374.09</ele>
        <time>2014-03-02T13:48:29Z</time>
      </trkpt>
      <trkpt lat="45.53318" lon="5.98604">
        <ele>373.61</ele>
        <time>2014-03-02T13:48:30Z</time>
      </trkpt>
      <trkpt lat="45.53319" lon="5.98611">
        <ele>373.13</ele>
        <time>2014-03-02T13:48:31Z</time>
      </trkpt>
      <trkpt lat="45.53321" lon="5.98619">
        <ele>373.13</ele>
        <time>2014-03-02T13:48:32Z</time>
      </trkpt>
      <trkpt lat="45.53323" lon="5.98627">
        <ele>373.13</ele>
        <time>2014-03-02T13:48:33Z</time>
      </trkpt>
      <trkpt lat="45.53325" lon="5.98634">
        <ele>373.13</ele>
        <time>2014-03-02T13:48:34Z</time>
      </trkpt>
      <trkpt lat="45.53338" lon="5.98675">
        <ele>372.17</ele>
        <time>2014-03-02T13:48:40Z</time>
      </trkpt>
      <trkpt lat="45.53341" lon="5.98679">
        <ele>372.17</ele>
        <time>2014-03-02T13:48:41Z</time>
      </trkpt>
      <trkpt lat="45.53346" lon="5.98681">
        <ele>372.17</ele>
        <time>2014-03-02T13:48:42Z</time>
      </trkpt>
      <trkpt lat="45.53351" lon="5.98681">
        <ele>372.17</ele>
        <time>2014-03-02T13:48:43Z</time>
      </trkpt>
      <trkpt lat="45.53355" lon="5.98679">
        <ele>371.69</ele>
        <time>2014-03-02T13:48:44Z</time>
      </trkpt>
      <trkpt lat="45.53359" lon="5.98676">
        <ele>371.69</ele>
        <time>2014-03-02T13:48:45Z</time>
      </trkpt>
      <trkpt lat="45.53363" lon="5.98674">
        <ele>371.21</ele>
        <time>2014-03-02T13:48:46Z</time>
      </trkpt>
      <trkpt lat="45.53394" lon="5.98681">
        <ele>372.17</ele>
        <time>2014-03-02T13:48:55Z</time>
      </trkpt>
      <trkpt lat="45.53411" lon="5.98725">
        <ele>375.05</ele>
        <time>2014-03-02T13:49:06Z</time>
      </trkpt>
      <trkpt lat="45.53425" lon="5.98774">
        <ele>376.97</ele>
        <time>2014-03-02T13:49:18Z</time>
      </trkpt>
      <trkpt lat="45.53424" lon="5.98779">
        <ele>376.97</ele>
        <time>2014-03-02T13:49:19Z</time>
      </trkpt>
      <trkpt lat="45.5343" lon="5.98822">
        <ele>377.94</ele>
        <time>2014-03-02T13:49:29Z</time>
      </trkpt>
      <trkpt lat="45.53457" lon="5.98855">
        <ele>381.3</ele>
        <time>2014-03-02T13:49:42Z</time>
      </trkpt>
      <trkpt lat="45.53492" lon="5.98865">
        <ele>383.7</ele>
        <time>2014-03-02T13:49:55Z</time>
      </trkpt>
      <trkpt lat="45.53506" lon="5.9895">
        <ele>384.18</ele>
        <time>2014-03-02T13:50:15Z</time>
      </trkpt>
      <trkpt lat="45.53516" lon="5.98991">
        <ele>381.3</ele>
        <time>2014-03-02T13:50:28Z</time>
      </trkpt>
      <trkpt lat="45.53524" lon="5.99002">
        <ele>377.94</ele>
        <time>2014-03-02T13:50:33Z</time>
      </trkpt>
      <trkpt lat="45.53531" lon="5.99016">
        <ele>375.05</ele>
        <time>2014-03-02T13:50:40Z</time>
      </trkpt>
      <trkpt lat="45.53531" lon="5.99018">
        <ele>374.57</ele>
        <time>2014-03-02T13:50:41Z</time>
      </trkpt>
      <trkpt lat="45.5353" lon="5.9902">
        <ele>374.09</ele>
        <time>2014-03-02T13:50:42Z</time>
      </trkpt>
      <trkpt lat="45.53529" lon="5.99021">
        <ele>373.61</ele>
        <time>2014-03-02T13:50:43Z</time>
      </trkpt>
      <trkpt lat="45.53526" lon="5.99024">
        <ele>371.69</ele>
        <time>2014-03-02T13:50:54Z</time>
      </trkpt>
      <trkpt lat="45.53523" lon="5.99026">
        <ele>369.76</ele>
        <time>2014-03-02T13:50:57Z</time>
      </trkpt>
      <trkpt lat="45.53515" lon="5.99029">
        <ele>368.32</ele>
        <time>2014-03-02T13:51:00Z</time>
      </trkpt>
      <trkpt lat="45.53513" lon="5.99029">
        <ele>367.84</ele>
        <time>2014-03-02T13:51:01Z</time>
      </trkpt>
      <trkpt lat="45.5351" lon="5.9903">
        <ele>367.36</ele>
        <time>2014-03-02T13:51:02Z</time>
      </trkpt>
      <trkpt lat="45.53496" lon="5.99036">
        <ele>364.48</ele>
        <time>2014-03-02T13:51:06Z</time>
      </trkpt>
      <trkpt lat="45.53486" lon="5.99039">
        <ele>363.04</ele>
        <time>2014-03-02T13:51:09Z</time>
      </trkpt>
      <trkpt lat="45.53471" lon="5.99041">
        <ele>360.63</ele>
        <time>2014-03-02T13:51:13Z</time>
      </trkpt>
      <trkpt lat="45.53458" lon="5.99036">
        <ele>358.23</ele>
        <time>2014-03-02T13:51:17Z</time>
      </trkpt>
      <trkpt lat="45.53452" lon="5.99036">
        <ele>357.27</ele>
        <time>2014-03-02T13:51:19Z</time>
      </trkpt>
      <trkpt lat="45.53446" lon="5.99039">
        <ele>355.83</ele>
        <time>2014-03-02T13:51:21Z</time>
      </trkpt>
      <trkpt lat="45.53436" lon="5.99058">
        <ele>353.42</ele>
        <time>2014-03-02T13:51:30Z</time>
      </trkpt>
      <trkpt lat="45.53439" lon="5.99062">
        <ele>352.94</ele>
        <time>2014-03-02T13:51:31Z</time>
      </trkpt>
      <trkpt lat="45.53443" lon="5.99066">
        <ele>352.94</ele>
        <time>2014-03-02T13:51:32Z</time>
      </trkpt>
      <trkpt lat="45.53447" lon="5.9907">
        <ele>351.98</ele>
        <time>2014-03-02T13:51:33Z</time>
      </trkpt>
      <trkpt lat="45.53453" lon="5.99074">
        <ele>350.54</ele>
        <time>2014-03-02T13:51:34Z</time>
      </trkpt>
      <trkpt lat="45.53462" lon="5.99077">
        <ele>350.54</ele>
        <time>2014-03-02T13:51:35Z</time>
      </trkpt>
      <trkpt lat="45.5347" lon="5.99081">
        <ele>349.58</ele>
        <time>2014-03-02T13:51:36Z</time>
      </trkpt>
      <trkpt lat="45.53478" lon="5.99085">
        <ele>349.58</ele>
        <time>2014-03-02T13:51:37Z</time>
      </trkpt>
      <trkpt lat="45.53485" lon="5.99088">
        <ele>348.13</ele>
        <time>2014-03-02T13:51:38Z</time>
      </trkpt>
      <trkpt lat="45.53493" lon="5.99091">
        <ele>348.13</ele>
        <time>2014-03-02T13:51:39Z</time>
      </trkpt>
      <trkpt lat="45.5355" lon="5.99109">
        <ele>344.77</ele>
        <time>2014-03-02T13:51:46Z</time>
      </trkpt>
      <trkpt lat="45.53591" lon="5.99123">
        <ele>343.33</ele>
        <time>2014-03-02T13:51:51Z</time>
      </trkpt>
      <trkpt lat="45.5362" lon="5.99135">
        <ele>342.37</ele>
        <time>2014-03-02T13:51:55Z</time>
      </trkpt>
      <trkpt lat="45.53626" lon="5.99141">
        <ele>341.89</ele>
        <time>2014-03-02T13:51:56Z</time>
      </trkpt>
      <trkpt lat="45.53631" lon="5.99148">
        <ele>341.41</ele>
        <time>2014-03-02T13:51:57Z</time>
      </trkpt>
      <trkpt lat="45.53634" lon="5.99155">
        <ele>340.92</ele>
        <time>2014-03-02T13:51:58Z</time>
      </trkpt>
      <trkpt lat="45.53637" lon="5.9916">
        <ele>339.96</ele>
        <time>2014-03-02T13:51:59Z</time>
      </trkpt>
      <trkpt lat="45.53638" lon="5.99164">
        <ele>340.44</ele>
        <time>2014-03-02T13:52:00Z</time>
      </trkpt>
      <trkpt lat="45.5364" lon="5.99174">
        <ele>339.96</ele>
        <time>2014-03-02T13:52:04Z</time>
      </trkpt>
      <trkpt lat="45.5364" lon="5.99176">
        <ele>340.44</ele>
        <time>2014-03-02T13:52:05Z</time>
      </trkpt>
      <trkpt lat="45.53638" lon="5.99181">
        <ele>339.96</ele>
        <time>2014-03-02T13:52:07Z</time>
      </trkpt>
      <trkpt lat="45.53639" lon="5.99184">
        <ele>339.96</ele>
        <time>2014-03-02T13:52:08Z</time>
      </trkpt>
      <trkpt lat="45.53642" lon="5.99187">
        <ele>339.96</ele>
        <time>2014-03-02T13:52:09Z</time>
      </trkpt>
      <trkpt lat="45.53645" lon="5.99189">
        <ele>339.96</ele>
        <time>2014-03-02T13:52:10Z</time>
      </trkpt>
      <trkpt lat="45.53647" lon="5.99193">
        <ele>340.44</ele>
        <time>2014-03-02T13:52:11Z</time>
      </trkpt>
      <trkpt lat="45.53649" lon="5.99197">
        <ele>340.44</ele>
        <time>2014-03-02T13:52:12Z</time>
      </trkpt>
      <trkpt lat="45.53656" lon="5.99207">
        <ele>341.89</ele>
        <time>2014-03-02T13:52:15Z</time>
      </trkpt>
      <trkpt lat="45.53659" lon="5.99207">
        <ele>341.89</ele>
        <time>2014-03-02T13:52:16Z</time>
      </trkpt>
      <trkpt lat="45.53662" lon="5.99208">
        <ele>341.89</ele>
        <time>2014-03-02T13:52:17Z</time>
      </trkpt>
      <trkpt lat="45.53665" lon="5.99207">
        <ele>341.89</ele>
        <time>2014-03-02T13:52:18Z</time>
      </trkpt>
      <trkpt lat="45.53669" lon="5.99206">
        <ele>341.89</ele>
        <time>2014-03-02T13:52:19Z</time>
      </trkpt>
      <trkpt lat="45.53672" lon="5.99204">
        <ele>342.37</ele>
        <time>2014-03-02T13:52:20Z</time>
      </trkpt>
      <trkpt lat="45.53676" lon="5.99202">
        <ele>341.89</ele>
        <time>2014-03-02T13:52:21Z</time>
      </trkpt>
      <trkpt lat="45.53679" lon="5.992">
        <ele>341.89</ele>
        <time>2014-03-02T13:52:22Z</time>
      </trkpt>
      <trkpt lat="45.53719" lon="5.99177">
        <ele>342.37</ele>
        <time>2014-03-02T13:52:33Z</time>
      </trkpt>
      <trkpt lat="45.53778" lon="5.99142">
        <ele>341.89</ele>
        <time>2014-03-02T13:52:48Z</time>
      </trkpt>
      <trkpt lat="45.5379" lon="5.99137">
        <ele>341.89</ele>
        <time>2014-03-02T13:52:51Z</time>
      </trkpt>
      <trkpt lat="45.53794" lon="5.99136">
        <ele>341.89</ele>
        <time>2014-03-02T13:52:52Z</time>
      </trkpt>
      <trkpt lat="45.53798" lon="5.99136">
        <ele>342.37</ele>
        <time>2014-03-02T13:52:53Z</time>
      </trkpt>
      <trkpt lat="45.53801" lon="5.99139">
        <ele>342.37</ele>
        <time>2014-03-02T13:52:54Z</time>
      </trkpt>
      <trkpt lat="45.53804" lon="5.99143">
        <ele>342.37</ele>
        <time>2014-03-02T13:52:55Z</time>
      </trkpt>
      <trkpt lat="45.53806" lon="5.99147">
        <ele>342.37</ele>
        <time>2014-03-02T13:52:56Z</time>
      </trkpt>
      <trkpt lat="45.53808" lon="5.99152">
        <ele>341.89</ele>
        <time>2014-03-02T13:52:57Z</time>
      </trkpt>
      <trkpt lat="45.5381" lon="5.99157">
        <ele>342.37</ele>
        <time>2014-03-02T13:52:58Z</time>
      </trkpt>
      <trkpt lat="45.53831" lon="5.99228">
        <ele>345.73</ele>
        <time>2014-03-02T13:53:13Z</time>
      </trkpt>
      <trkpt lat="45.53852" lon="5.99294">
        <ele>347.17</ele>
        <time>2014-03-02T13:53:29Z</time>
      </trkpt>
      <trkpt lat="45.53857" lon="5.99305">
        <ele>348.62</ele>
        <time>2014-03-02T13:53:33Z</time>
      </trkpt>
      <trkpt lat="45.53859" lon="5.99306">
        <ele>349.1</ele>
        <time>2014-03-02T13:53:34Z</time>
      </trkpt>
      <trkpt lat="45.53861" lon="5.99306">
        <ele>348.62</ele>
        <time>2014-03-02T13:53:35Z</time>
      </trkpt>
      <trkpt lat="45.53863" lon="5.99306">
        <ele>348.62</ele>
        <time>2014-03-02T13:53:36Z</time>
      </trkpt>
      <trkpt lat="45.53865" lon="5.99306">
        <ele>349.1</ele>
        <time>2014-03-02T13:53:37Z</time>
      </trkpt>
      <trkpt lat="45.53868" lon="5.99308">
        <ele>348.62</ele>
        <time>2014-03-02T13:53:38Z</time>
      </trkpt>
      <trkpt lat="45.5387" lon="5.9931">
        <ele>349.1</ele>
        <time>2014-03-02T13:53:39Z</time>
      </trkpt>
      <trkpt lat="45.53872" lon="5.99313">
        <ele>348.13</ele>
        <time>2014-03-02T13:53:40Z</time>
      </trkpt>
      <trkpt lat="45.53872" lon="5.99316">
        <ele>348.13</ele>
        <time>2014-03-02T13:53:41Z</time>
      </trkpt>
      <trkpt lat="45.53872" lon="5.99319">
        <ele>348.13</ele>
        <time>2014-03-02T13:53:42Z</time>
      </trkpt>
      <trkpt lat="45.5387" lon="5.99322">
        <ele>349.1</ele>
        <time>2014-03-02T13:53:43Z</time>
      </trkpt>
      <trkpt lat="45.53868" lon="5.99325">
        <ele>348.62</ele>
        <time>2014-03-02T13:53:44Z</time>
      </trkpt>
      <trkpt lat="45.53865" lon="5.99328">
        <ele>348.62</ele>
        <time>2014-03-02T13:53:45Z</time>
      </trkpt>
      <trkpt lat="45.53863" lon="5.99332">
        <ele>349.1</ele>
        <time>2014-03-02T13:53:46Z</time>
      </trkpt>
      <trkpt lat="45.53845" lon="5.99391">
        <ele>349.58</ele>
        <time>2014-03-02T13:53:59Z</time>
      </trkpt>
      <trkpt lat="45.53835" lon="5.99427">
        <ele>351.5</ele>
        <time>2014-03-02T13:54:07Z</time>
      </trkpt>
      <trkpt lat="45.53834" lon="5.99493">
        <ele>353.42</ele>
        <time>2014-03-02T13:54:21Z</time>
      </trkpt>
      <trkpt lat="45.53841" lon="5.99549">
        <ele>354.38</ele>
        <time>2014-03-02T13:54:35Z</time>
      </trkpt>
      <trkpt lat="45.53846" lon="5.996">
        <ele>357.75</ele>
        <time>2014-03-02T13:54:48Z</time>
      </trkpt>
      <trkpt lat="45.53859" lon="5.99656">
        <ele>359.67</ele>
        <time>2014-03-02T13:55:04Z</time>
      </trkpt>
      <trkpt lat="45.53861" lon="5.99658">
        <ele>359.67</ele>
        <time>2014-03-02T13:55:06Z</time>
      </trkpt>
      <trkpt lat="45.53891" lon="5.99651">
        <ele>360.15</ele>
        <time>2014-03-02T13:55:16Z</time>
      </trkpt>
      <trkpt lat="45.53901" lon="5.99651">
        <ele>361.59</ele>
        <time>2014-03-02T13:55:22Z</time>
      </trkpt>
      <trkpt lat="45.53902" lon="5.99664">
        <ele>363.04</ele>
        <time>2014-03-02T13:55:28Z</time>
      </trkpt>
      <trkpt lat="45.53899" lon="5.99689">
        <ele>365.92</ele>
        <time>2014-03-02T13:55:39Z</time>
      </trkpt>
      <trkpt lat="45.53901" lon="5.99695">
        <ele>367.36</ele>
        <time>2014-03-02T13:55:42Z</time>
      </trkpt>
      <trkpt lat="45.53899" lon="5.99705">
        <ele>368.8</ele>
        <time>2014-03-02T13:55:47Z</time>
      </trkpt>
      <trkpt lat="45.53892" lon="5.99738">
        <ele>371.69</ele>
        <time>2014-03-02T13:56:03Z</time>
      </trkpt>
      <trkpt lat="45.53876" lon="5.99768">
        <ele>370.24</ele>
        <time>2014-03-02T13:56:17Z</time>
      </trkpt>
      <trkpt lat="45.53866" lon="5.99785">
        <ele>366.88</ele>
        <time>2014-03-02T13:56:24Z</time>
      </trkpt>
      <trkpt lat="45.53865" lon="5.99788">
        <ele>366.4</ele>
        <time>2014-03-02T13:56:25Z</time>
      </trkpt>
      <trkpt lat="45.53859" lon="5.99808">
        <ele>366.88</ele>
        <time>2014-03-02T13:56:33Z</time>
      </trkpt>
      <trkpt lat="45.53862" lon="5.99814">
        <ele>367.84</ele>
        <time>2014-03-02T13:56:39Z</time>
      </trkpt>
      <trkpt lat="45.53864" lon="5.99832">
        <ele>368.8</ele>
        <time>2014-03-02T13:56:53Z</time>
      </trkpt>
      <trkpt lat="45.53866" lon="5.99833">
        <ele>368.8</ele>
        <time>2014-03-02T13:56:59Z</time>
      </trkpt>
      <trkpt lat="45.53868" lon="5.99844">
        <ele>369.76</ele>
        <time>2014-03-02T13:57:04Z</time>
      </trkpt>
      <trkpt lat="45.53881" lon="5.99871">
        <ele>371.69</ele>
        <time>2014-03-02T13:57:15Z</time>
      </trkpt>
      <trkpt lat="45.53891" lon="5.99886">
        <ele>373.13</ele>
        <time>2014-03-02T13:57:28Z</time>
      </trkpt>
      <trkpt lat="45.53893" lon="5.99886">
        <ele>373.13</ele>
        <time>2014-03-02T13:57:34Z</time>
      </trkpt>
      <trkpt lat="45.53896" lon="5.99895">
        <ele>373.13</ele>
        <time>2014-03-02T13:57:42Z</time>
      </trkpt>
      <trkpt lat="45.53897" lon="5.99901">
        <ele>373.13</ele>
        <time>2014-03-02T13:57:57Z</time>
      </trkpt>
      <trkpt lat="45.53897" lon="5.99901">
        <ele>373.13</ele>
        <time>2014-03-02T13:57:59Z</time>
      </trkpt>
      <trkpt lat="45.53907" lon="5.99923">
        <ele>376.49</ele>
        <time>2014-03-02T13:58:12Z</time>
      </trkpt>
      <trkpt lat="45.53909" lon="5.99926">
        <ele>377.45</ele>
        <time>2014-03-02T13:58:15Z</time>
      </trkpt>
      <trkpt lat="45.53915" lon="5.99932">
        <ele>379.38</ele>
        <time>2014-03-02T13:58:27Z</time>
      </trkpt>
      <trkpt lat="45.53916" lon="5.99934">
        <ele>379.86</ele>
        <time>2014-03-02T13:58:29Z</time>
      </trkpt>
      <trkpt lat="45.53927" lon="5.99944">
        <ele>382.74</ele>
        <time>2014-03-02T13:58:44Z</time>
      </trkpt>
      <trkpt lat="45.53935" lon="5.9995">
        <ele>384.18</ele>
        <time>2014-03-02T13:58:55Z</time>
      </trkpt>
      <trkpt lat="45.53941" lon="5.99951">
        <ele>384.18</ele>
        <time>2014-03-02T13:59:05Z</time>
      </trkpt>
      <trkpt lat="45.53951" lon="5.9997">
        <ele>383.7</ele>
        <time>2014-03-02T13:59:14Z</time>
      </trkpt>
      <trkpt lat="45.53957" lon="5.9999">
        <ele>387.55</ele>
        <time>2014-03-02T13:59:24Z</time>
      </trkpt>
      <trkpt lat="45.53965" lon="6.00021">
        <ele>389.95</ele>
        <time>2014-03-02T13:59:37Z</time>
      </trkpt>
      <trkpt lat="45.53977" lon="6.00052">
        <ele>392.36</ele>
        <time>2014-03-02T13:59:52Z</time>
      </trkpt>
      <trkpt lat="45.53986" lon="6.00087">
        <ele>394.76</ele>
        <time>2014-03-02T14:00:07Z</time>
      </trkpt>
      <trkpt lat="45.53998" lon="6.0012">
        <ele>397.16</ele>
        <time>2014-03-02T14:00:21Z</time>
      </trkpt>
      <trkpt lat="45.54012" lon="6.00154">
        <ele>399.08</ele>
        <time>2014-03-02T14:00:36Z</time>
      </trkpt>
      <trkpt lat="45.54016" lon="6.00159">
        <ele>400.05</ele>
        <time>2014-03-02T14:00:39Z</time>
      </trkpt>
      <trkpt lat="45.54034" lon="6.00174">
        <ele>402.93</ele>
        <time>2014-03-02T14:00:52Z</time>
      </trkpt>
      <trkpt lat="45.54055" lon="6.00195">
        <ele>403.41</ele>
        <time>2014-03-02T14:01:04Z</time>
      </trkpt>
      <trkpt lat="45.54068" lon="6.00213">
        <ele>406.29</ele>
        <time>2014-03-02T14:01:15Z</time>
      </trkpt>
      <trkpt lat="45.54089" lon="6.00241">
        <ele>407.74</ele>
        <time>2014-03-02T14:01:30Z</time>
      </trkpt>
      <trkpt lat="45.54117" lon="6.00257">
        <ele>409.66</ele>
        <time>2014-03-02T14:01:46Z</time>
      </trkpt>
      <trkpt lat="45.54132" lon="6.00266">
        <ele>412.54</ele>
        <time>2014-03-02T14:01:57Z</time>
      </trkpt>
      <trkpt lat="45.54146" lon="6.00288">
        <ele>414.47</ele>
        <time>2014-03-02T14:02:09Z</time>
      </trkpt>
      <trkpt lat="45.5416" lon="6.00323">
        <ele>415.43</ele>
        <time>2014-03-02T14:02:22Z</time>
      </trkpt>
      <trkpt lat="45.54176" lon="6.00342">
        <ele>417.35</ele>
        <time>2014-03-02T14:02:33Z</time>
      </trkpt>
      <trkpt lat="45.54152" lon="6.00357">
        <ele>419.27</ele>
        <time>2014-03-02T14:02:45Z</time>
      </trkpt>
      <trkpt lat="45.54133" lon="6.0039">
        <ele>422.64</ele>
        <time>2014-03-02T14:02:59Z</time>
      </trkpt>
      <trkpt lat="45.54106" lon="6.00419">
        <ele>425.04</ele>
        <time>2014-03-02T14:03:15Z</time>
      </trkpt>
      <trkpt lat="45.5409" lon="6.00454">
        <ele>427.44</ele>
        <time>2014-03-02T14:03:30Z</time>
      </trkpt>
      <trkpt lat="45.54092" lon="6.00489">
        <ele>430.81</ele>
        <time>2014-03-02T14:03:43Z</time>
      </trkpt>
      <trkpt lat="45.54093" lon="6.00501">
        <ele>432.25</ele>
        <time>2014-03-02T14:03:49Z</time>
      </trkpt>
      <trkpt lat="45.54073" lon="6.0051">
        <ele>431.29</ele>
        <time>2014-03-02T14:04:00Z</time>
      </trkpt>
      <trkpt lat="45.54046" lon="6.00509">
        <ele>429.37</ele>
        <time>2014-03-02T14:04:06Z</time>
      </trkpt>
      <trkpt lat="45.5403" lon="6.00508">
        <ele>427.44</ele>
        <time>2014-03-02T14:04:09Z</time>
      </trkpt>
      <trkpt lat="45.54023" lon="6.00507">
        <ele>426.96</ele>
        <time>2014-03-02T14:04:10Z</time>
      </trkpt>
      <trkpt lat="45.54017" lon="6.00507">
        <ele>426</ele>
        <time>2014-03-02T14:04:11Z</time>
      </trkpt>
      <trkpt lat="45.53985" lon="6.00508">
        <ele>424.56</ele>
        <time>2014-03-02T14:04:19Z</time>
      </trkpt>
      <trkpt lat="45.53943" lon="6.00526">
        <ele>426</ele>
        <time>2014-03-02T14:04:33Z</time>
      </trkpt>
      <trkpt lat="45.53894" lon="6.00528">
        <ele>427.92</ele>
        <time>2014-03-02T14:04:49Z</time>
      </trkpt>
      <trkpt lat="45.53867" lon="6.00528">
        <ele>429.85</ele>
        <time>2014-03-02T14:05:00Z</time>
      </trkpt>
      <trkpt lat="45.53833" lon="6.00542">
        <ele>432.73</ele>
        <time>2014-03-02T14:05:14Z</time>
      </trkpt>
      <trkpt lat="45.53801" lon="6.00546">
        <ele>435.61</ele>
        <time>2014-03-02T14:05:29Z</time>
      </trkpt>
      <trkpt lat="45.53768" lon="6.00539">
        <ele>437.06</ele>
        <time>2014-03-02T14:05:44Z</time>
      </trkpt>
      <trkpt lat="45.53724" lon="6.00538">
        <ele>438.5</ele>
        <time>2014-03-02T14:06:02Z</time>
      </trkpt>
      <trkpt lat="45.53675" lon="6.00542">
        <ele>439.46</ele>
        <time>2014-03-02T14:06:22Z</time>
      </trkpt>
      <trkpt lat="45.53642" lon="6.00549">
        <ele>441.38</ele>
        <time>2014-03-02T14:06:37Z</time>
      </trkpt>
      <trkpt lat="45.53614" lon="6.00553">
        <ele>443.31</ele>
        <time>2014-03-02T14:06:53Z</time>
      </trkpt>
      <trkpt lat="45.53585" lon="6.00559">
        <ele>444.75</ele>
        <time>2014-03-02T14:07:09Z</time>
      </trkpt>
      <trkpt lat="45.53563" lon="6.00567">
        <ele>444.75</ele>
        <time>2014-03-02T14:07:23Z</time>
      </trkpt>
      <trkpt lat="45.53533" lon="6.00573">
        <ele>445.71</ele>
        <time>2014-03-02T14:07:38Z</time>
      </trkpt>
      <trkpt lat="45.53502" lon="6.00577">
        <ele>447.15</ele>
        <time>2014-03-02T14:07:53Z</time>
      </trkpt>
      <trkpt lat="45.53476" lon="6.00576">
        <ele>450.03</ele>
        <time>2014-03-02T14:08:08Z</time>
      </trkpt>
      <trkpt lat="45.53452" lon="6.00588">
        <ele>450.03</ele>
        <time>2014-03-02T14:08:20Z</time>
      </trkpt>
      <trkpt lat="45.53425" lon="6.00596">
        <ele>447.15</ele>
        <time>2014-03-02T14:08:27Z</time>
      </trkpt>
      <trkpt lat="45.5342" lon="6.00596">
        <ele>447.15</ele>
        <time>2014-03-02T14:08:28Z</time>
      </trkpt>
      <trkpt lat="45.53354" lon="6.00592">
        <ele>444.27</ele>
        <time>2014-03-02T14:08:39Z</time>
      </trkpt>
      <trkpt lat="45.53347" lon="6.00591">
        <ele>443.79</ele>
        <time>2014-03-02T14:08:40Z</time>
      </trkpt>
      <trkpt lat="45.53301" lon="6.00585">
        <ele>440.9</ele>
        <time>2014-03-02T14:08:46Z</time>
      </trkpt>
      <trkpt lat="45.53254" lon="6.00577">
        <ele>440.9</ele>
        <time>2014-03-02T14:08:56Z</time>
      </trkpt>
      <trkpt lat="45.53243" lon="6.00575">
        <ele>442.34</ele>
        <time>2014-03-02T14:08:59Z</time>
      </trkpt>
      <trkpt lat="45.53191" lon="6.00557">
        <ele>441.86</ele>
        <time>2014-03-02T14:09:11Z</time>
      </trkpt>
      <trkpt lat="45.53156" lon="6.00524">
        <ele>441.86</ele>
        <time>2014-03-02T14:09:22Z</time>
      </trkpt>
      <trkpt lat="45.5312" lon="6.00477">
        <ele>443.79</ele>
        <time>2014-03-02T14:09:37Z</time>
      </trkpt>
      <trkpt lat="45.53095" lon="6.0044">
        <ele>443.79</ele>
        <time>2014-03-02T14:09:49Z</time>
      </trkpt>
      <trkpt lat="45.53054" lon="6.00374">
        <ele>445.23</ele>
        <time>2014-03-02T14:10:07Z</time>
      </trkpt>
      <trkpt lat="45.53047" lon="6.00357">
        <ele>446.19</ele>
        <time>2014-03-02T14:10:12Z</time>
      </trkpt>
      <trkpt lat="45.53031" lon="6.0035">
        <ele>442.82</ele>
        <time>2014-03-02T14:10:16Z</time>
      </trkpt>
      <trkpt lat="45.53016" lon="6.00338">
        <ele>440.9</ele>
        <time>2014-03-02T14:10:19Z</time>
      </trkpt>
      <trkpt lat="45.52997" lon="6.00325">
        <ele>436.1</ele>
        <time>2014-03-02T14:10:22Z</time>
      </trkpt>
      <trkpt lat="45.52991" lon="6.00323">
        <ele>435.13</ele>
        <time>2014-03-02T14:10:23Z</time>
      </trkpt>
      <trkpt lat="45.52984" lon="6.0032">
        <ele>433.69</ele>
        <time>2014-03-02T14:10:24Z</time>
      </trkpt>
      <trkpt lat="45.52963" lon="6.00308">
        <ele>430.33</ele>
        <time>2014-03-02T14:10:27Z</time>
      </trkpt>
      <trkpt lat="45.52932" lon="6.00292">
        <ele>426.96</ele>
        <time>2014-03-02T14:10:31Z</time>
      </trkpt>
      <trkpt lat="45.52914" lon="6.00285">
        <ele>424.56</ele>
        <time>2014-03-02T14:10:34Z</time>
      </trkpt>
      <trkpt lat="45.52908" lon="6.00284">
        <ele>424.56</ele>
        <time>2014-03-02T14:10:35Z</time>
      </trkpt>
      <trkpt lat="45.5289" lon="6.00284">
        <ele>424.56</ele>
        <time>2014-03-02T14:10:38Z</time>
      </trkpt>
      <trkpt lat="45.52885" lon="6.00285">
        <ele>424.56</ele>
        <time>2014-03-02T14:10:39Z</time>
      </trkpt>
      <trkpt lat="45.52879" lon="6.00287">
        <ele>424.56</ele>
        <time>2014-03-02T14:10:40Z</time>
      </trkpt>
      <trkpt lat="45.52856" lon="6.00302">
        <ele>424.56</ele>
        <time>2014-03-02T14:10:45Z</time>
      </trkpt>
      <trkpt lat="45.52851" lon="6.00303">
        <ele>424.56</ele>
        <time>2014-03-02T14:10:46Z</time>
      </trkpt>
      <trkpt lat="45.52846" lon="6.00302">
        <ele>425.04</ele>
        <time>2014-03-02T14:10:47Z</time>
      </trkpt>
      <trkpt lat="45.52842" lon="6.00298">
        <ele>425.04</ele>
        <time>2014-03-02T14:10:48Z</time>
      </trkpt>
      <trkpt lat="45.5284" lon="6.00292">
        <ele>425.04</ele>
        <time>2014-03-02T14:10:49Z</time>
      </trkpt>
      <trkpt lat="45.52837" lon="6.00286">
        <ele>425.04</ele>
        <time>2014-03-02T14:10:50Z</time>
      </trkpt>
      <trkpt lat="45.52812" lon="6.00225">
        <ele>428.4</ele>
        <time>2014-03-02T14:11:01Z</time>
      </trkpt>
      <trkpt lat="45.52805" lon="6.00216">
        <ele>428.89</ele>
        <time>2014-03-02T14:11:04Z</time>
      </trkpt>
      <trkpt lat="45.52801" lon="6.00215">
        <ele>428.89</ele>
        <time>2014-03-02T14:11:05Z</time>
      </trkpt>
      <trkpt lat="45.52797" lon="6.00217">
        <ele>427.92</ele>
        <time>2014-03-02T14:11:06Z</time>
      </trkpt>
      <trkpt lat="45.52789" lon="6.00221">
        <ele>427.44</ele>
        <time>2014-03-02T14:11:08Z</time>
      </trkpt>
      <trkpt lat="45.52753" lon="6.00242">
        <ele>427.92</ele>
        <time>2014-03-02T14:11:16Z</time>
      </trkpt>
      <trkpt lat="45.52749" lon="6.00243">
        <ele>427.44</ele>
        <time>2014-03-02T14:11:17Z</time>
      </trkpt>
      <trkpt lat="45.52723" lon="6.00247">
        <ele>429.85</ele>
        <time>2014-03-02T14:11:23Z</time>
      </trkpt>
      <trkpt lat="45.52719" lon="6.00248">
        <ele>429.85</ele>
        <time>2014-03-02T14:11:24Z</time>
      </trkpt>
      <trkpt lat="45.52686" lon="6.00249">
        <ele>429.85</ele>
        <time>2014-03-02T14:11:31Z</time>
      </trkpt>
      <trkpt lat="45.52673" lon="6.00251">
        <ele>430.33</ele>
        <time>2014-03-02T14:11:34Z</time>
      </trkpt>
      <trkpt lat="45.52668" lon="6.00252">
        <ele>430.33</ele>
        <time>2014-03-02T14:11:35Z</time>
      </trkpt>
      <trkpt lat="45.52614" lon="6.00259">
        <ele>433.69</ele>
        <time>2014-03-02T14:11:50Z</time>
      </trkpt>
      <trkpt lat="45.52594" lon="6.00265">
        <ele>433.21</ele>
        <time>2014-03-02T14:11:57Z</time>
      </trkpt>
      <trkpt lat="45.52589" lon="6.00267">
        <ele>433.21</ele>
        <time>2014-03-02T14:11:58Z</time>
      </trkpt>
      <trkpt lat="45.52585" lon="6.0027">
        <ele>432.25</ele>
        <time>2014-03-02T14:11:59Z</time>
      </trkpt>
      <trkpt lat="45.52556" lon="6.00284">
        <ele>428.4</ele>
        <time>2014-03-02T14:12:05Z</time>
      </trkpt>
      <trkpt lat="45.52533" lon="6.00294">
        <ele>425.04</ele>
        <time>2014-03-02T14:12:09Z</time>
      </trkpt>
      <trkpt lat="45.52511" lon="6.00303">
        <ele>421.19</ele>
        <time>2014-03-02T14:12:13Z</time>
      </trkpt>
      <trkpt lat="45.52495" lon="6.0031">
        <ele>418.31</ele>
        <time>2014-03-02T14:12:16Z</time>
      </trkpt>
      <trkpt lat="45.5249" lon="6.0031">
        <ele>417.83</ele>
        <time>2014-03-02T14:12:17Z</time>
      </trkpt>
      <trkpt lat="45.52486" lon="6.00307">
        <ele>417.35</ele>
        <time>2014-03-02T14:12:18Z</time>
      </trkpt>
      <trkpt lat="45.52482" lon="6.003">
        <ele>416.39</ele>
        <time>2014-03-02T14:12:19Z</time>
      </trkpt>
      <trkpt lat="45.52479" lon="6.00293">
        <ele>416.39</ele>
        <time>2014-03-02T14:12:20Z</time>
      </trkpt>
      <trkpt lat="45.52475" lon="6.00279">
        <ele>415.91</ele>
        <time>2014-03-02T14:12:22Z</time>
      </trkpt>
      <trkpt lat="45.52472" lon="6.00266">
        <ele>415.91</ele>
        <time>2014-03-02T14:12:24Z</time>
      </trkpt>
      <trkpt lat="45.52469" lon="6.00253">
        <ele>415.43</ele>
        <time>2014-03-02T14:12:26Z</time>
      </trkpt>
      <trkpt lat="45.52467" lon="6.00238">
        <ele>415.43</ele>
        <time>2014-03-02T14:12:28Z</time>
      </trkpt>
      <trkpt lat="45.52466" lon="6.00216">
        <ele>414.47</ele>
        <time>2014-03-02T14:12:31Z</time>
      </trkpt>
      <trkpt lat="45.52465" lon="6.00208">
        <ele>414.47</ele>
        <time>2014-03-02T14:12:32Z</time>
      </trkpt>
      <trkpt lat="45.52465" lon="6.00201">
        <ele>414.95</ele>
        <time>2014-03-02T14:12:33Z</time>
      </trkpt>
      <trkpt lat="45.52465" lon="6.00194">
        <ele>414.95</ele>
        <time>2014-03-02T14:12:34Z</time>
      </trkpt>
      <trkpt lat="45.52465" lon="6.00187">
        <ele>414.95</ele>
        <time>2014-03-02T14:12:35Z</time>
      </trkpt>
      <trkpt lat="45.52464" lon="6.0018">
        <ele>414.95</ele>
        <time>2014-03-02T14:12:36Z</time>
      </trkpt>
      <trkpt lat="45.52464" lon="6.00174">
        <ele>414.95</ele>
        <time>2014-03-02T14:12:37Z</time>
      </trkpt>
      <trkpt lat="45.52464" lon="6.00168">
        <ele>414.47</ele>
        <time>2014-03-02T14:12:38Z</time>
      </trkpt>
      <trkpt lat="45.52464" lon="6.00162">
        <ele>414.47</ele>
        <time>2014-03-02T14:12:39Z</time>
      </trkpt>
      <trkpt lat="45.52463" lon="6.00156">
        <ele>413.98</ele>
        <time>2014-03-02T14:12:40Z</time>
      </trkpt>
      <trkpt lat="45.52462" lon="6.0015">
        <ele>413.98</ele>
        <time>2014-03-02T14:12:41Z</time>
      </trkpt>
      <trkpt lat="45.5246" lon="6.00139">
        <ele>413.5</ele>
        <time>2014-03-02T14:12:43Z</time>
      </trkpt>
      <trkpt lat="45.52446" lon="6.00084">
        <ele>410.14</ele>
        <time>2014-03-02T14:12:52Z</time>
      </trkpt>
      <trkpt lat="45.52444" lon="6.00071">
        <ele>409.66</ele>
        <time>2014-03-02T14:12:54Z</time>
      </trkpt>
      <trkpt lat="45.52443" lon="6.00065">
        <ele>408.7</ele>
        <time>2014-03-02T14:12:55Z</time>
      </trkpt>
      <trkpt lat="45.52438" lon="6.00026">
        <ele>404.85</ele>
        <time>2014-03-02T14:13:01Z</time>
      </trkpt>
      <trkpt lat="45.52438" lon="6.00021">
        <ele>404.37</ele>
        <time>2014-03-02T14:13:02Z</time>
      </trkpt>
      <trkpt lat="45.52438" lon="6.00015">
        <ele>403.41</ele>
        <time>2014-03-02T14:13:03Z</time>
      </trkpt>
      <trkpt lat="45.52439" lon="6.0001">
        <ele>402.93</ele>
        <time>2014-03-02T14:13:04Z</time>
      </trkpt>
      <trkpt lat="45.5244" lon="6.00004">
        <ele>402.93</ele>
        <time>2014-03-02T14:13:05Z</time>
      </trkpt>
      <trkpt lat="45.52443" lon="5.99991">
        <ele>401.01</ele>
        <time>2014-03-02T14:13:07Z</time>
      </trkpt>
      <trkpt lat="45.52446" lon="5.99982">
        <ele>400.05</ele>
        <time>2014-03-02T14:13:09Z</time>
      </trkpt>
      <trkpt lat="45.52444" lon="5.99978">
        <ele>399.57</ele>
        <time>2014-03-02T14:13:10Z</time>
      </trkpt>
      <trkpt lat="45.52441" lon="5.99976">
        <ele>399.57</ele>
        <time>2014-03-02T14:13:11Z</time>
      </trkpt>
      <trkpt lat="45.52437" lon="5.99977">
        <ele>398.6</ele>
        <time>2014-03-02T14:13:12Z</time>
      </trkpt>
      <trkpt lat="45.52433" lon="5.9998">
        <ele>398.12</ele>
        <time>2014-03-02T14:13:13Z</time>
      </trkpt>
      <trkpt lat="45.5243" lon="5.99984">
        <ele>397.64</ele>
        <time>2014-03-02T14:13:14Z</time>
      </trkpt>
      <trkpt lat="45.52427" lon="5.99989">
        <ele>397.16</ele>
        <time>2014-03-02T14:13:15Z</time>
      </trkpt>
      <trkpt lat="45.5242" lon="5.99998">
        <ele>395.72</ele>
        <time>2014-03-02T14:13:17Z</time>
      </trkpt>
      <trkpt lat="45.52413" lon="5.99987">
        <ele>392.36</ele>
        <time>2014-03-02T14:13:22Z</time>
      </trkpt>
      <trkpt lat="45.52415" lon="5.99981">
        <ele>391.87</ele>
        <time>2014-03-02T14:13:23Z</time>
      </trkpt>
      <trkpt lat="45.52418" lon="5.99975">
        <ele>391.39</ele>
        <time>2014-03-02T14:13:24Z</time>
      </trkpt>
      <trkpt lat="45.52421" lon="5.99969">
        <ele>391.39</ele>
        <time>2014-03-02T14:13:25Z</time>
      </trkpt>
      <trkpt lat="45.52426" lon="5.99966">
        <ele>390.91</ele>
        <time>2014-03-02T14:13:26Z</time>
      </trkpt>
      <trkpt lat="45.5243" lon="5.99963">
        <ele>389.95</ele>
        <time>2014-03-02T14:13:27Z</time>
      </trkpt>
      <trkpt lat="45.52433" lon="5.9996">
        <ele>389.47</ele>
        <time>2014-03-02T14:13:28Z</time>
      </trkpt>
      <trkpt lat="45.52433" lon="5.99958">
        <ele>389.47</ele>
        <time>2014-03-02T14:13:29Z</time>
      </trkpt>
      <trkpt lat="45.52429" lon="5.99953">
        <ele>388.03</ele>
        <time>2014-03-02T14:13:31Z</time>
      </trkpt>
      <trkpt lat="45.52424" lon="5.99953">
        <ele>387.55</ele>
        <time>2014-03-02T14:13:32Z</time>
      </trkpt>
      <trkpt lat="45.5242" lon="5.99953">
        <ele>387.07</ele>
        <time>2014-03-02T14:13:33Z</time>
      </trkpt>
      <trkpt lat="45.52415" lon="5.99953">
        <ele>386.11</ele>
        <time>2014-03-02T14:13:34Z</time>
      </trkpt>
      <trkpt lat="45.52409" lon="5.99952">
        <ele>385.15</ele>
        <time>2014-03-02T14:13:35Z</time>
      </trkpt>
      <trkpt lat="45.52404" lon="5.99951">
        <ele>384.18</ele>
        <time>2014-03-02T14:13:36Z</time>
      </trkpt>
      <trkpt lat="45.52399" lon="5.99952">
        <ele>383.7</ele>
        <time>2014-03-02T14:13:37Z</time>
      </trkpt>
      <trkpt lat="45.52396" lon="5.99954">
        <ele>383.22</ele>
        <time>2014-03-02T14:13:38Z</time>
      </trkpt>
      <trkpt lat="45.52392" lon="5.99956">
        <ele>383.22</ele>
        <time>2014-03-02T14:13:39Z</time>
      </trkpt>
      <trkpt lat="45.5239" lon="5.99957">
        <ele>382.74</ele>
        <time>2014-03-02T14:13:40Z</time>
      </trkpt>
      <trkpt lat="45.52389" lon="5.99943">
        <ele>381.3</ele>
        <time>2014-03-02T14:13:44Z</time>
      </trkpt>
      <trkpt lat="45.52392" lon="5.99938">
        <ele>379.86</ele>
        <time>2014-03-02T14:13:45Z</time>
      </trkpt>
      <trkpt lat="45.52395" lon="5.99932">
        <ele>379.38</ele>
        <time>2014-03-02T14:13:46Z</time>
      </trkpt>
      <trkpt lat="45.52403" lon="5.99921">
        <ele>377.45</ele>
        <time>2014-03-02T14:13:48Z</time>
      </trkpt>
      <trkpt lat="45.52408" lon="5.99917">
        <ele>376.49</ele>
        <time>2014-03-02T14:13:49Z</time>
      </trkpt>
      <trkpt lat="45.52412" lon="5.99915">
        <ele>376.01</ele>
        <time>2014-03-02T14:13:50Z</time>
      </trkpt>
      <trkpt lat="45.52415" lon="5.99913">
        <ele>375.53</ele>
        <time>2014-03-02T14:13:51Z</time>
      </trkpt>
      <trkpt lat="45.52417" lon="5.99911">
        <ele>374.57</ele>
        <time>2014-03-02T14:13:52Z</time>
      </trkpt>
      <trkpt lat="45.52417" lon="5.99907">
        <ele>373.61</ele>
        <time>2014-03-02T14:13:53Z</time>
      </trkpt>
      <trkpt lat="45.52415" lon="5.99904">
        <ele>374.09</ele>
        <time>2014-03-02T14:13:54Z</time>
      </trkpt>
      <trkpt lat="45.52411" lon="5.99901">
        <ele>372.65</ele>
        <time>2014-03-02T14:13:55Z</time>
      </trkpt>
      <trkpt lat="45.52406" lon="5.99898">
        <ele>372.17</ele>
        <time>2014-03-02T14:13:56Z</time>
      </trkpt>
      <trkpt lat="45.52401" lon="5.99897">
        <ele>371.21</ele>
        <time>2014-03-02T14:13:57Z</time>
      </trkpt>
      <trkpt lat="45.52396" lon="5.99896">
        <ele>370.73</ele>
        <time>2014-03-02T14:13:58Z</time>
      </trkpt>
      <trkpt lat="45.5239" lon="5.99898">
        <ele>369.28</ele>
        <time>2014-03-02T14:13:59Z</time>
      </trkpt>
      <trkpt lat="45.52386" lon="5.99901">
        <ele>368.8</ele>
        <time>2014-03-02T14:14:00Z</time>
      </trkpt>
      <trkpt lat="45.52382" lon="5.99905">
        <ele>368.32</ele>
        <time>2014-03-02T14:14:01Z</time>
      </trkpt>
      <trkpt lat="45.52379" lon="5.99909">
        <ele>368.32</ele>
        <time>2014-03-02T14:14:02Z</time>
      </trkpt>
      <trkpt lat="45.52376" lon="5.99909">
        <ele>367.84</ele>
        <time>2014-03-02T14:14:03Z</time>
      </trkpt>
      <trkpt lat="45.52374" lon="5.99907">
        <ele>367.36</ele>
        <time>2014-03-02T14:14:04Z</time>
      </trkpt>
      <trkpt lat="45.52373" lon="5.99903">
        <ele>366.88</ele>
        <time>2014-03-02T14:14:05Z</time>
      </trkpt>
      <trkpt lat="45.52377" lon="5.99895">
        <ele>365.92</ele>
        <time>2014-03-02T14:14:07Z</time>
      </trkpt>
      <trkpt lat="45.52383" lon="5.99886">
        <ele>364</ele>
        <time>2014-03-02T14:14:09Z</time>
      </trkpt>
      <trkpt lat="45.52387" lon="5.9988">
        <ele>364</ele>
        <time>2014-03-02T14:14:10Z</time>
      </trkpt>
      <trkpt lat="45.52391" lon="5.99875">
        <ele>363.52</ele>
        <time>2014-03-02T14:14:11Z</time>
      </trkpt>
      <trkpt lat="45.52408" lon="5.99855">
        <ele>359.67</ele>
        <time>2014-03-02T14:14:15Z</time>
      </trkpt>
      <trkpt lat="45.52406" lon="5.99839">
        <ele>357.75</ele>
        <time>2014-03-02T14:14:19Z</time>
      </trkpt>
      <trkpt lat="45.52399" lon="5.9984">
        <ele>356.79</ele>
        <time>2014-03-02T14:14:21Z</time>
      </trkpt>
      <trkpt lat="45.52395" lon="5.99843">
        <ele>355.83</ele>
        <time>2014-03-02T14:14:22Z</time>
      </trkpt>
      <trkpt lat="45.5239" lon="5.99847">
        <ele>355.34</ele>
        <time>2014-03-02T14:14:23Z</time>
      </trkpt>
      <trkpt lat="45.52385" lon="5.99848">
        <ele>354.86</ele>
        <time>2014-03-02T14:14:24Z</time>
      </trkpt>
      <trkpt lat="45.5238" lon="5.99847">
        <ele>353.9</ele>
        <time>2014-03-02T14:14:25Z</time>
      </trkpt>
      <trkpt lat="45.52374" lon="5.99839">
        <ele>352.46</ele>
        <time>2014-03-02T14:14:27Z</time>
      </trkpt>
      <trkpt lat="45.52373" lon="5.99833">
        <ele>351.98</ele>
        <time>2014-03-02T14:14:28Z</time>
      </trkpt>
      <trkpt lat="45.52375" lon="5.99827">
        <ele>351.02</ele>
        <time>2014-03-02T14:14:29Z</time>
      </trkpt>
      <trkpt lat="45.52379" lon="5.99822">
        <ele>350.54</ele>
        <time>2014-03-02T14:14:30Z</time>
      </trkpt>
      <trkpt lat="45.52383" lon="5.99817">
        <ele>349.58</ele>
        <time>2014-03-02T14:14:31Z</time>
      </trkpt>
      <trkpt lat="45.52388" lon="5.99812">
        <ele>349.58</ele>
        <time>2014-03-02T14:14:32Z</time>
      </trkpt>
      <trkpt lat="45.52392" lon="5.99806">
        <ele>349.1</ele>
        <time>2014-03-02T14:14:33Z</time>
      </trkpt>
      <trkpt lat="45.52394" lon="5.998">
        <ele>348.13</ele>
        <time>2014-03-02T14:14:34Z</time>
      </trkpt>
      <trkpt lat="45.52393" lon="5.99793">
        <ele>347.65</ele>
        <time>2014-03-02T14:14:35Z</time>
      </trkpt>
      <trkpt lat="45.5239" lon="5.99789">
        <ele>346.69</ele>
        <time>2014-03-02T14:14:36Z</time>
      </trkpt>
      <trkpt lat="45.52385" lon="5.99787">
        <ele>346.21</ele>
        <time>2014-03-02T14:14:37Z</time>
      </trkpt>
      <trkpt lat="45.52379" lon="5.99788">
        <ele>345.25</ele>
        <time>2014-03-02T14:14:38Z</time>
      </trkpt>
      <trkpt lat="45.52373" lon="5.99791">
        <ele>344.29</ele>
        <time>2014-03-02T14:14:39Z</time>
      </trkpt>
      <trkpt lat="45.52367" lon="5.99793">
        <ele>343.33</ele>
        <time>2014-03-02T14:14:40Z</time>
      </trkpt>
      <trkpt lat="45.52363" lon="5.99796">
        <ele>343.33</ele>
        <time>2014-03-02T14:14:41Z</time>
      </trkpt>
      <trkpt lat="45.52359" lon="5.99801">
        <ele>342.85</ele>
        <time>2014-03-02T14:14:42Z</time>
      </trkpt>
      <trkpt lat="45.52356" lon="5.99806">
        <ele>342.85</ele>
        <time>2014-03-02T14:14:43Z</time>
      </trkpt>
      <trkpt lat="45.52354" lon="5.99812">
        <ele>343.33</ele>
        <time>2014-03-02T14:14:44Z</time>
      </trkpt>
      <trkpt lat="45.52352" lon="5.99818">
        <ele>343.33</ele>
        <time>2014-03-02T14:14:45Z</time>
      </trkpt>
      <trkpt lat="45.5235" lon="5.99823">
        <ele>343.81</ele>
        <time>2014-03-02T14:14:46Z</time>
      </trkpt>
      <trkpt lat="45.52348" lon="5.99828">
        <ele>343.81</ele>
        <time>2014-03-02T14:14:47Z</time>
      </trkpt>
      <trkpt lat="45.5234" lon="5.99845">
        <ele>344.77</ele>
        <time>2014-03-02T14:14:51Z</time>
      </trkpt>
      <trkpt lat="45.52317" lon="5.99898">
        <ele>347.17</ele>
        <time>2014-03-02T14:15:03Z</time>
      </trkpt>
      <trkpt lat="45.52282" lon="5.99965">
        <ele>348.13</ele>
        <time>2014-03-02T14:15:18Z</time>
      </trkpt>
      <trkpt lat="45.52254" lon="6.00034">
        <ele>349.1</ele>
        <time>2014-03-02T14:15:32Z</time>
      </trkpt>
      <trkpt lat="45.52252" lon="6.0004">
        <ele>350.06</ele>
        <time>2014-03-02T14:15:33Z</time>
      </trkpt>
      <trkpt lat="45.52249" lon="6.00045">
        <ele>350.06</ele>
        <time>2014-03-02T14:15:34Z</time>
      </trkpt>
      <trkpt lat="45.5224" lon="6.00061">
        <ele>349.58</ele>
        <time>2014-03-02T14:15:37Z</time>
      </trkpt>
      <trkpt lat="45.52219" lon="6.00089">
        <ele>349.58</ele>
        <time>2014-03-02T14:15:43Z</time>
      </trkpt>
      <trkpt lat="45.52171" lon="6.00161">
        <ele>351.5</ele>
        <time>2014-03-02T14:15:58Z</time>
      </trkpt>
      <trkpt lat="45.52164" lon="6.0017">
        <ele>352.46</ele>
        <time>2014-03-02T14:16:00Z</time>
      </trkpt>
      <trkpt lat="45.52161" lon="6.00175">
        <ele>352.46</ele>
        <time>2014-03-02T14:16:01Z</time>
      </trkpt>
      <trkpt lat="45.52129" lon="6.00239">
        <ele>351.98</ele>
        <time>2014-03-02T14:16:13Z</time>
      </trkpt>
      <trkpt lat="45.52102" lon="6.00314">
        <ele>352.94</ele>
        <time>2014-03-02T14:16:25Z</time>
      </trkpt>
      <trkpt lat="45.52103" lon="6.0032">
        <ele>353.9</ele>
        <time>2014-03-02T14:16:26Z</time>
      </trkpt>
      <trkpt lat="45.52103" lon="6.00326">
        <ele>353.9</ele>
        <time>2014-03-02T14:16:27Z</time>
      </trkpt>
      <trkpt lat="45.52105" lon="6.00331">
        <ele>354.38</ele>
        <time>2014-03-02T14:16:28Z</time>
      </trkpt>
      <trkpt lat="45.52107" lon="6.00336">
        <ele>354.38</ele>
        <time>2014-03-02T14:16:29Z</time>
      </trkpt>
      <trkpt lat="45.52109" lon="6.00341">
        <ele>354.86</ele>
        <time>2014-03-02T14:16:30Z</time>
      </trkpt>
      <trkpt lat="45.52121" lon="6.00392">
        <ele>356.79</ele>
        <time>2014-03-02T14:16:42Z</time>
      </trkpt>
      <trkpt lat="45.52105" lon="6.00424">
        <ele>357.75</ele>
        <time>2014-03-02T14:16:52Z</time>
      </trkpt>
      <trkpt lat="45.52101" lon="6.00423">
        <ele>357.27</ele>
        <time>2014-03-02T14:16:53Z</time>
      </trkpt>
      <trkpt lat="45.52097" lon="6.0042">
        <ele>355.83</ele>
        <time>2014-03-02T14:16:54Z</time>
      </trkpt>
      <trkpt lat="45.52088" lon="6.00411">
        <ele>354.38</ele>
        <time>2014-03-02T14:16:56Z</time>
      </trkpt>
      <trkpt lat="45.52084" lon="6.00408">
        <ele>354.38</ele>
        <time>2014-03-02T14:16:57Z</time>
      </trkpt>
      <trkpt lat="45.52079" lon="6.00405">
        <ele>353.42</ele>
        <time>2014-03-02T14:16:58Z</time>
      </trkpt>
      <trkpt lat="45.52075" lon="6.004">
        <ele>352.46</ele>
        <time>2014-03-02T14:16:59Z</time>
      </trkpt>
      <trkpt lat="45.52071" lon="6.00395">
        <ele>351.98</ele>
        <time>2014-03-02T14:17:00Z</time>
      </trkpt>
      <trkpt lat="45.52065" lon="6.00386">
        <ele>349.58</ele>
        <time>2014-03-02T14:17:02Z</time>
      </trkpt>
      <trkpt lat="45.52063" lon="6.0038">
        <ele>348.13</ele>
        <time>2014-03-02T14:17:03Z</time>
      </trkpt>
      <trkpt lat="45.52062" lon="6.00373">
        <ele>348.13</ele>
        <time>2014-03-02T14:17:04Z</time>
      </trkpt>
      <trkpt lat="45.52062" lon="6.00366">
        <ele>346.69</ele>
        <time>2014-03-02T14:17:05Z</time>
      </trkpt>
      <trkpt lat="45.52063" lon="6.00357">
        <ele>345.73</ele>
        <time>2014-03-02T14:17:06Z</time>
      </trkpt>
      <trkpt lat="45.52063" lon="6.00348">
        <ele>345.73</ele>
        <time>2014-03-02T14:17:07Z</time>
      </trkpt>
      <trkpt lat="45.52066" lon="6.00285">
        <ele>341.89</ele>
        <time>2014-03-02T14:17:14Z</time>
      </trkpt>
      <trkpt lat="45.52066" lon="6.00276">
        <ele>341.41</ele>
        <time>2014-03-02T14:17:16Z</time>
      </trkpt>
      <trkpt lat="45.52064" lon="6.00274">
        <ele>340.44</ele>
        <time>2014-03-02T14:17:17Z</time>
      </trkpt>
      <trkpt lat="45.52062" lon="6.00276">
        <ele>339.48</ele>
        <time>2014-03-02T14:17:18Z</time>
      </trkpt>
      <trkpt lat="45.52059" lon="6.00279">
        <ele>339.48</ele>
        <time>2014-03-02T14:17:19Z</time>
      </trkpt>
      <trkpt lat="45.52056" lon="6.00283">
        <ele>339</ele>
        <time>2014-03-02T14:17:20Z</time>
      </trkpt>
      <trkpt lat="45.52053" lon="6.00287">
        <ele>338.52</ele>
        <time>2014-03-02T14:17:21Z</time>
      </trkpt>
      <trkpt lat="45.52046" lon="6.00297">
        <ele>337.56</ele>
        <time>2014-03-02T14:17:23Z</time>
      </trkpt>
      <trkpt lat="45.52026" lon="6.0033">
        <ele>335.16</ele>
        <time>2014-03-02T14:17:30Z</time>
      </trkpt>
      <trkpt lat="45.52018" lon="6.00341">
        <ele>332.75</ele>
        <time>2014-03-02T14:17:33Z</time>
      </trkpt>
      <trkpt lat="45.52014" lon="6.00344">
        <ele>331.79</ele>
        <time>2014-03-02T14:17:34Z</time>
      </trkpt>
      <trkpt lat="45.5201" lon="6.00347">
        <ele>331.31</ele>
        <time>2014-03-02T14:17:35Z</time>
      </trkpt>
      <trkpt lat="45.52004" lon="6.0035">
        <ele>329.87</ele>
        <time>2014-03-02T14:17:38Z</time>
      </trkpt>
      <trkpt lat="45.51989" lon="6.0036">
        <ele>326.5</ele>
        <time>2014-03-02T14:17:43Z</time>
      </trkpt>
      <trkpt lat="45.51973" lon="6.00371">
        <ele>323.62</ele>
        <time>2014-03-02T14:17:47Z</time>
      </trkpt>
      <trkpt lat="45.5197" lon="6.00373">
        <ele>323.14</ele>
        <time>2014-03-02T14:17:48Z</time>
      </trkpt>
      <trkpt lat="45.51954" lon="6.00375">
        <ele>318.81</ele>
        <time>2014-03-02T14:17:53Z</time>
      </trkpt>
      <trkpt lat="45.51952" lon="6.00371">
        <ele>318.33</ele>
        <time>2014-03-02T14:17:54Z</time>
      </trkpt>
      <trkpt lat="45.51952" lon="6.00365">
        <ele>316.89</ele>
        <time>2014-03-02T14:17:55Z</time>
      </trkpt>
      <trkpt lat="45.51953" lon="6.00359">
        <ele>316.41</ele>
        <time>2014-03-02T14:17:56Z</time>
      </trkpt>
      <trkpt lat="45.51956" lon="6.00353">
        <ele>315.45</ele>
        <time>2014-03-02T14:17:57Z</time>
      </trkpt>
      <trkpt lat="45.51959" lon="6.00348">
        <ele>315.45</ele>
        <time>2014-03-02T14:17:58Z</time>
      </trkpt>
      <trkpt lat="45.51982" lon="6.00304">
        <ele>314.97</ele>
        <time>2014-03-02T14:18:09Z</time>
      </trkpt>
      <trkpt lat="45.51983" lon="6.00302">
        <ele>314.97</ele>
        <time>2014-03-02T14:18:10Z</time>
      </trkpt>
      <trkpt lat="45.51983" lon="6.003">
        <ele>315.45</ele>
        <time>2014-03-02T14:18:11Z</time>
      </trkpt>
      <trkpt lat="45.51981" lon="6.00298">
        <ele>314.97</ele>
        <time>2014-03-02T14:18:12Z</time>
      </trkpt>
      <trkpt lat="45.51968" lon="6.00292">
        <ele>312.09</ele>
        <time>2014-03-02T14:18:15Z</time>
      </trkpt>
      <trkpt lat="45.51963" lon="6.00288">
        <ele>311.12</ele>
        <time>2014-03-02T14:18:16Z</time>
      </trkpt>
      <trkpt lat="45.51958" lon="6.00285">
        <ele>310.16</ele>
        <time>2014-03-02T14:18:17Z</time>
      </trkpt>
      <trkpt lat="45.51952" lon="6.00282">
        <ele>309.2</ele>
        <time>2014-03-02T14:18:18Z</time>
      </trkpt>
      <trkpt lat="45.51942" lon="6.00276">
        <ele>307.76</ele>
        <time>2014-03-02T14:18:20Z</time>
      </trkpt>
      <trkpt lat="45.51932" lon="6.00271">
        <ele>306.32</ele>
        <time>2014-03-02T14:18:22Z</time>
      </trkpt>
      <trkpt lat="45.51922" lon="6.00267">
        <ele>306.32</ele>
        <time>2014-03-02T14:18:24Z</time>
      </trkpt>
      <trkpt lat="45.51917" lon="6.00264">
        <ele>306.32</ele>
        <time>2014-03-02T14:18:25Z</time>
      </trkpt>
      <trkpt lat="45.51913" lon="6.00259">
        <ele>305.84</ele>
        <time>2014-03-02T14:18:26Z</time>
      </trkpt>
      <trkpt lat="45.5191" lon="6.00253">
        <ele>305.36</ele>
        <time>2014-03-02T14:18:27Z</time>
      </trkpt>
      <trkpt lat="45.51908" lon="6.00245">
        <ele>305.36</ele>
        <time>2014-03-02T14:18:28Z</time>
      </trkpt>
      <trkpt lat="45.51906" lon="6.00239">
        <ele>305.36</ele>
        <time>2014-03-02T14:18:29Z</time>
      </trkpt>
      <trkpt lat="45.51905" lon="6.00232">
        <ele>305.36</ele>
        <time>2014-03-02T14:18:30Z</time>
      </trkpt>
      <trkpt lat="45.51904" lon="6.00225">
        <ele>304.88</ele>
        <time>2014-03-02T14:18:31Z</time>
      </trkpt>
      <trkpt lat="45.51903" lon="6.00212">
        <ele>304.88</ele>
        <time>2014-03-02T14:18:33Z</time>
      </trkpt>
      <trkpt lat="45.51902" lon="6.00206">
        <ele>304.88</ele>
        <time>2014-03-02T14:18:34Z</time>
      </trkpt>
      <trkpt lat="45.51864" lon="6.00123">
        <ele>302.47</ele>
        <time>2014-03-02T14:18:48Z</time>
      </trkpt>
      <trkpt lat="45.51846" lon="6.00097">
        <ele>302.47</ele>
        <time>2014-03-02T14:18:58Z</time>
      </trkpt>
      <trkpt lat="45.51838" lon="6.00085">
        <ele>302.95</ele>
        <time>2014-03-02T14:19:25Z</time>
      </trkpt>
      <trkpt lat="45.5183" lon="6.0007">
        <ele>301.99</ele>
        <time>2014-03-02T14:19:29Z</time>
      </trkpt>
      <trkpt lat="45.51826" lon="6.00069">
        <ele>301.99</ele>
        <time>2014-03-02T14:19:30Z</time>
      </trkpt>
      <trkpt lat="45.51823" lon="6.00072">
        <ele>302.47</ele>
        <time>2014-03-02T14:19:31Z</time>
      </trkpt>
      <trkpt lat="45.5182" lon="6.00076">
        <ele>302.47</ele>
        <time>2014-03-02T14:19:32Z</time>
      </trkpt>
      <trkpt lat="45.51817" lon="6.00081">
        <ele>301.99</ele>
        <time>2014-03-02T14:19:33Z</time>
      </trkpt>
      <trkpt lat="45.51814" lon="6.00087">
        <ele>302.47</ele>
        <time>2014-03-02T14:19:34Z</time>
      </trkpt>
      <trkpt lat="45.5181" lon="6.00092">
        <ele>301.99</ele>
        <time>2014-03-02T14:19:35Z</time>
      </trkpt>
      <trkpt lat="45.51806" lon="6.00095">
        <ele>301.99</ele>
        <time>2014-03-02T14:19:36Z</time>
      </trkpt>
      <trkpt lat="45.51802" lon="6.00094">
        <ele>301.99</ele>
        <time>2014-03-02T14:19:37Z</time>
      </trkpt>
      <trkpt lat="45.51798" lon="6.00091">
        <ele>301.03</ele>
        <time>2014-03-02T14:19:38Z</time>
      </trkpt>
      <trkpt lat="45.51794" lon="6.00086">
        <ele>301.03</ele>
        <time>2014-03-02T14:19:39Z</time>
      </trkpt>
      <trkpt lat="45.51791" lon="6.00081">
        <ele>300.55</ele>
        <time>2014-03-02T14:19:40Z</time>
      </trkpt>
      <trkpt lat="45.51733" lon="5.99993">
        <ele>301.51</ele>
        <time>2014-03-02T14:19:56Z</time>
      </trkpt>
      <trkpt lat="45.5172" lon="5.99972">
        <ele>301.03</ele>
        <time>2014-03-02T14:20:00Z</time>
      </trkpt>
      <trkpt lat="45.51718" lon="5.99965">
        <ele>301.51</ele>
        <time>2014-03-02T14:20:01Z</time>
      </trkpt>
      <trkpt lat="45.51718" lon="5.99959">
        <ele>301.51</ele>
        <time>2014-03-02T14:20:02Z</time>
      </trkpt>
      <trkpt lat="45.5172" lon="5.99952">
        <ele>301.99</ele>
        <time>2014-03-02T14:20:03Z</time>
      </trkpt>
      <trkpt lat="45.51721" lon="5.99946">
        <ele>301.51</ele>
        <time>2014-03-02T14:20:04Z</time>
      </trkpt>
      <trkpt lat="45.51728" lon="5.99922">
        <ele>301.51</ele>
        <time>2014-03-02T14:20:08Z</time>
      </trkpt>
      <trkpt lat="45.51732" lon="5.99892">
        <ele>301.99</ele>
        <time>2014-03-02T14:20:13Z</time>
      </trkpt>
      <trkpt lat="45.51735" lon="5.99888">
        <ele>301.99</ele>
        <time>2014-03-02T14:20:14Z</time>
      </trkpt>
      <trkpt lat="45.51738" lon="5.99883">
        <ele>301.51</ele>
        <time>2014-03-02T14:20:15Z</time>
      </trkpt>
      <trkpt lat="45.51744" lon="5.99873">
        <ele>301.51</ele>
        <time>2014-03-02T14:20:17Z</time>
      </trkpt>
      <trkpt lat="45.51803" lon="5.99792">
        <ele>301.03</ele>
        <time>2014-03-02T14:20:34Z</time>
      </trkpt>
      <trkpt lat="45.51819" lon="5.99768">
        <ele>301.51</ele>
        <time>2014-03-02T14:20:39Z</time>
      </trkpt>
      <trkpt lat="45.51822" lon="5.99763">
        <ele>301.03</ele>
        <time>2014-03-02T14:20:40Z</time>
      </trkpt>
      <trkpt lat="45.51836" lon="5.99745">
        <ele>301.03</ele>
        <time>2014-03-02T14:20:44Z</time>
      </trkpt>
      <trkpt lat="45.5187" lon="5.99696">
        <ele>301.51</ele>
        <time>2014-03-02T14:20:55Z</time>
      </trkpt>
      <trkpt lat="45.51872" lon="5.99691">
        <ele>301.99</ele>
        <time>2014-03-02T14:20:56Z</time>
      </trkpt>
      <trkpt lat="45.51873" lon="5.99686">
        <ele>301.99</ele>
        <time>2014-03-02T14:20:57Z</time>
      </trkpt>
      <trkpt lat="45.51874" lon="5.99681">
        <ele>301.51</ele>
        <time>2014-03-02T14:20:58Z</time>
      </trkpt>
      <trkpt lat="45.51872" lon="5.99677">
        <ele>301.99</ele>
        <time>2014-03-02T14:20:59Z</time>
      </trkpt>
      <trkpt lat="45.51868" lon="5.99674">
        <ele>301.51</ele>
        <time>2014-03-02T14:21:00Z</time>
      </trkpt>
      <trkpt lat="45.51866" lon="5.99671">
        <ele>301.99</ele>
        <time>2014-03-02T14:21:01Z</time>
      </trkpt>
      <trkpt lat="45.51863" lon="5.99667">
        <ele>301.51</ele>
        <time>2014-03-02T14:21:02Z</time>
      </trkpt>
      <trkpt lat="45.5186" lon="5.99663">
        <ele>301.99</ele>
        <time>2014-03-02T14:21:03Z</time>
      </trkpt>
      <trkpt lat="45.51857" lon="5.99659">
        <ele>301.99</ele>
        <time>2014-03-02T14:21:04Z</time>
      </trkpt>
      <trkpt lat="45.51854" lon="5.99655">
        <ele>301.99</ele>
        <time>2014-03-02T14:21:05Z</time>
      </trkpt>
      <trkpt lat="45.51817" lon="5.99592">
        <ele>301.03</ele>
        <time>2014-03-02T14:21:19Z</time>
      </trkpt>
      <trkpt lat="45.51812" lon="5.99583">
        <ele>301.51</ele>
        <time>2014-03-02T14:21:21Z</time>
      </trkpt>
      <trkpt lat="45.5181" lon="5.99577">
        <ele>301.99</ele>
        <time>2014-03-02T14:21:22Z</time>
      </trkpt>
      <trkpt lat="45.5181" lon="5.99571">
        <ele>301.99</ele>
        <time>2014-03-02T14:21:23Z</time>
      </trkpt>
      <trkpt lat="45.51811" lon="5.99566">
        <ele>301.99</ele>
        <time>2014-03-02T14:21:24Z</time>
      </trkpt>
      <trkpt lat="45.51814" lon="5.99562">
        <ele>301.99</ele>
        <time>2014-03-02T14:21:25Z</time>
      </trkpt>
      <trkpt lat="45.51816" lon="5.99557">
        <ele>301.99</ele>
        <time>2014-03-02T14:21:26Z</time>
      </trkpt>
      <trkpt lat="45.51826" lon="5.99516">
        <ele>302.47</ele>
        <time>2014-03-02T14:21:35Z</time>
      </trkpt>
      <trkpt lat="45.51857" lon="5.9947">
        <ele>302.47</ele>
        <time>2014-03-02T14:21:46Z</time>
      </trkpt>
      <trkpt lat="45.51877" lon="5.99437">
        <ele>301.99</ele>
        <time>2014-03-02T14:21:53Z</time>
      </trkpt>
      <trkpt lat="45.51904" lon="5.99388">
        <ele>302.47</ele>
        <time>2014-03-02T14:22:03Z</time>
      </trkpt>
      <trkpt lat="45.51933" lon="5.99345">
        <ele>301.99</ele>
        <time>2014-03-02T14:22:13Z</time>
      </trkpt>
      <trkpt lat="45.51975" lon="5.99274">
        <ele>302.95</ele>
        <time>2014-03-02T14:22:29Z</time>
      </trkpt>
      <trkpt lat="45.5195" lon="5.99233">
        <ele>302.47</ele>
        <time>2014-03-02T14:22:39Z</time>
      </trkpt>
      <trkpt lat="45.51904" lon="5.99176">
        <ele>305.84</ele>
        <time>2014-03-02T14:22:54Z</time>
      </trkpt>
      <trkpt lat="45.5186" lon="5.9912">
        <ele>306.32</ele>
        <time>2014-03-02T14:23:09Z</time>
      </trkpt>
      <trkpt lat="45.51809" lon="5.99089">
        <ele>309.68</ele>
        <time>2014-03-02T14:23:25Z</time>
      </trkpt>
      <trkpt lat="45.51758" lon="5.99059">
        <ele>312.57</ele>
        <time>2014-03-02T14:23:42Z</time>
      </trkpt>
      <trkpt lat="45.51719" lon="5.99019">
        <ele>314.97</ele>
        <time>2014-03-02T14:23:57Z</time>
      </trkpt>
      <trkpt lat="45.5167" lon="5.98958">
        <ele>317.37</ele>
        <time>2014-03-02T14:24:16Z</time>
      </trkpt>
      <trkpt lat="45.51639" lon="5.98894">
        <ele>319.78</ele>
        <time>2014-03-02T14:24:33Z</time>
      </trkpt>
      <trkpt lat="45.5163" lon="5.98835">
        <ele>321.22</ele>
        <time>2014-03-02T14:24:48Z</time>
      </trkpt>
      <trkpt lat="45.51637" lon="5.98767">
        <ele>323.62</ele>
        <time>2014-03-02T14:25:05Z</time>
      </trkpt>
      <trkpt lat="45.51648" lon="5.98732">
        <ele>326.02</ele>
        <time>2014-03-02T14:25:15Z</time>
      </trkpt>
      <trkpt lat="45.51669" lon="5.9869">
        <ele>327.95</ele>
        <time>2014-03-02T14:25:30Z</time>
      </trkpt>
      <trkpt lat="45.51674" lon="5.98682">
        <ele>329.39</ele>
        <time>2014-03-02T14:25:33Z</time>
      </trkpt>
      <trkpt lat="45.51678" lon="5.98643">
        <ele>330.83</ele>
        <time>2014-03-02T14:25:46Z</time>
      </trkpt>
      <trkpt lat="45.51679" lon="5.98637">
        <ele>330.83</ele>
        <time>2014-03-02T14:25:48Z</time>
      </trkpt>
      <trkpt lat="45.51681" lon="5.98635">
        <ele>330.83</ele>
        <time>2014-03-02T14:25:49Z</time>
      </trkpt>
      <trkpt lat="45.51684" lon="5.98633">
        <ele>332.27</ele>
        <time>2014-03-02T14:25:51Z</time>
      </trkpt>
      <trkpt lat="45.51685" lon="5.98632">
        <ele>332.75</ele>
        <time>2014-03-02T14:25:52Z</time>
      </trkpt>
      <trkpt lat="45.51687" lon="5.98631">
        <ele>332.75</ele>
        <time>2014-03-02T14:25:53Z</time>
      </trkpt>
      <trkpt lat="45.51688" lon="5.98629">
        <ele>332.75</ele>
        <time>2014-03-02T14:25:54Z</time>
      </trkpt>
      <trkpt lat="45.5169" lon="5.98628">
        <ele>332.75</ele>
        <time>2014-03-02T14:25:55Z</time>
      </trkpt>
      <trkpt lat="45.51696" lon="5.98618">
        <ele>334.2</ele>
        <time>2014-03-02T14:26:01Z</time>
      </trkpt>
      <trkpt lat="45.51696" lon="5.98617">
        <ele>334.68</ele>
        <time>2014-03-02T14:26:02Z</time>
      </trkpt>
      <trkpt lat="45.51694" lon="5.98617">
        <ele>334.68</ele>
        <time>2014-03-02T14:26:05Z</time>
      </trkpt>
      <trkpt lat="45.51667" lon="5.98633">
        <ele>337.08</ele>
        <time>2014-03-02T14:26:20Z</time>
      </trkpt>
      <trkpt lat="45.51643" lon="5.98643">
        <ele>339</ele>
        <time>2014-03-02T14:26:34Z</time>
      </trkpt>
      <trkpt lat="45.51612" lon="5.98657">
        <ele>340.92</ele>
        <time>2014-03-02T14:26:51Z</time>
      </trkpt>
      <trkpt lat="45.51606" lon="5.98648">
        <ele>342.85</ele>
        <time>2014-03-02T14:26:57Z</time>
      </trkpt>
      <trkpt lat="45.51606" lon="5.98646">
        <ele>342.37</ele>
        <time>2014-03-02T14:26:58Z</time>
      </trkpt>
      <trkpt lat="45.51606" lon="5.98644">
        <ele>342.37</ele>
        <time>2014-03-02T14:26:59Z</time>
      </trkpt>
      <trkpt lat="45.51605" lon="5.98643">
        <ele>342.37</ele>
        <time>2014-03-02T14:27:00Z</time>
      </trkpt>
      <trkpt lat="45.51605" lon="5.9864">
        <ele>342.85</ele>
        <time>2014-03-02T14:27:01Z</time>
      </trkpt>
      <trkpt lat="45.51604" lon="5.98639">
        <ele>342.85</ele>
        <time>2014-03-02T14:27:02Z</time>
      </trkpt>
      <trkpt lat="45.51603" lon="5.98637">
        <ele>342.85</ele>
        <time>2014-03-02T14:27:03Z</time>
      </trkpt>
      <trkpt lat="45.51602" lon="5.98636">
        <ele>343.81</ele>
        <time>2014-03-02T14:27:04Z</time>
      </trkpt>
      <trkpt lat="45.51602" lon="5.98634">
        <ele>343.81</ele>
        <time>2014-03-02T14:27:05Z</time>
      </trkpt>
      <trkpt lat="45.51601" lon="5.98632">
        <ele>344.29</ele>
        <time>2014-03-02T14:27:06Z</time>
      </trkpt>
      <trkpt lat="45.51601" lon="5.98631">
        <ele>344.29</ele>
        <time>2014-03-02T14:27:07Z</time>
      </trkpt>
      <trkpt lat="45.51601" lon="5.98629">
        <ele>344.77</ele>
        <time>2014-03-02T14:27:08Z</time>
      </trkpt>
      <trkpt lat="45.516" lon="5.98627">
        <ele>344.77</ele>
        <time>2014-03-02T14:27:09Z</time>
      </trkpt>
      <trkpt lat="45.516" lon="5.98625">
        <ele>345.25</ele>
        <time>2014-03-02T14:27:10Z</time>
      </trkpt>
      <trkpt lat="45.51599" lon="5.98623">
        <ele>345.73</ele>
        <time>2014-03-02T14:27:11Z</time>
      </trkpt>
      <trkpt lat="45.51586" lon="5.98593">
        <ele>347.65</ele>
        <time>2014-03-02T14:27:27Z</time>
      </trkpt>
      <trkpt lat="45.5157" lon="5.9858">
        <ele>349.1</ele>
        <time>2014-03-02T14:27:39Z</time>
      </trkpt>
      <trkpt lat="45.5155" lon="5.98594">
        <ele>351.02</ele>
        <time>2014-03-02T14:27:53Z</time>
      </trkpt>
      <trkpt lat="45.51538" lon="5.98579">
        <ele>352.94</ele>
        <time>2014-03-02T14:28:03Z</time>
      </trkpt>
      <trkpt lat="45.51512" lon="5.98553">
        <ele>354.38</ele>
        <time>2014-03-02T14:28:20Z</time>
      </trkpt>
      <trkpt lat="45.51479" lon="5.98512">
        <ele>355.34</ele>
        <time>2014-03-02T14:28:36Z</time>
      </trkpt>
      <trkpt lat="45.51473" lon="5.98506">
        <ele>354.86</ele>
        <time>2014-03-02T14:28:41Z</time>
      </trkpt>
      <trkpt lat="45.5146" lon="5.98522">
        <ele>355.34</ele>
        <time>2014-03-02T14:28:49Z</time>
      </trkpt>
      <trkpt lat="45.51421" lon="5.98577">
        <ele>354.38</ele>
        <time>2014-03-02T14:29:05Z</time>
      </trkpt>
      <trkpt lat="45.51401" lon="5.98536">
        <ele>353.42</ele>
        <time>2014-03-02T14:29:13Z</time>
      </trkpt>
      <trkpt lat="45.514" lon="5.98526">
        <ele>353.42</ele>
        <time>2014-03-02T14:29:14Z</time>
      </trkpt>
      <trkpt lat="45.51399" lon="5.98519">
        <ele>352.46</ele>
        <time>2014-03-02T14:29:15Z</time>
      </trkpt>
      <trkpt lat="45.51355" lon="5.98405">
        <ele>351.5</ele>
        <time>2014-03-02T14:29:33Z</time>
      </trkpt>
      <trkpt lat="45.51325" lon="5.98329">
        <ele>351.5</ele>
        <time>2014-03-02T14:29:45Z</time>
      </trkpt>
      <trkpt lat="45.51315" lon="5.98303">
        <ele>351.02</ele>
        <time>2014-03-02T14:29:49Z</time>
      </trkpt>
      <trkpt lat="45.51313" lon="5.98296">
        <ele>351.02</ele>
        <time>2014-03-02T14:29:50Z</time>
      </trkpt>
      <trkpt lat="45.51281" lon="5.98219">
        <ele>347.17</ele>
        <time>2014-03-02T14:30:01Z</time>
      </trkpt>
      <trkpt lat="45.51258" lon="5.98161">
        <ele>342.85</ele>
        <time>2014-03-02T14:30:07Z</time>
      </trkpt>
      <trkpt lat="45.51227" lon="5.98086">
        <ele>343.81</ele>
        <time>2014-03-02T14:30:16Z</time>
      </trkpt>
      <trkpt lat="45.51214" lon="5.9805">
        <ele>343.33</ele>
        <time>2014-03-02T14:30:22Z</time>
      </trkpt>
      <trkpt lat="45.512" lon="5.98008">
        <ele>343.33</ele>
        <time>2014-03-02T14:30:31Z</time>
      </trkpt>
      <trkpt lat="45.512" lon="5.98001">
        <ele>342.85</ele>
        <time>2014-03-02T14:30:32Z</time>
      </trkpt>
      <trkpt lat="45.51197" lon="5.97967">
        <ele>340.44</ele>
        <time>2014-03-02T14:30:36Z</time>
      </trkpt>
      <trkpt lat="45.51196" lon="5.97952">
        <ele>341.41</ele>
        <time>2014-03-02T14:30:39Z</time>
      </trkpt>
      <trkpt lat="45.51194" lon="5.9795">
        <ele>341.89</ele>
        <time>2014-03-02T14:30:40Z</time>
      </trkpt>
      <trkpt lat="45.51189" lon="5.97951">
        <ele>341.89</ele>
        <time>2014-03-02T14:30:42Z</time>
      </trkpt>
      <trkpt lat="45.5117" lon="5.97946">
        <ele>340.44</ele>
        <time>2014-03-02T14:30:47Z</time>
      </trkpt>
      <trkpt lat="45.51167" lon="5.97945">
        <ele>339.96</ele>
        <time>2014-03-02T14:30:48Z</time>
      </trkpt>
      <trkpt lat="45.51165" lon="5.97942">
        <ele>339.96</ele>
        <time>2014-03-02T14:30:49Z</time>
      </trkpt>
      <trkpt lat="45.51164" lon="5.97939">
        <ele>339</ele>
        <time>2014-03-02T14:30:50Z</time>
      </trkpt>
      <trkpt lat="45.51163" lon="5.97934">
        <ele>338.52</ele>
        <time>2014-03-02T14:30:51Z</time>
      </trkpt>
      <trkpt lat="45.51162" lon="5.97928">
        <ele>338.52</ele>
        <time>2014-03-02T14:30:52Z</time>
      </trkpt>
      <trkpt lat="45.51162" lon="5.97922">
        <ele>338.04</ele>
        <time>2014-03-02T14:30:53Z</time>
      </trkpt>
      <trkpt lat="45.51162" lon="5.97889">
        <ele>336.6</ele>
        <time>2014-03-02T14:30:57Z</time>
      </trkpt>
      <trkpt lat="45.51162" lon="5.9788">
        <ele>337.56</ele>
        <time>2014-03-02T14:30:58Z</time>
      </trkpt>
      <trkpt lat="45.51161" lon="5.9783">
        <ele>335.16</ele>
        <time>2014-03-02T14:31:04Z</time>
      </trkpt>
      <trkpt lat="45.5116" lon="5.97813">
        <ele>334.68</ele>
        <time>2014-03-02T14:31:06Z</time>
      </trkpt>
      <trkpt lat="45.5116" lon="5.97805">
        <ele>334.68</ele>
        <time>2014-03-02T14:31:07Z</time>
      </trkpt>
      <trkpt lat="45.51162" lon="5.97788">
        <ele>334.2</ele>
        <time>2014-03-02T14:31:09Z</time>
      </trkpt>
      <trkpt lat="45.51164" lon="5.9778">
        <ele>334.2</ele>
        <time>2014-03-02T14:31:10Z</time>
      </trkpt>
      <trkpt lat="45.51168" lon="5.97773">
        <ele>334.2</ele>
        <time>2014-03-02T14:31:11Z</time>
      </trkpt>
      <trkpt lat="45.51173" lon="5.97769">
        <ele>333.71</ele>
        <time>2014-03-02T14:31:12Z</time>
      </trkpt>
      <trkpt lat="45.51178" lon="5.97767">
        <ele>333.23</ele>
        <time>2014-03-02T14:31:13Z</time>
      </trkpt>
      <trkpt lat="45.51184" lon="5.97767">
        <ele>333.23</ele>
        <time>2014-03-02T14:31:14Z</time>
      </trkpt>
      <trkpt lat="45.5119" lon="5.97771">
        <ele>333.71</ele>
        <time>2014-03-02T14:31:15Z</time>
      </trkpt>
      <trkpt lat="45.51196" lon="5.97775">
        <ele>333.23</ele>
        <time>2014-03-02T14:31:16Z</time>
      </trkpt>
      <trkpt lat="45.512" lon="5.9778">
        <ele>333.71</ele>
        <time>2014-03-02T14:31:17Z</time>
      </trkpt>
      <trkpt lat="45.51205" lon="5.97786">
        <ele>333.23</ele>
        <time>2014-03-02T14:31:18Z</time>
      </trkpt>
      <trkpt lat="45.51209" lon="5.97791">
        <ele>333.71</ele>
        <time>2014-03-02T14:31:19Z</time>
      </trkpt>
      <trkpt lat="45.51213" lon="5.97795">
        <ele>334.2</ele>
        <time>2014-03-02T14:31:20Z</time>
      </trkpt>
      <trkpt lat="45.51218" lon="5.97797">
        <ele>334.2</ele>
        <time>2014-03-02T14:31:21Z</time>
      </trkpt>
      <trkpt lat="45.51223" lon="5.97796">
        <ele>333.71</ele>
        <time>2014-03-02T14:31:22Z</time>
      </trkpt>
      <trkpt lat="45.51228" lon="5.97793">
        <ele>333.23</ele>
        <time>2014-03-02T14:31:23Z</time>
      </trkpt>
      <trkpt lat="45.51233" lon="5.97788">
        <ele>333.71</ele>
        <time>2014-03-02T14:31:24Z</time>
      </trkpt>
      <trkpt lat="45.51238" lon="5.97784">
        <ele>333.23</ele>
        <time>2014-03-02T14:31:25Z</time>
      </trkpt>
      <trkpt lat="45.51255" lon="5.97764">
        <ele>333.71</ele>
        <time>2014-03-02T14:31:29Z</time>
      </trkpt>
      <trkpt lat="45.5126" lon="5.97761">
        <ele>333.71</ele>
        <time>2014-03-02T14:31:30Z</time>
      </trkpt>
      <trkpt lat="45.51265" lon="5.97758">
        <ele>333.23</ele>
        <time>2014-03-02T14:31:31Z</time>
      </trkpt>
      <trkpt lat="45.51271" lon="5.97756">
        <ele>332.75</ele>
        <time>2014-03-02T14:31:32Z</time>
      </trkpt>
      <trkpt lat="45.51277" lon="5.97756">
        <ele>333.23</ele>
        <time>2014-03-02T14:31:33Z</time>
      </trkpt>
      <trkpt lat="45.51284" lon="5.97759">
        <ele>333.71</ele>
        <time>2014-03-02T14:31:34Z</time>
      </trkpt>
      <trkpt lat="45.5129" lon="5.97764">
        <ele>333.23</ele>
        <time>2014-03-02T14:31:35Z</time>
      </trkpt>
      <trkpt lat="45.51295" lon="5.9777">
        <ele>333.23</ele>
        <time>2014-03-02T14:31:36Z</time>
      </trkpt>
      <trkpt lat="45.51299" lon="5.97776">
        <ele>333.23</ele>
        <time>2014-03-02T14:31:37Z</time>
      </trkpt>
      <trkpt lat="45.51362" lon="5.97845">
        <ele>331.31</ele>
        <time>2014-03-02T14:31:51Z</time>
      </trkpt>
      <trkpt lat="45.51376" lon="5.97854">
        <ele>332.27</ele>
        <time>2014-03-02T14:31:54Z</time>
      </trkpt>
      <trkpt lat="45.51381" lon="5.97856">
        <ele>331.79</ele>
        <time>2014-03-02T14:31:55Z</time>
      </trkpt>
      <trkpt lat="45.51391" lon="5.97856">
        <ele>332.27</ele>
        <time>2014-03-02T14:31:57Z</time>
      </trkpt>
      <trkpt lat="45.51395" lon="5.97856">
        <ele>331.79</ele>
        <time>2014-03-02T14:31:58Z</time>
      </trkpt>
      <trkpt lat="45.51403" lon="5.97853">
        <ele>331.79</ele>
        <time>2014-03-02T14:32:00Z</time>
      </trkpt>
      <trkpt lat="45.51407" lon="5.97851">
        <ele>332.27</ele>
        <time>2014-03-02T14:32:01Z</time>
      </trkpt>
      <trkpt lat="45.5141" lon="5.9785">
        <ele>332.27</ele>
        <time>2014-03-02T14:32:02Z</time>
      </trkpt>
      <trkpt lat="45.51413" lon="5.9785">
        <ele>332.27</ele>
        <time>2014-03-02T14:32:03Z</time>
      </trkpt>
      <trkpt lat="45.51416" lon="5.97849">
        <ele>332.27</ele>
        <time>2014-03-02T14:32:04Z</time>
      </trkpt>
      <trkpt lat="45.51432" lon="5.97844">
        <ele>332.27</ele>
        <time>2014-03-02T14:32:08Z</time>
      </trkpt>
      <trkpt lat="45.51513" lon="5.97812">
        <ele>330.83</ele>
        <time>2014-03-02T14:32:24Z</time>
      </trkpt>
      <trkpt lat="45.51613" lon="5.9777">
        <ele>328.91</ele>
        <time>2014-03-02T14:32:43Z</time>
      </trkpt>
      <trkpt lat="45.51632" lon="5.97762">
        <ele>328.43</ele>
        <time>2014-03-02T14:32:47Z</time>
      </trkpt>
      <trkpt lat="45.5169" lon="5.97736">
        <ele>326.02</ele>
        <time>2014-03-02T14:32:58Z</time>
      </trkpt>
      <trkpt lat="45.51719" lon="5.97726">
        <ele>325.06</ele>
        <time>2014-03-02T14:33:03Z</time>
      </trkpt>
      <trkpt lat="45.51724" lon="5.97722">
        <ele>325.06</ele>
        <time>2014-03-02T14:33:04Z</time>
      </trkpt>
      <trkpt lat="45.51728" lon="5.97717">
        <ele>325.06</ele>
        <time>2014-03-02T14:33:05Z</time>
      </trkpt>
      <trkpt lat="45.51732" lon="5.9771">
        <ele>324.58</ele>
        <time>2014-03-02T14:33:06Z</time>
      </trkpt>
      <trkpt lat="45.51736" lon="5.97703">
        <ele>324.58</ele>
        <time>2014-03-02T14:33:07Z</time>
      </trkpt>
      <trkpt lat="45.51789" lon="5.97616">
        <ele>322.66</ele>
        <time>2014-03-02T14:33:20Z</time>
      </trkpt>
      <trkpt lat="45.51793" lon="5.97609">
        <ele>322.18</ele>
        <time>2014-03-02T14:33:21Z</time>
      </trkpt>
      <trkpt lat="45.51829" lon="5.97557">
        <ele>321.7</ele>
        <time>2014-03-02T14:33:30Z</time>
      </trkpt>
      <trkpt lat="45.51838" lon="5.97549">
        <ele>322.18</ele>
        <time>2014-03-02T14:33:32Z</time>
      </trkpt>
      <trkpt lat="45.51843" lon="5.97548">
        <ele>322.18</ele>
        <time>2014-03-02T14:33:33Z</time>
      </trkpt>
      <trkpt lat="45.51848" lon="5.97548">
        <ele>321.7</ele>
        <time>2014-03-02T14:33:34Z</time>
      </trkpt>
      <trkpt lat="45.51856" lon="5.97548">
        <ele>321.7</ele>
        <time>2014-03-02T14:33:36Z</time>
      </trkpt>
      <trkpt lat="45.51865" lon="5.97546">
        <ele>321.7</ele>
        <time>2014-03-02T14:33:38Z</time>
      </trkpt>
      <trkpt lat="45.51869" lon="5.97544">
        <ele>321.7</ele>
        <time>2014-03-02T14:33:39Z</time>
      </trkpt>
      <trkpt lat="45.51872" lon="5.97539">
        <ele>322.18</ele>
        <time>2014-03-02T14:33:40Z</time>
      </trkpt>
      <trkpt lat="45.51873" lon="5.97533">
        <ele>322.66</ele>
        <time>2014-03-02T14:33:41Z</time>
      </trkpt>
      <trkpt lat="45.51873" lon="5.97527">
        <ele>322.66</ele>
        <time>2014-03-02T14:33:42Z</time>
      </trkpt>
      <trkpt lat="45.51873" lon="5.9752">
        <ele>322.66</ele>
        <time>2014-03-02T14:33:43Z</time>
      </trkpt>
      <trkpt lat="45.51873" lon="5.97514">
        <ele>323.14</ele>
        <time>2014-03-02T14:33:44Z</time>
      </trkpt>
      <trkpt lat="45.51873" lon="5.97454">
        <ele>324.1</ele>
        <time>2014-03-02T14:33:53Z</time>
      </trkpt>
      <trkpt lat="45.51874" lon="5.97448">
        <ele>323.62</ele>
        <time>2014-03-02T14:33:54Z</time>
      </trkpt>
      <trkpt lat="45.51876" lon="5.97442">
        <ele>323.62</ele>
        <time>2014-03-02T14:33:55Z</time>
      </trkpt>
      <trkpt lat="45.5188" lon="5.97438">
        <ele>323.14</ele>
        <time>2014-03-02T14:33:56Z</time>
      </trkpt>
      <trkpt lat="45.51884" lon="5.97434">
        <ele>323.62</ele>
        <time>2014-03-02T14:33:57Z</time>
      </trkpt>
      <trkpt lat="45.51888" lon="5.97431">
        <ele>323.14</ele>
        <time>2014-03-02T14:33:58Z</time>
      </trkpt>
      <trkpt lat="45.51892" lon="5.97427">
        <ele>323.14</ele>
        <time>2014-03-02T14:33:59Z</time>
      </trkpt>
      <trkpt lat="45.51901" lon="5.97419">
        <ele>323.62</ele>
        <time>2014-03-02T14:34:01Z</time>
      </trkpt>
      <trkpt lat="45.51959" lon="5.97369">
        <ele>323.62</ele>
        <time>2014-03-02T14:34:17Z</time>
      </trkpt>
      <trkpt lat="45.51978" lon="5.97355">
        <ele>324.1</ele>
        <time>2014-03-02T14:34:23Z</time>
      </trkpt>
      <trkpt lat="45.51975" lon="5.9734">
        <ele>323.62</ele>
        <time>2014-03-02T14:34:28Z</time>
      </trkpt>
      <trkpt lat="45.51953" lon="5.97327">
        <ele>324.58</ele>
        <time>2014-03-02T14:34:34Z</time>
      </trkpt>
      <trkpt lat="45.51905" lon="5.9729">
        <ele>327.95</ele>
        <time>2014-03-02T14:34:49Z</time>
      </trkpt>
      <trkpt lat="45.51879" lon="5.97252">
        <ele>330.35</ele>
        <time>2014-03-02T14:35:01Z</time>
      </trkpt>
      <trkpt lat="45.51843" lon="5.97203">
        <ele>331.31</ele>
        <time>2014-03-02T14:35:16Z</time>
      </trkpt>
      <trkpt lat="45.51836" lon="5.97151">
        <ele>332.27</ele>
        <time>2014-03-02T14:35:26Z</time>
      </trkpt>
      <trkpt lat="45.51826" lon="5.97131">
        <ele>331.79</ele>
        <time>2014-03-02T14:35:30Z</time>
      </trkpt>
      <trkpt lat="45.51825" lon="5.97126">
        <ele>331.79</ele>
        <time>2014-03-02T14:35:31Z</time>
      </trkpt>
      <trkpt lat="45.51823" lon="5.97119">
        <ele>331.79</ele>
        <time>2014-03-02T14:35:32Z</time>
      </trkpt>
      <trkpt lat="45.51823" lon="5.97113">
        <ele>331.79</ele>
        <time>2014-03-02T14:35:33Z</time>
      </trkpt>
      <trkpt lat="45.51822" lon="5.97106">
        <ele>331.79</ele>
        <time>2014-03-02T14:35:34Z</time>
      </trkpt>
      <trkpt lat="45.51822" lon="5.97099">
        <ele>331.79</ele>
        <time>2014-03-02T14:35:35Z</time>
      </trkpt>
      <trkpt lat="45.51822" lon="5.97092">
        <ele>332.27</ele>
        <time>2014-03-02T14:35:36Z</time>
      </trkpt>
      <trkpt lat="45.51821" lon="5.97085">
        <ele>331.79</ele>
        <time>2014-03-02T14:35:37Z</time>
      </trkpt>
      <trkpt lat="45.51804" lon="5.97011">
        <ele>329.87</ele>
        <time>2014-03-02T14:35:48Z</time>
      </trkpt>
      <trkpt lat="45.518" lon="5.96999">
        <ele>328.43</ele>
        <time>2014-03-02T14:35:50Z</time>
      </trkpt>
      <trkpt lat="45.51798" lon="5.96992">
        <ele>327.95</ele>
        <time>2014-03-02T14:35:51Z</time>
      </trkpt>
      <trkpt lat="45.51798" lon="5.96984">
        <ele>327.47</ele>
        <time>2014-03-02T14:35:52Z</time>
      </trkpt>
      <trkpt lat="45.51798" lon="5.96976">
        <ele>327.47</ele>
        <time>2014-03-02T14:35:53Z</time>
      </trkpt>
      <trkpt lat="45.51795" lon="5.96969">
        <ele>326.99</ele>
        <time>2014-03-02T14:35:54Z</time>
      </trkpt>
      <trkpt lat="45.51793" lon="5.96961">
        <ele>326.5</ele>
        <time>2014-03-02T14:35:55Z</time>
      </trkpt>
      <trkpt lat="45.51771" lon="5.96893">
        <ele>326.02</ele>
        <time>2014-03-02T14:36:04Z</time>
      </trkpt>
      <trkpt lat="45.51766" lon="5.96872">
        <ele>326.02</ele>
        <time>2014-03-02T14:36:07Z</time>
      </trkpt>
      <trkpt lat="45.51759" lon="5.96852">
        <ele>325.54</ele>
        <time>2014-03-02T14:36:10Z</time>
      </trkpt>
      <trkpt lat="45.51756" lon="5.96847">
        <ele>325.54</ele>
        <time>2014-03-02T14:36:11Z</time>
      </trkpt>
      <trkpt lat="45.51752" lon="5.96845">
        <ele>325.54</ele>
        <time>2014-03-02T14:36:12Z</time>
      </trkpt>
      <trkpt lat="45.51748" lon="5.96846">
        <ele>325.06</ele>
        <time>2014-03-02T14:36:13Z</time>
      </trkpt>
      <trkpt lat="45.51744" lon="5.96848">
        <ele>325.54</ele>
        <time>2014-03-02T14:36:14Z</time>
      </trkpt>
      <trkpt lat="45.51735" lon="5.96853">
        <ele>325.54</ele>
        <time>2014-03-02T14:36:16Z</time>
      </trkpt>
      <trkpt lat="45.51731" lon="5.96855">
        <ele>325.54</ele>
        <time>2014-03-02T14:36:17Z</time>
      </trkpt>
      <trkpt lat="45.51726" lon="5.96855">
        <ele>325.54</ele>
        <time>2014-03-02T14:36:18Z</time>
      </trkpt>
      <trkpt lat="45.51722" lon="5.96856">
        <ele>325.54</ele>
        <time>2014-03-02T14:36:19Z</time>
      </trkpt>
      <trkpt lat="45.51717" lon="5.96858">
        <ele>325.54</ele>
        <time>2014-03-02T14:36:20Z</time>
      </trkpt>
      <trkpt lat="45.51713" lon="5.9686">
        <ele>325.54</ele>
        <time>2014-03-02T14:36:21Z</time>
      </trkpt>
      <trkpt lat="45.51708" lon="5.96863">
        <ele>325.54</ele>
        <time>2014-03-02T14:36:22Z</time>
      </trkpt>
      <trkpt lat="45.51704" lon="5.96864">
        <ele>325.54</ele>
        <time>2014-03-02T14:36:23Z</time>
      </trkpt>
      <trkpt lat="45.51699" lon="5.96865">
        <ele>325.06</ele>
        <time>2014-03-02T14:36:24Z</time>
      </trkpt>
      <trkpt lat="45.51694" lon="5.96866">
        <ele>325.06</ele>
        <time>2014-03-02T14:36:25Z</time>
      </trkpt>
      <trkpt lat="45.5169" lon="5.96868">
        <ele>325.06</ele>
        <time>2014-03-02T14:36:26Z</time>
      </trkpt>
      <trkpt lat="45.51685" lon="5.96869">
        <ele>325.06</ele>
        <time>2014-03-02T14:36:27Z</time>
      </trkpt>
      <trkpt lat="45.51675" lon="5.96872">
        <ele>325.06</ele>
        <time>2014-03-02T14:36:29Z</time>
      </trkpt>
      <trkpt lat="45.51671" lon="5.96874">
        <ele>325.06</ele>
        <time>2014-03-02T14:36:30Z</time>
      </trkpt>
      <trkpt lat="45.51662" lon="5.96876">
        <ele>324.58</ele>
        <time>2014-03-02T14:36:32Z</time>
      </trkpt>
      <trkpt lat="45.51657" lon="5.96875">
        <ele>324.58</ele>
        <time>2014-03-02T14:36:33Z</time>
      </trkpt>
      <trkpt lat="45.51653" lon="5.96873">
        <ele>324.58</ele>
        <time>2014-03-02T14:36:34Z</time>
      </trkpt>
      <trkpt lat="45.51651" lon="5.96869">
        <ele>324.1</ele>
        <time>2014-03-02T14:36:35Z</time>
      </trkpt>
      <trkpt lat="45.51648" lon="5.96864">
        <ele>324.1</ele>
        <time>2014-03-02T14:36:36Z</time>
      </trkpt>
      <trkpt lat="45.51646" lon="5.96859">
        <ele>324.58</ele>
        <time>2014-03-02T14:36:37Z</time>
      </trkpt>
      <trkpt lat="45.51642" lon="5.96855">
        <ele>324.1</ele>
        <time>2014-03-02T14:36:38Z</time>
      </trkpt>
      <trkpt lat="45.51638" lon="5.96852">
        <ele>324.1</ele>
        <time>2014-03-02T14:36:39Z</time>
      </trkpt>
      <trkpt lat="45.51633" lon="5.96851">
        <ele>324.1</ele>
        <time>2014-03-02T14:36:40Z</time>
      </trkpt>
      <trkpt lat="45.51628" lon="5.9685">
        <ele>324.1</ele>
        <time>2014-03-02T14:36:41Z</time>
      </trkpt>
      <trkpt lat="45.51623" lon="5.9685">
        <ele>324.1</ele>
        <time>2014-03-02T14:36:42Z</time>
      </trkpt>
      <trkpt lat="45.51619" lon="5.96847">
        <ele>324.58</ele>
        <time>2014-03-02T14:36:43Z</time>
      </trkpt>
      <trkpt lat="45.51617" lon="5.96841">
        <ele>324.1</ele>
        <time>2014-03-02T14:36:44Z</time>
      </trkpt>
      <trkpt lat="45.51615" lon="5.96835">
        <ele>324.1</ele>
        <time>2014-03-02T14:36:45Z</time>
      </trkpt>
      <trkpt lat="45.51613" lon="5.96828">
        <ele>324.1</ele>
        <time>2014-03-02T14:36:46Z</time>
      </trkpt>
      <trkpt lat="45.51611" lon="5.96821">
        <ele>324.1</ele>
        <time>2014-03-02T14:36:47Z</time>
      </trkpt>
      <trkpt lat="45.51605" lon="5.96808">
        <ele>324.1</ele>
        <time>2014-03-02T14:36:49Z</time>
      </trkpt>
      <trkpt lat="45.51604" lon="5.968">
        <ele>324.1</ele>
        <time>2014-03-02T14:36:50Z</time>
      </trkpt>
      <trkpt lat="45.51604" lon="5.96793">
        <ele>323.14</ele>
        <time>2014-03-02T14:36:51Z</time>
      </trkpt>
      <trkpt lat="45.51605" lon="5.96779">
        <ele>322.66</ele>
        <time>2014-03-02T14:36:53Z</time>
      </trkpt>
      <trkpt lat="45.51604" lon="5.96772">
        <ele>322.66</ele>
        <time>2014-03-02T14:36:54Z</time>
      </trkpt>
      <trkpt lat="45.51601" lon="5.96744">
        <ele>322.18</ele>
        <time>2014-03-02T14:36:58Z</time>
      </trkpt>
      <trkpt lat="45.51601" lon="5.96737">
        <ele>322.66</ele>
        <time>2014-03-02T14:36:59Z</time>
      </trkpt>
      <trkpt lat="45.516" lon="5.9673">
        <ele>322.66</ele>
        <time>2014-03-02T14:37:00Z</time>
      </trkpt>
      <trkpt lat="45.51597" lon="5.96724">
        <ele>322.66</ele>
        <time>2014-03-02T14:37:01Z</time>
      </trkpt>
      <trkpt lat="45.51595" lon="5.96718">
        <ele>322.66</ele>
        <time>2014-03-02T14:37:02Z</time>
      </trkpt>
      <trkpt lat="45.51593" lon="5.96712">
        <ele>322.66</ele>
        <time>2014-03-02T14:37:03Z</time>
      </trkpt>
      <trkpt lat="45.51582" lon="5.96681">
        <ele>323.62</ele>
        <time>2014-03-02T14:37:09Z</time>
      </trkpt>
      <trkpt lat="45.51581" lon="5.96675">
        <ele>323.14</ele>
        <time>2014-03-02T14:37:10Z</time>
      </trkpt>
      <trkpt lat="45.51581" lon="5.96668">
        <ele>322.66</ele>
        <time>2014-03-02T14:37:11Z</time>
      </trkpt>
      <trkpt lat="45.51583" lon="5.96663">
        <ele>322.66</ele>
        <time>2014-03-02T14:37:12Z</time>
      </trkpt>
      <trkpt lat="45.51586" lon="5.96658">
        <ele>323.14</ele>
        <time>2014-03-02T14:37:13Z</time>
      </trkpt>
      <trkpt lat="45.51589" lon="5.96654">
        <ele>322.18</ele>
        <time>2014-03-02T14:37:14Z</time>
      </trkpt>
      <trkpt lat="45.51593" lon="5.9665">
        <ele>322.66</ele>
        <time>2014-03-02T14:37:15Z</time>
      </trkpt>
      <trkpt lat="45.51597" lon="5.96646">
        <ele>322.18</ele>
        <time>2014-03-02T14:37:16Z</time>
      </trkpt>
      <trkpt lat="45.51601" lon="5.96643">
        <ele>322.18</ele>
        <time>2014-03-02T14:37:17Z</time>
      </trkpt>
      <trkpt lat="45.51606" lon="5.9664">
        <ele>322.18</ele>
        <time>2014-03-02T14:37:18Z</time>
      </trkpt>
      <trkpt lat="45.5161" lon="5.96638">
        <ele>322.18</ele>
        <time>2014-03-02T14:37:19Z</time>
      </trkpt>
      <trkpt lat="45.51614" lon="5.96637">
        <ele>322.66</ele>
        <time>2014-03-02T14:37:20Z</time>
      </trkpt>
      <trkpt lat="45.51618" lon="5.96636">
        <ele>322.66</ele>
        <time>2014-03-02T14:37:21Z</time>
      </trkpt>
      <trkpt lat="45.51622" lon="5.96636">
        <ele>322.66</ele>
        <time>2014-03-02T14:37:22Z</time>
      </trkpt>
      <trkpt lat="45.51624" lon="5.96635">
        <ele>322.18</ele>
        <time>2014-03-02T14:37:23Z</time>
      </trkpt>
      <trkpt lat="45.51639" lon="5.96631">
        <ele>322.18</ele>
        <time>2014-03-02T14:37:28Z</time>
      </trkpt>
      <trkpt lat="45.51698" lon="5.96615">
        <ele>322.18</ele>
        <time>2014-03-02T14:37:40Z</time>
      </trkpt>
      <trkpt lat="45.51769" lon="5.96594">
        <ele>320.74</ele>
        <time>2014-03-02T14:37:54Z</time>
      </trkpt>
      <trkpt lat="45.51773" lon="5.96591">
        <ele>321.22</ele>
        <time>2014-03-02T14:37:55Z</time>
      </trkpt>
      <trkpt lat="45.51777" lon="5.96587">
        <ele>321.22</ele>
        <time>2014-03-02T14:37:56Z</time>
      </trkpt>
      <trkpt lat="45.5178" lon="5.96581">
        <ele>321.22</ele>
        <time>2014-03-02T14:37:57Z</time>
      </trkpt>
      <trkpt lat="45.51782" lon="5.96575">
        <ele>321.22</ele>
        <time>2014-03-02T14:37:58Z</time>
      </trkpt>
      <trkpt lat="45.51782" lon="5.96569">
        <ele>321.22</ele>
        <time>2014-03-02T14:37:59Z</time>
      </trkpt>
      <trkpt lat="45.51782" lon="5.96562">
        <ele>321.22</ele>
        <time>2014-03-02T14:38:00Z</time>
      </trkpt>
      <trkpt lat="45.51781" lon="5.96556">
        <ele>321.22</ele>
        <time>2014-03-02T14:38:01Z</time>
      </trkpt>
      <trkpt lat="45.5178" lon="5.9655">
        <ele>321.22</ele>
        <time>2014-03-02T14:38:02Z</time>
      </trkpt>
      <trkpt lat="45.5178" lon="5.96543">
        <ele>321.22</ele>
        <time>2014-03-02T14:38:03Z</time>
      </trkpt>
      <trkpt lat="45.5178" lon="5.96537">
        <ele>321.22</ele>
        <time>2014-03-02T14:38:04Z</time>
      </trkpt>
      <trkpt lat="45.51778" lon="5.96523">
        <ele>321.7</ele>
        <time>2014-03-02T14:38:06Z</time>
      </trkpt>
      <trkpt lat="45.51779" lon="5.96516">
        <ele>321.22</ele>
        <time>2014-03-02T14:38:07Z</time>
      </trkpt>
      <trkpt lat="45.5178" lon="5.9651">
        <ele>321.22</ele>
        <time>2014-03-02T14:38:08Z</time>
      </trkpt>
      <trkpt lat="45.51783" lon="5.96504">
        <ele>320.74</ele>
        <time>2014-03-02T14:38:09Z</time>
      </trkpt>
      <trkpt lat="45.51786" lon="5.96499">
        <ele>320.74</ele>
        <time>2014-03-02T14:38:10Z</time>
      </trkpt>
      <trkpt lat="45.5179" lon="5.96497">
        <ele>321.22</ele>
        <time>2014-03-02T14:38:11Z</time>
      </trkpt>
      <trkpt lat="45.51794" lon="5.96496">
        <ele>321.22</ele>
        <time>2014-03-02T14:38:12Z</time>
      </trkpt>
      <trkpt lat="45.51798" lon="5.96497">
        <ele>320.74</ele>
        <time>2014-03-02T14:38:13Z</time>
      </trkpt>
      <trkpt lat="45.51802" lon="5.96498">
        <ele>321.22</ele>
        <time>2014-03-02T14:38:14Z</time>
      </trkpt>
      <trkpt lat="45.51807" lon="5.96498">
        <ele>321.22</ele>
        <time>2014-03-02T14:38:15Z</time>
      </trkpt>
      <trkpt lat="45.51812" lon="5.96498">
        <ele>321.22</ele>
        <time>2014-03-02T14:38:16Z</time>
      </trkpt>
      <trkpt lat="45.51817" lon="5.96497">
        <ele>320.26</ele>
        <time>2014-03-02T14:38:17Z</time>
      </trkpt>
      <trkpt lat="45.51821" lon="5.96494">
        <ele>320.74</ele>
        <time>2014-03-02T14:38:18Z</time>
      </trkpt>
      <trkpt lat="45.51825" lon="5.96489">
        <ele>320.26</ele>
        <time>2014-03-02T14:38:19Z</time>
      </trkpt>
      <trkpt lat="45.51828" lon="5.96483">
        <ele>320.26</ele>
        <time>2014-03-02T14:38:20Z</time>
      </trkpt>
      <trkpt lat="45.5183" lon="5.96476">
        <ele>320.26</ele>
        <time>2014-03-02T14:38:21Z</time>
      </trkpt>
      <trkpt lat="45.51831" lon="5.96468">
        <ele>319.78</ele>
        <time>2014-03-02T14:38:22Z</time>
      </trkpt>
      <trkpt lat="45.51831" lon="5.9646">
        <ele>320.26</ele>
        <time>2014-03-02T14:38:23Z</time>
      </trkpt>
      <trkpt lat="45.51836" lon="5.96365">
        <ele>318.81</ele>
        <time>2014-03-02T14:38:35Z</time>
      </trkpt>
      <trkpt lat="45.5184" lon="5.96303">
        <ele>319.3</ele>
        <time>2014-03-02T14:38:43Z</time>
      </trkpt>
      <trkpt lat="45.51843" lon="5.96247">
        <ele>319.3</ele>
        <time>2014-03-02T14:38:50Z</time>
      </trkpt>
      <trkpt lat="45.51843" lon="5.96239">
        <ele>319.3</ele>
        <time>2014-03-02T14:38:51Z</time>
      </trkpt>
      <trkpt lat="45.51843" lon="5.96231">
        <ele>319.3</ele>
        <time>2014-03-02T14:38:52Z</time>
      </trkpt>
      <trkpt lat="45.51846" lon="5.96214">
        <ele>318.81</ele>
        <time>2014-03-02T14:38:54Z</time>
      </trkpt>
      <trkpt lat="45.51848" lon="5.96206">
        <ele>319.3</ele>
        <time>2014-03-02T14:38:55Z</time>
      </trkpt>
      <trkpt lat="45.51855" lon="5.96176">
        <ele>318.81</ele>
        <time>2014-03-02T14:38:59Z</time>
      </trkpt>
      <trkpt lat="45.51854" lon="5.96168">
        <ele>319.78</ele>
        <time>2014-03-02T14:39:00Z</time>
      </trkpt>
      <trkpt lat="45.51854" lon="5.96161">
        <ele>318.81</ele>
        <time>2014-03-02T14:39:01Z</time>
      </trkpt>
      <trkpt lat="45.51852" lon="5.96154">
        <ele>318.81</ele>
        <time>2014-03-02T14:39:02Z</time>
      </trkpt>
      <trkpt lat="45.5185" lon="5.96147">
        <ele>319.78</ele>
        <time>2014-03-02T14:39:03Z</time>
      </trkpt>
      <trkpt lat="45.51846" lon="5.96133">
        <ele>319.3</ele>
        <time>2014-03-02T14:39:05Z</time>
      </trkpt>
      <trkpt lat="45.51845" lon="5.96126">
        <ele>319.78</ele>
        <time>2014-03-02T14:39:06Z</time>
      </trkpt>
      <trkpt lat="45.51843" lon="5.96118">
        <ele>319.3</ele>
        <time>2014-03-02T14:39:07Z</time>
      </trkpt>
      <trkpt lat="45.51841" lon="5.96111">
        <ele>319.3</ele>
        <time>2014-03-02T14:39:08Z</time>
      </trkpt>
      <trkpt lat="45.51839" lon="5.96103">
        <ele>319.78</ele>
        <time>2014-03-02T14:39:09Z</time>
      </trkpt>
      <trkpt lat="45.51837" lon="5.96096">
        <ele>319.3</ele>
        <time>2014-03-02T14:39:10Z</time>
      </trkpt>
      <trkpt lat="45.51836" lon="5.96089">
        <ele>319.3</ele>
        <time>2014-03-02T14:39:11Z</time>
      </trkpt>
      <trkpt lat="45.51829" lon="5.96054">
        <ele>319.78</ele>
        <time>2014-03-02T14:39:16Z</time>
      </trkpt>
      <trkpt lat="45.51828" lon="5.96047">
        <ele>319.78</ele>
        <time>2014-03-02T14:39:17Z</time>
      </trkpt>
      <trkpt lat="45.51826" lon="5.96034">
        <ele>320.26</ele>
        <time>2014-03-02T14:39:19Z</time>
      </trkpt>
      <trkpt lat="45.51812" lon="5.95963">
        <ele>320.74</ele>
        <time>2014-03-02T14:39:30Z</time>
      </trkpt>
      <trkpt lat="45.51802" lon="5.95907">
        <ele>321.7</ele>
        <time>2014-03-02T14:39:39Z</time>
      </trkpt>
      <trkpt lat="45.51802" lon="5.959">
        <ele>321.22</ele>
        <time>2014-03-02T14:39:40Z</time>
      </trkpt>
      <trkpt lat="45.51815" lon="5.95803">
        <ele>321.7</ele>
        <time>2014-03-02T14:39:55Z</time>
      </trkpt>
      <trkpt lat="45.51821" lon="5.95753">
        <ele>322.18</ele>
        <time>2014-03-02T14:40:06Z</time>
      </trkpt>
      <trkpt lat="45.51806" lon="5.95695">
        <ele>323.14</ele>
        <time>2014-03-02T14:40:18Z</time>
      </trkpt>
      <trkpt lat="45.5178" lon="5.95647">
        <ele>326.02</ele>
        <time>2014-03-02T14:40:33Z</time>
      </trkpt>
      <trkpt lat="45.5175" lon="5.95638">
        <ele>329.39</ele>
        <time>2014-03-02T14:40:47Z</time>
      </trkpt>
      <trkpt lat="45.51723" lon="5.95635">
        <ele>332.75</ele>
        <time>2014-03-02T14:41:00Z</time>
      </trkpt>
      <trkpt lat="45.51712" lon="5.95604">
        <ele>335.16</ele>
        <time>2014-03-02T14:41:12Z</time>
      </trkpt>
      <trkpt lat="45.5171" lon="5.95567">
        <ele>338.52</ele>
        <time>2014-03-02T14:41:25Z</time>
      </trkpt>
      <trkpt lat="45.51707" lon="5.95526">
        <ele>341.41</ele>
        <time>2014-03-02T14:41:39Z</time>
      </trkpt>
      <trkpt lat="45.51707" lon="5.9548">
        <ele>344.29</ele>
        <time>2014-03-02T14:41:54Z</time>
      </trkpt>
      <trkpt lat="45.51704" lon="5.95448">
        <ele>347.65</ele>
        <time>2014-03-02T14:42:06Z</time>
      </trkpt>
      <trkpt lat="45.51705" lon="5.95437">
        <ele>348.62</ele>
        <time>2014-03-02T14:42:10Z</time>
      </trkpt>
      <trkpt lat="45.51706" lon="5.95435">
        <ele>348.13</ele>
        <time>2014-03-02T14:42:11Z</time>
      </trkpt>
      <trkpt lat="45.51707" lon="5.95432">
        <ele>348.62</ele>
        <time>2014-03-02T14:42:12Z</time>
      </trkpt>
      <trkpt lat="45.51708" lon="5.9543">
        <ele>349.1</ele>
        <time>2014-03-02T14:42:13Z</time>
      </trkpt>
      <trkpt lat="45.51709" lon="5.95427">
        <ele>349.1</ele>
        <time>2014-03-02T14:42:14Z</time>
      </trkpt>
      <trkpt lat="45.51709" lon="5.95425">
        <ele>349.58</ele>
        <time>2014-03-02T14:42:15Z</time>
      </trkpt>
      <trkpt lat="45.5171" lon="5.95423">
        <ele>350.06</ele>
        <time>2014-03-02T14:42:16Z</time>
      </trkpt>
      <trkpt lat="45.51728" lon="5.95379">
        <ele>352.94</ele>
        <time>2014-03-02T14:42:33Z</time>
      </trkpt>
      <trkpt lat="45.51743" lon="5.95354">
        <ele>355.83</ele>
        <time>2014-03-02T14:42:44Z</time>
      </trkpt>
      <trkpt lat="45.51757" lon="5.95338">
        <ele>357.75</ele>
        <time>2014-03-02T14:42:53Z</time>
      </trkpt>
      <trkpt lat="45.51784" lon="5.95308">
        <ele>361.11</ele>
        <time>2014-03-02T14:43:09Z</time>
      </trkpt>
      <trkpt lat="45.51787" lon="5.95304">
        <ele>361.11</ele>
        <time>2014-03-02T14:43:12Z</time>
      </trkpt>
      <trkpt lat="45.51788" lon="5.95303">
        <ele>361.11</ele>
        <time>2014-03-02T14:43:13Z</time>
      </trkpt>
      <trkpt lat="45.51808" lon="5.95301">
        <ele>357.27</ele>
        <time>2014-03-02T14:43:19Z</time>
      </trkpt>
      <trkpt lat="45.51813" lon="5.953">
        <ele>357.27</ele>
        <time>2014-03-02T14:43:20Z</time>
      </trkpt>
      <trkpt lat="45.51818" lon="5.95296">
        <ele>357.75</ele>
        <time>2014-03-02T14:43:21Z</time>
      </trkpt>
      <trkpt lat="45.51822" lon="5.9529">
        <ele>358.23</ele>
        <time>2014-03-02T14:43:22Z</time>
      </trkpt>
      <trkpt lat="45.51826" lon="5.95285">
        <ele>358.23</ele>
        <time>2014-03-02T14:43:23Z</time>
      </trkpt>
      <trkpt lat="45.51828" lon="5.95281">
        <ele>358.23</ele>
        <time>2014-03-02T14:43:24Z</time>
      </trkpt>
      <trkpt lat="45.51831" lon="5.95277">
        <ele>358.71</ele>
        <time>2014-03-02T14:43:25Z</time>
      </trkpt>
      <trkpt lat="45.51864" lon="5.95242">
        <ele>361.11</ele>
        <time>2014-03-02T14:43:39Z</time>
      </trkpt>
      <trkpt lat="45.51904" lon="5.95205">
        <ele>362.55</ele>
        <time>2014-03-02T14:43:55Z</time>
      </trkpt>
      <trkpt lat="45.51935" lon="5.95162">
        <ele>364.48</ele>
        <time>2014-03-02T14:44:07Z</time>
      </trkpt>
      <trkpt lat="45.51991" lon="5.95137">
        <ele>364.96</ele>
        <time>2014-03-02T14:44:22Z</time>
      </trkpt>
      <trkpt lat="45.52047" lon="5.95103">
        <ele>364</ele>
        <time>2014-03-02T14:44:36Z</time>
      </trkpt>
      <trkpt lat="45.52052" lon="5.95101">
        <ele>363.52</ele>
        <time>2014-03-02T14:44:37Z</time>
      </trkpt>
      <trkpt lat="45.5209" lon="5.95082">
        <ele>362.55</ele>
        <time>2014-03-02T14:44:46Z</time>
      </trkpt>
      <trkpt lat="45.52094" lon="5.9508">
        <ele>362.07</ele>
        <time>2014-03-02T14:44:47Z</time>
      </trkpt>
      <trkpt lat="45.52098" lon="5.95079">
        <ele>362.07</ele>
        <time>2014-03-02T14:44:48Z</time>
      </trkpt>
      <trkpt lat="45.52102" lon="5.95077">
        <ele>361.11</ele>
        <time>2014-03-02T14:44:49Z</time>
      </trkpt>
      <trkpt lat="45.52107" lon="5.95075">
        <ele>360.63</ele>
        <time>2014-03-02T14:44:50Z</time>
      </trkpt>
      <trkpt lat="45.52113" lon="5.95073">
        <ele>360.15</ele>
        <time>2014-03-02T14:44:51Z</time>
      </trkpt>
      <trkpt lat="45.52119" lon="5.95069">
        <ele>359.67</ele>
        <time>2014-03-02T14:44:52Z</time>
      </trkpt>
      <trkpt lat="45.52124" lon="5.95065">
        <ele>359.19</ele>
        <time>2014-03-02T14:44:53Z</time>
      </trkpt>
      <trkpt lat="45.52138" lon="5.9505">
        <ele>357.75</ele>
        <time>2014-03-02T14:44:58Z</time>
      </trkpt>
      <trkpt lat="45.52137" lon="5.95046">
        <ele>356.79</ele>
        <time>2014-03-02T14:44:59Z</time>
      </trkpt>
      <trkpt lat="45.52136" lon="5.95041">
        <ele>356.31</ele>
        <time>2014-03-02T14:45:00Z</time>
      </trkpt>
      <trkpt lat="45.52136" lon="5.95036">
        <ele>356.31</ele>
        <time>2014-03-02T14:45:01Z</time>
      </trkpt>
      <trkpt lat="45.52137" lon="5.95031">
        <ele>356.31</ele>
        <time>2014-03-02T14:45:02Z</time>
      </trkpt>
      <trkpt lat="45.52139" lon="5.95028">
        <ele>356.31</ele>
        <time>2014-03-02T14:45:03Z</time>
      </trkpt>
      <trkpt lat="45.52142" lon="5.95026">
        <ele>356.79</ele>
        <time>2014-03-02T14:45:04Z</time>
      </trkpt>
      <trkpt lat="45.52146" lon="5.95026">
        <ele>356.31</ele>
        <time>2014-03-02T14:45:05Z</time>
      </trkpt>
      <trkpt lat="45.52151" lon="5.95027">
        <ele>356.31</ele>
        <time>2014-03-02T14:45:06Z</time>
      </trkpt>
      <trkpt lat="45.52155" lon="5.95029">
        <ele>356.79</ele>
        <time>2014-03-02T14:45:07Z</time>
      </trkpt>
      <trkpt lat="45.52159" lon="5.95031">
        <ele>356.79</ele>
        <time>2014-03-02T14:45:08Z</time>
      </trkpt>
      <trkpt lat="45.52163" lon="5.95033">
        <ele>356.79</ele>
        <time>2014-03-02T14:45:09Z</time>
      </trkpt>
      <trkpt lat="45.52208" lon="5.95037">
        <ele>358.23</ele>
        <time>2014-03-02T14:45:21Z</time>
      </trkpt>
      <trkpt lat="45.52245" lon="5.95027">
        <ele>355.34</ele>
        <time>2014-03-02T14:45:29Z</time>
      </trkpt>
      <trkpt lat="45.52248" lon="5.95024">
        <ele>355.34</ele>
        <time>2014-03-02T14:45:30Z</time>
      </trkpt>
      <trkpt lat="45.52252" lon="5.95021">
        <ele>355.34</ele>
        <time>2014-03-02T14:45:31Z</time>
      </trkpt>
      <trkpt lat="45.52255" lon="5.95017">
        <ele>354.86</ele>
        <time>2014-03-02T14:45:32Z</time>
      </trkpt>
      <trkpt lat="45.52258" lon="5.95013">
        <ele>354.86</ele>
        <time>2014-03-02T14:45:33Z</time>
      </trkpt>
      <trkpt lat="45.5226" lon="5.95007">
        <ele>354.86</ele>
        <time>2014-03-02T14:45:34Z</time>
      </trkpt>
      <trkpt lat="45.52261" lon="5.95002">
        <ele>354.86</ele>
        <time>2014-03-02T14:45:35Z</time>
      </trkpt>
      <trkpt lat="45.52262" lon="5.94997">
        <ele>354.86</ele>
        <time>2014-03-02T14:45:36Z</time>
      </trkpt>
      <trkpt lat="45.52263" lon="5.94993">
        <ele>354.86</ele>
        <time>2014-03-02T14:45:37Z</time>
      </trkpt>
      <trkpt lat="45.52264" lon="5.94989">
        <ele>355.34</ele>
        <time>2014-03-02T14:45:38Z</time>
      </trkpt>
      <trkpt lat="45.52267" lon="5.94986">
        <ele>355.83</ele>
        <time>2014-03-02T14:45:39Z</time>
      </trkpt>
      <trkpt lat="45.52269" lon="5.94985">
        <ele>354.86</ele>
        <time>2014-03-02T14:45:40Z</time>
      </trkpt>
      <trkpt lat="45.52272" lon="5.94985">
        <ele>354.86</ele>
        <time>2014-03-02T14:45:41Z</time>
      </trkpt>
      <trkpt lat="45.52274" lon="5.94985">
        <ele>355.34</ele>
        <time>2014-03-02T14:45:42Z</time>
      </trkpt>
      <trkpt lat="45.52316" lon="5.94981">
        <ele>358.23</ele>
        <time>2014-03-02T14:45:54Z</time>
      </trkpt>
      <trkpt lat="45.52357" lon="5.94969">
        <ele>357.75</ele>
        <time>2014-03-02T14:46:05Z</time>
      </trkpt>
      <trkpt lat="45.5239" lon="5.94961">
        <ele>355.34</ele>
        <time>2014-03-02T14:46:13Z</time>
      </trkpt>
      <trkpt lat="45.52399" lon="5.94962">
        <ele>355.83</ele>
        <time>2014-03-02T14:46:15Z</time>
      </trkpt>
      <trkpt lat="45.52425" lon="5.94968">
        <ele>353.9</ele>
        <time>2014-03-02T14:46:20Z</time>
      </trkpt>
      <trkpt lat="45.52431" lon="5.94968">
        <ele>353.9</ele>
        <time>2014-03-02T14:46:21Z</time>
      </trkpt>
      <trkpt lat="45.52438" lon="5.94967">
        <ele>353.42</ele>
        <time>2014-03-02T14:46:22Z</time>
      </trkpt>
      <trkpt lat="45.52445" lon="5.94966">
        <ele>353.42</ele>
        <time>2014-03-02T14:46:23Z</time>
      </trkpt>
      <trkpt lat="45.52451" lon="5.94963">
        <ele>352.94</ele>
        <time>2014-03-02T14:46:24Z</time>
      </trkpt>
      <trkpt lat="45.52458" lon="5.94961">
        <ele>351.98</ele>
        <time>2014-03-02T14:46:25Z</time>
      </trkpt>
      <trkpt lat="45.52471" lon="5.94954">
        <ele>351.5</ele>
        <time>2014-03-02T14:46:27Z</time>
      </trkpt>
      <trkpt lat="45.52477" lon="5.94949">
        <ele>351.02</ele>
        <time>2014-03-02T14:46:28Z</time>
      </trkpt>
      <trkpt lat="45.52483" lon="5.94944">
        <ele>351.02</ele>
        <time>2014-03-02T14:46:29Z</time>
      </trkpt>
      <trkpt lat="45.52501" lon="5.94921">
        <ele>351.02</ele>
        <time>2014-03-02T14:46:33Z</time>
      </trkpt>
      <trkpt lat="45.52506" lon="5.94917">
        <ele>351.5</ele>
        <time>2014-03-02T14:46:34Z</time>
      </trkpt>
      <trkpt lat="45.52512" lon="5.94915">
        <ele>351.98</ele>
        <time>2014-03-02T14:46:35Z</time>
      </trkpt>
      <trkpt lat="45.52521" lon="5.94911">
        <ele>351.98</ele>
        <time>2014-03-02T14:46:37Z</time>
      </trkpt>
      <trkpt lat="45.52557" lon="5.94908">
        <ele>355.34</ele>
        <time>2014-03-02T14:46:49Z</time>
      </trkpt>
      <trkpt lat="45.52593" lon="5.94899">
        <ele>356.31</ele>
        <time>2014-03-02T14:47:02Z</time>
      </trkpt>
      <trkpt lat="45.52631" lon="5.94886">
        <ele>356.79</ele>
        <time>2014-03-02T14:47:14Z</time>
      </trkpt>
      <trkpt lat="45.52684" lon="5.94868">
        <ele>358.23</ele>
        <time>2014-03-02T14:47:28Z</time>
      </trkpt>
      <trkpt lat="45.52736" lon="5.94858">
        <ele>360.15</ele>
        <time>2014-03-02T14:47:42Z</time>
      </trkpt>
      <trkpt lat="45.52778" lon="5.94849">
        <ele>363.04</ele>
        <time>2014-03-02T14:47:54Z</time>
      </trkpt>
      <trkpt lat="45.52806" lon="5.94839">
        <ele>365.92</ele>
        <time>2014-03-02T14:48:02Z</time>
      </trkpt>
      <trkpt lat="45.52844" lon="5.94836">
        <ele>369.76</ele>
        <time>2014-03-02T14:48:13Z</time>
      </trkpt>
      <trkpt lat="45.5287" lon="5.94845">
        <ele>372.65</ele>
        <time>2014-03-02T14:48:21Z</time>
      </trkpt>
      <trkpt lat="45.52924" lon="5.94864">
        <ele>373.13</ele>
        <time>2014-03-02T14:48:37Z</time>
      </trkpt>
      <trkpt lat="45.52985" lon="5.94857">
        <ele>372.17</ele>
        <time>2014-03-02T14:48:52Z</time>
      </trkpt>
      <trkpt lat="45.53066" lon="5.9484">
        <ele>372.65</ele>
        <time>2014-03-02T14:49:12Z</time>
      </trkpt>
      <trkpt lat="45.53119" lon="5.9484">
        <ele>374.57</ele>
        <time>2014-03-02T14:49:27Z</time>
      </trkpt>
      <trkpt lat="45.5316" lon="5.94841">
        <ele>377.94</ele>
        <time>2014-03-02T14:49:41Z</time>
      </trkpt>
      <trkpt lat="45.53208" lon="5.94841">
        <ele>375.53</ele>
        <time>2014-03-02T14:49:54Z</time>
      </trkpt>
      <trkpt lat="45.53251" lon="5.94848">
        <ele>373.13</ele>
        <time>2014-03-02T14:50:01Z</time>
      </trkpt>
      <trkpt lat="45.53318" lon="5.94841">
        <ele>374.09</ele>
        <time>2014-03-02T14:50:13Z</time>
      </trkpt>
      <trkpt lat="45.53334" lon="5.94833">
        <ele>374.57</ele>
        <time>2014-03-02T14:50:17Z</time>
      </trkpt>
      <trkpt lat="45.53338" lon="5.94832">
        <ele>375.05</ele>
        <time>2014-03-02T14:50:18Z</time>
      </trkpt>
      <trkpt lat="45.53342" lon="5.9483">
        <ele>374.57</ele>
        <time>2014-03-02T14:50:19Z</time>
      </trkpt>
      <trkpt lat="45.53346" lon="5.94829">
        <ele>375.53</ele>
        <time>2014-03-02T14:50:20Z</time>
      </trkpt>
      <trkpt lat="45.53349" lon="5.94828">
        <ele>375.53</ele>
        <time>2014-03-02T14:50:21Z</time>
      </trkpt>
      <trkpt lat="45.53388" lon="5.94811">
        <ele>378.9</ele>
        <time>2014-03-02T14:50:35Z</time>
      </trkpt>
      <trkpt lat="45.53426" lon="5.94795">
        <ele>381.3</ele>
        <time>2014-03-02T14:50:51Z</time>
      </trkpt>
      <trkpt lat="45.5347" lon="5.94773">
        <ele>383.22</ele>
        <time>2014-03-02T14:51:08Z</time>
      </trkpt>
      <trkpt lat="45.53507" lon="5.9475">
        <ele>385.63</ele>
        <time>2014-03-02T14:51:24Z</time>
      </trkpt>
      <trkpt lat="45.53511" lon="5.94708">
        <ele>388.03</ele>
        <time>2014-03-02T14:51:37Z</time>
      </trkpt>
      <trkpt lat="45.5353" lon="5.94684">
        <ele>390.43</ele>
        <time>2014-03-02T14:51:50Z</time>
      </trkpt>
      <trkpt lat="45.53535" lon="5.94649">
        <ele>392.84</ele>
        <time>2014-03-02T14:52:04Z</time>
      </trkpt>
      <trkpt lat="45.53504" lon="5.94643">
        <ele>396.2</ele>
        <time>2014-03-02T14:52:18Z</time>
      </trkpt>
      <trkpt lat="45.53476" lon="5.94632">
        <ele>399.08</ele>
        <time>2014-03-02T14:52:31Z</time>
      </trkpt>
      <trkpt lat="45.53446" lon="5.9462">
        <ele>402.45</ele>
        <time>2014-03-02T14:52:47Z</time>
      </trkpt>
      <trkpt lat="45.53414" lon="5.94634">
        <ele>405.33</ele>
        <time>2014-03-02T14:53:03Z</time>
      </trkpt>
      <trkpt lat="45.53387" lon="5.94644">
        <ele>407.74</ele>
        <time>2014-03-02T14:53:17Z</time>
      </trkpt>
      <trkpt lat="45.53359" lon="5.94643">
        <ele>411.1</ele>
        <time>2014-03-02T14:53:31Z</time>
      </trkpt>
      <trkpt lat="45.5333" lon="5.94646">
        <ele>413.5</ele>
        <time>2014-03-02T14:53:46Z</time>
      </trkpt>
      <trkpt lat="45.53303" lon="5.94647">
        <ele>416.87</ele>
        <time>2014-03-02T14:54:00Z</time>
      </trkpt>
      <trkpt lat="45.53296" lon="5.94643">
        <ele>417.35</ele>
        <time>2014-03-02T14:54:04Z</time>
      </trkpt>
      <trkpt lat="45.53299" lon="5.94619">
        <ele>420.23</ele>
        <time>2014-03-02T14:54:15Z</time>
      </trkpt>
      <trkpt lat="45.53331" lon="5.94603">
        <ele>423.6</ele>
        <time>2014-03-02T14:54:32Z</time>
      </trkpt>
      <trkpt lat="45.53362" lon="5.9457">
        <ele>426.48</ele>
        <time>2014-03-02T14:54:51Z</time>
      </trkpt>
      <trkpt lat="45.53388" lon="5.94535">
        <ele>428.89</ele>
        <time>2014-03-02T14:55:08Z</time>
      </trkpt>
      <trkpt lat="45.53413" lon="5.94506">
        <ele>431.77</ele>
        <time>2014-03-02T14:55:24Z</time>
      </trkpt>
      <trkpt lat="45.53427" lon="5.94468">
        <ele>435.13</ele>
        <time>2014-03-02T14:55:40Z</time>
      </trkpt>
      <trkpt lat="45.53451" lon="5.94463">
        <ele>437.54</ele>
        <time>2014-03-02T14:55:54Z</time>
      </trkpt>
      <trkpt lat="45.53453" lon="5.94463">
        <ele>438.5</ele>
        <time>2014-03-02T14:55:55Z</time>
      </trkpt>
      <trkpt lat="45.53455" lon="5.94463">
        <ele>438.02</ele>
        <time>2014-03-02T14:55:56Z</time>
      </trkpt>
      <trkpt lat="45.53457" lon="5.94462">
        <ele>438.5</ele>
        <time>2014-03-02T14:55:57Z</time>
      </trkpt>
      <trkpt lat="45.53458" lon="5.94461">
        <ele>438.5</ele>
        <time>2014-03-02T14:55:58Z</time>
      </trkpt>
      <trkpt lat="45.5346" lon="5.9446">
        <ele>439.46</ele>
        <time>2014-03-02T14:55:59Z</time>
      </trkpt>
      <trkpt lat="45.53462" lon="5.94459">
        <ele>439.46</ele>
        <time>2014-03-02T14:56:00Z</time>
      </trkpt>
      <trkpt lat="45.53465" lon="5.94427">
        <ele>441.38</ele>
        <time>2014-03-02T14:56:14Z</time>
      </trkpt>
      <trkpt lat="45.53463" lon="5.94426">
        <ele>441.38</ele>
        <time>2014-03-02T14:56:15Z</time>
      </trkpt>
      <trkpt lat="45.53429" lon="5.94429">
        <ele>444.75</ele>
        <time>2014-03-02T14:56:31Z</time>
      </trkpt>
      <trkpt lat="45.53396" lon="5.94436">
        <ele>446.67</ele>
        <time>2014-03-02T14:56:47Z</time>
      </trkpt>
      <trkpt lat="45.53357" lon="5.94447">
        <ele>449.07</ele>
        <time>2014-03-02T14:57:04Z</time>
      </trkpt>
      <trkpt lat="45.53317" lon="5.9444">
        <ele>450.03</ele>
        <time>2014-03-02T14:57:19Z</time>
      </trkpt>
      <trkpt lat="45.5328" lon="5.94469">
        <ele>450.52</ele>
        <time>2014-03-02T14:57:34Z</time>
      </trkpt>
      <trkpt lat="45.53246" lon="5.94483">
        <ele>453.4</ele>
        <time>2014-03-02T14:57:48Z</time>
      </trkpt>
      <trkpt lat="45.5325" lon="5.94467">
        <ele>454.36</ele>
        <time>2014-03-02T14:57:53Z</time>
      </trkpt>
      <trkpt lat="45.53279" lon="5.94428">
        <ele>456.76</ele>
        <time>2014-03-02T14:58:09Z</time>
      </trkpt>
      <trkpt lat="45.53305" lon="5.94404">
        <ele>459.65</ele>
        <time>2014-03-02T14:58:23Z</time>
      </trkpt>
      <trkpt lat="45.53317" lon="5.944">
        <ele>460.61</ele>
        <time>2014-03-02T14:58:28Z</time>
      </trkpt>
      <trkpt lat="45.53346" lon="5.94385">
        <ele>463.49</ele>
        <time>2014-03-02T14:58:44Z</time>
      </trkpt>
      <trkpt lat="45.53359" lon="5.94349">
        <ele>465.42</ele>
        <time>2014-03-02T14:58:58Z</time>
      </trkpt>
      <trkpt lat="45.53368" lon="5.94307">
        <ele>468.3</ele>
        <time>2014-03-02T14:59:13Z</time>
      </trkpt>
      <trkpt lat="45.53382" lon="5.94277">
        <ele>471.18</ele>
        <time>2014-03-02T14:59:27Z</time>
      </trkpt>
      <trkpt lat="45.53405" lon="5.94254">
        <ele>473.59</ele>
        <time>2014-03-02T14:59:42Z</time>
      </trkpt>
      <trkpt lat="45.53421" lon="5.94224">
        <ele>477.43</ele>
        <time>2014-03-02T14:59:57Z</time>
      </trkpt>
      <trkpt lat="45.53431" lon="5.94192">
        <ele>479.35</ele>
        <time>2014-03-02T15:00:11Z</time>
      </trkpt>
      <trkpt lat="45.53452" lon="5.94167">
        <ele>481.76</ele>
        <time>2014-03-02T15:00:27Z</time>
      </trkpt>
      <trkpt lat="45.53473" lon="5.94158">
        <ele>484.64</ele>
        <time>2014-03-02T15:00:40Z</time>
      </trkpt>
      <trkpt lat="45.53501" lon="5.94152">
        <ele>487.53</ele>
        <time>2014-03-02T15:00:56Z</time>
      </trkpt>
      <trkpt lat="45.53524" lon="5.94151">
        <ele>490.41</ele>
        <time>2014-03-02T15:01:10Z</time>
      </trkpt>
      <trkpt lat="45.53537" lon="5.94149">
        <ele>491.85</ele>
        <time>2014-03-02T15:01:17Z</time>
      </trkpt>
      <trkpt lat="45.53562" lon="5.94134">
        <ele>494.74</ele>
        <time>2014-03-02T15:01:33Z</time>
      </trkpt>
      <trkpt lat="45.53572" lon="5.941">
        <ele>498.1</ele>
        <time>2014-03-02T15:01:47Z</time>
      </trkpt>
      <trkpt lat="45.53592" lon="5.94077">
        <ele>500.5</ele>
        <time>2014-03-02T15:02:02Z</time>
      </trkpt>
      <trkpt lat="45.53615" lon="5.94066">
        <ele>503.87</ele>
        <time>2014-03-02T15:02:16Z</time>
      </trkpt>
      <trkpt lat="45.53642" lon="5.94053">
        <ele>506.75</ele>
        <time>2014-03-02T15:02:32Z</time>
      </trkpt>
      <trkpt lat="45.5367" lon="5.94035">
        <ele>509.64</ele>
        <time>2014-03-02T15:02:50Z</time>
      </trkpt>
      <trkpt lat="45.53655" lon="5.94017">
        <ele>511.56</ele>
        <time>2014-03-02T15:03:02Z</time>
      </trkpt>
      <trkpt lat="45.5362" lon="5.94011">
        <ele>514.92</ele>
        <time>2014-03-02T15:03:20Z</time>
      </trkpt>
      <trkpt lat="45.5359" lon="5.93996">
        <ele>517.81</ele>
        <time>2014-03-02T15:03:37Z</time>
      </trkpt>
      <trkpt lat="45.53565" lon="5.93991">
        <ele>521.17</ele>
        <time>2014-03-02T15:03:52Z</time>
      </trkpt>
      <trkpt lat="45.5354" lon="5.93984">
        <ele>523.58</ele>
        <time>2014-03-02T15:04:06Z</time>
      </trkpt>
      <trkpt lat="45.53516" lon="5.93975">
        <ele>525.98</ele>
        <time>2014-03-02T15:04:20Z</time>
      </trkpt>
      <trkpt lat="45.53489" lon="5.93974">
        <ele>528.86</ele>
        <time>2014-03-02T15:04:36Z</time>
      </trkpt>
      <trkpt lat="45.53482" lon="5.93973">
        <ele>529.82</ele>
        <time>2014-03-02T15:04:40Z</time>
      </trkpt>
      <trkpt lat="45.53485" lon="5.9396">
        <ele>531.75</ele>
        <time>2014-03-02T15:04:49Z</time>
      </trkpt>
      <trkpt lat="45.53489" lon="5.93956">
        <ele>533.19</ele>
        <time>2014-03-02T15:04:53Z</time>
      </trkpt>
      <trkpt lat="45.53493" lon="5.9395">
        <ele>533.67</ele>
        <time>2014-03-02T15:04:57Z</time>
      </trkpt>
      <trkpt lat="45.53498" lon="5.9395">
        <ele>533.19</ele>
        <time>2014-03-02T15:05:12Z</time>
      </trkpt>
      <trkpt lat="45.53498" lon="5.9395">
        <ele>532.71</ele>
        <time>2014-03-02T15:05:42Z</time>
      </trkpt>
      <trkpt lat="45.53498" lon="5.9395">
        <ele>533.19</ele>
        <time>2014-03-02T15:06:12Z</time>
      </trkpt>
      <trkpt lat="45.53498" lon="5.9395">
        <ele>532.71</ele>
        <time>2014-03-02T15:06:40Z</time>
      </trkpt>
      <trkpt lat="45.53498" lon="5.93951">
        <ele>532.71</ele>
        <time>2014-03-02T15:07:09Z</time>
      </trkpt>
      <trkpt lat="45.53497" lon="5.93947">
        <ele>533.19</ele>
        <time>2014-03-02T15:07:35Z</time>
      </trkpt>
      <trkpt lat="45.53497" lon="5.93947">
        <ele>533.19</ele>
        <time>2014-03-02T15:07:38Z</time>
      </trkpt>
      <trkpt lat="45.535" lon="5.93942">
        <ele>534.15</ele>
        <time>2014-03-02T15:07:42Z</time>
      </trkpt>
      <trkpt lat="45.53502" lon="5.93937">
        <ele>534.15</ele>
        <time>2014-03-02T15:07:45Z</time>
      </trkpt>
      <trkpt lat="45.53505" lon="5.93931">
        <ele>535.11</ele>
        <time>2014-03-02T15:07:49Z</time>
      </trkpt>
      <trkpt lat="45.53511" lon="5.93919">
        <ele>536.55</ele>
        <time>2014-03-02T15:07:57Z</time>
      </trkpt>
      <trkpt lat="45.53515" lon="5.93914">
        <ele>537.51</ele>
        <time>2014-03-02T15:08:01Z</time>
      </trkpt>
      <trkpt lat="45.53532" lon="5.93899">
        <ele>540.4</ele>
        <time>2014-03-02T15:08:15Z</time>
      </trkpt>
      <trkpt lat="45.5354" lon="5.93891">
        <ele>540.88</ele>
        <time>2014-03-02T15:08:23Z</time>
      </trkpt>
      <trkpt lat="45.53546" lon="5.93884">
        <ele>542.32</ele>
        <time>2014-03-02T15:08:30Z</time>
      </trkpt>
      <trkpt lat="45.5355" lon="5.9388">
        <ele>543.76</ele>
        <time>2014-03-02T15:08:34Z</time>
      </trkpt>
      <trkpt lat="45.53571" lon="5.93865">
        <ele>546.65</ele>
        <time>2014-03-02T15:08:53Z</time>
      </trkpt>
      <trkpt lat="45.53572" lon="5.93866">
        <ele>547.13</ele>
        <time>2014-03-02T15:08:55Z</time>
      </trkpt>
      <trkpt lat="45.53584" lon="5.93859">
        <ele>549.05</ele>
        <time>2014-03-02T15:09:06Z</time>
      </trkpt>
      <trkpt lat="45.53587" lon="5.93852">
        <ele>550.49</ele>
        <time>2014-03-02T15:09:12Z</time>
      </trkpt>
      <trkpt lat="45.53596" lon="5.93847">
        <ele>551.93</ele>
        <time>2014-03-02T15:09:21Z</time>
      </trkpt>
      <trkpt lat="45.53599" lon="5.93846">
        <ele>553.38</ele>
        <time>2014-03-02T15:09:24Z</time>
      </trkpt>
      <trkpt lat="45.53593" lon="5.93835">
        <ele>555.3</ele>
        <time>2014-03-02T15:09:32Z</time>
      </trkpt>
      <trkpt lat="45.53585" lon="5.9383">
        <ele>556.74</ele>
        <time>2014-03-02T15:09:40Z</time>
      </trkpt>
      <trkpt lat="45.53568" lon="5.9382">
        <ele>559.14</ele>
        <time>2014-03-02T15:09:56Z</time>
      </trkpt>
      <trkpt lat="45.53553" lon="5.93814">
        <ele>561.55</ele>
        <time>2014-03-02T15:10:10Z</time>
      </trkpt>
      <trkpt lat="45.53548" lon="5.93813">
        <ele>562.51</ele>
        <time>2014-03-02T15:10:23Z</time>
      </trkpt>
      <trkpt lat="45.53543" lon="5.93807">
        <ele>564.91</ele>
        <time>2014-03-02T15:10:36Z</time>
      </trkpt>
      <trkpt lat="45.53542" lon="5.93796">
        <ele>566.83</ele>
        <time>2014-03-02T15:10:51Z</time>
      </trkpt>
      <trkpt lat="45.53546" lon="5.93783">
        <ele>569.72</ele>
        <time>2014-03-02T15:11:08Z</time>
      </trkpt>
      <trkpt lat="45.53553" lon="5.93771">
        <ele>572.6</ele>
        <time>2014-03-02T15:11:25Z</time>
      </trkpt>
      <trkpt lat="45.53553" lon="5.93771">
        <ele>573.08</ele>
        <time>2014-03-02T15:11:50Z</time>
      </trkpt>
      <trkpt lat="45.53554" lon="5.93771">
        <ele>573.08</ele>
        <time>2014-03-02T15:12:12Z</time>
      </trkpt>
      <trkpt lat="45.53569" lon="5.93756">
        <ele>575.97</ele>
        <time>2014-03-02T15:12:26Z</time>
      </trkpt>
      <trkpt lat="45.53576" lon="5.93751">
        <ele>577.41</ele>
        <time>2014-03-02T15:12:32Z</time>
      </trkpt>
      <trkpt lat="45.53579" lon="5.93747">
        <ele>578.85</ele>
        <time>2014-03-02T15:12:36Z</time>
      </trkpt>
      <trkpt lat="45.53592" lon="5.9373">
        <ele>581.73</ele>
        <time>2014-03-02T15:12:51Z</time>
      </trkpt>
      <trkpt lat="45.53601" lon="5.93718">
        <ele>584.14</ele>
        <time>2014-03-02T15:13:01Z</time>
      </trkpt>
      <trkpt lat="45.53614" lon="5.93706">
        <ele>587.5</ele>
        <time>2014-03-02T15:13:16Z</time>
      </trkpt>
      <trkpt lat="45.53626" lon="5.93695">
        <ele>589.43</ele>
        <time>2014-03-02T15:13:31Z</time>
      </trkpt>
      <trkpt lat="45.53635" lon="5.93685">
        <ele>591.83</ele>
        <time>2014-03-02T15:13:41Z</time>
      </trkpt>
      <trkpt lat="45.53643" lon="5.93672">
        <ele>595.67</ele>
        <time>2014-03-02T15:13:52Z</time>
      </trkpt>
      <trkpt lat="45.53655" lon="5.9366">
        <ele>598.08</ele>
        <time>2014-03-02T15:14:06Z</time>
      </trkpt>
      <trkpt lat="45.53664" lon="5.93649">
        <ele>600.48</ele>
        <time>2014-03-02T15:14:17Z</time>
      </trkpt>
      <trkpt lat="45.53665" lon="5.93647">
        <ele>600.96</ele>
        <time>2014-03-02T15:14:19Z</time>
      </trkpt>
      <trkpt lat="45.53671" lon="5.93642">
        <ele>601.92</ele>
        <time>2014-03-02T15:14:25Z</time>
      </trkpt>
      <trkpt lat="45.53679" lon="5.93621">
        <ele>604.81</ele>
        <time>2014-03-02T15:14:39Z</time>
      </trkpt>
      <trkpt lat="45.5368" lon="5.93618">
        <ele>605.77</ele>
        <time>2014-03-02T15:14:42Z</time>
      </trkpt>
      <trkpt lat="45.53683" lon="5.93615">
        <ele>606.25</ele>
        <time>2014-03-02T15:14:45Z</time>
      </trkpt>
      <trkpt lat="45.53689" lon="5.93606">
        <ele>607.69</ele>
        <time>2014-03-02T15:14:53Z</time>
      </trkpt>
      <trkpt lat="45.53696" lon="5.93596">
        <ele>613.94</ele>
        <time>2014-03-02T15:15:06Z</time>
      </trkpt>
      <trkpt lat="45.53697" lon="5.93596">
        <ele>610.09</ele>
        <time>2014-03-02T15:15:07Z</time>
      </trkpt>
      <trkpt lat="45.53697" lon="5.93596">
        <ele>611.54</ele>
        <time>2014-03-02T15:15:23Z</time>
      </trkpt>
      <trkpt lat="45.53698" lon="5.93587">
        <ele>612.5</ele>
        <time>2014-03-02T15:15:39Z</time>
      </trkpt>
      <trkpt lat="45.53698" lon="5.93586">
        <ele>612.98</ele>
        <time>2014-03-02T15:15:47Z</time>
      </trkpt>
      <trkpt lat="45.53698" lon="5.9356">
        <ele>616.34</ele>
        <time>2014-03-02T15:16:00Z</time>
      </trkpt>
      <trkpt lat="45.53691" lon="5.9354">
        <ele>618.26</ele>
        <time>2014-03-02T15:16:13Z</time>
      </trkpt>
      <trkpt lat="45.53691" lon="5.93534">
        <ele>619.71</ele>
        <time>2014-03-02T15:16:27Z</time>
      </trkpt>
      <trkpt lat="45.5369" lon="5.93532">
        <ele>619.71</ele>
        <time>2014-03-02T15:16:45Z</time>
      </trkpt>
      <trkpt lat="45.53688" lon="5.93527">
        <ele>618.26</ele>
        <time>2014-03-02T15:16:51Z</time>
      </trkpt>
      <trkpt lat="45.53688" lon="5.93515">
        <ele>615.38</ele>
        <time>2014-03-02T15:16:56Z</time>
      </trkpt>
      <trkpt lat="45.5369" lon="5.93504">
        <ele>611.54</ele>
        <time>2014-03-02T15:17:00Z</time>
      </trkpt>
      <trkpt lat="45.5369" lon="5.93501">
        <ele>611.54</ele>
        <time>2014-03-02T15:17:01Z</time>
      </trkpt>
      <trkpt lat="45.53692" lon="5.93493">
        <ele>608.17</ele>
        <time>2014-03-02T15:17:05Z</time>
      </trkpt>
      <trkpt lat="45.53695" lon="5.9348">
        <ele>604.81</ele>
        <time>2014-03-02T15:17:09Z</time>
      </trkpt>
      <trkpt lat="45.53696" lon="5.93477">
        <ele>604.33</ele>
        <time>2014-03-02T15:17:10Z</time>
      </trkpt>
      <trkpt lat="45.53697" lon="5.93474">
        <ele>603.36</ele>
        <time>2014-03-02T15:17:11Z</time>
      </trkpt>
      <trkpt lat="45.53699" lon="5.93456">
        <ele>599.52</ele>
        <time>2014-03-02T15:17:16Z</time>
      </trkpt>
      <trkpt lat="45.53708" lon="5.93443">
        <ele>596.64</ele>
        <time>2014-03-02T15:17:22Z</time>
      </trkpt>
      <trkpt lat="45.53717" lon="5.93449">
        <ele>593.75</ele>
        <time>2014-03-02T15:17:30Z</time>
      </trkpt>
      <trkpt lat="45.5372" lon="5.9345">
        <ele>592.79</ele>
        <time>2014-03-02T15:17:32Z</time>
      </trkpt>
      <trkpt lat="45.53724" lon="5.93451">
        <ele>591.83</ele>
        <time>2014-03-02T15:17:34Z</time>
      </trkpt>
      <trkpt lat="45.53739" lon="5.93453">
        <ele>588.46</ele>
        <time>2014-03-02T15:17:42Z</time>
      </trkpt>
      <trkpt lat="45.53746" lon="5.93456">
        <ele>586.06</ele>
        <time>2014-03-02T15:17:48Z</time>
      </trkpt>
      <trkpt lat="45.53756" lon="5.93464">
        <ele>582.7</ele>
        <time>2014-03-02T15:17:59Z</time>
      </trkpt>
      <trkpt lat="45.5376" lon="5.93463">
        <ele>580.77</ele>
        <time>2014-03-02T15:18:04Z</time>
      </trkpt>
      <trkpt lat="45.53764" lon="5.93464">
        <ele>579.33</ele>
        <time>2014-03-02T15:18:07Z</time>
      </trkpt>
      <trkpt lat="45.53771" lon="5.9347">
        <ele>577.41</ele>
        <time>2014-03-02T15:18:12Z</time>
      </trkpt>
      <trkpt lat="45.53774" lon="5.93472">
        <ele>575.97</ele>
        <time>2014-03-02T15:18:14Z</time>
      </trkpt>
      <trkpt lat="45.53782" lon="5.93479">
        <ele>573.56</ele>
        <time>2014-03-02T15:18:21Z</time>
      </trkpt>
      <trkpt lat="45.53788" lon="5.93482">
        <ele>571.64</ele>
        <time>2014-03-02T15:18:25Z</time>
      </trkpt>
      <trkpt lat="45.53789" lon="5.93482">
        <ele>571.64</ele>
        <time>2014-03-02T15:18:26Z</time>
      </trkpt>
      <trkpt lat="45.53792" lon="5.93487">
        <ele>570.2</ele>
        <time>2014-03-02T15:18:30Z</time>
      </trkpt>
      <trkpt lat="45.53796" lon="5.93494">
        <ele>568.28</ele>
        <time>2014-03-02T15:18:35Z</time>
      </trkpt>
      <trkpt lat="45.538" lon="5.93501">
        <ele>565.39</ele>
        <time>2014-03-02T15:18:43Z</time>
      </trkpt>
      <trkpt lat="45.53816" lon="5.93513">
        <ele>561.07</ele>
        <time>2014-03-02T15:18:51Z</time>
      </trkpt>
      <trkpt lat="45.5383" lon="5.93519">
        <ele>558.18</ele>
        <time>2014-03-02T15:18:57Z</time>
      </trkpt>
      <trkpt lat="45.53837" lon="5.93521">
        <ele>556.74</ele>
        <time>2014-03-02T15:19:00Z</time>
      </trkpt>
      <trkpt lat="45.53848" lon="5.9352">
        <ele>553.38</ele>
        <time>2014-03-02T15:19:05Z</time>
      </trkpt>
      <trkpt lat="45.53863" lon="5.93522">
        <ele>550.01</ele>
        <time>2014-03-02T15:19:10Z</time>
      </trkpt>
      <trkpt lat="45.5388" lon="5.9353">
        <ele>546.65</ele>
        <time>2014-03-02T15:19:17Z</time>
      </trkpt>
      <trkpt lat="45.53888" lon="5.93532">
        <ele>543.28</ele>
        <time>2014-03-02T15:19:21Z</time>
      </trkpt>
      <trkpt lat="45.53891" lon="5.93533">
        <ele>543.28</ele>
        <time>2014-03-02T15:19:22Z</time>
      </trkpt>
      <trkpt lat="45.53901" lon="5.93536">
        <ele>540.88</ele>
        <time>2014-03-02T15:19:28Z</time>
      </trkpt>
      <trkpt lat="45.53909" lon="5.93536">
        <ele>537.03</ele>
        <time>2014-03-02T15:19:32Z</time>
      </trkpt>
      <trkpt lat="45.53922" lon="5.9354">
        <ele>533.19</ele>
        <time>2014-03-02T15:19:38Z</time>
      </trkpt>
      <trkpt lat="45.53925" lon="5.93541">
        <ele>532.23</ele>
        <time>2014-03-02T15:19:40Z</time>
      </trkpt>
      <trkpt lat="45.53931" lon="5.9354">
        <ele>528.86</ele>
        <time>2014-03-02T15:19:52Z</time>
      </trkpt>
      <trkpt lat="45.53933" lon="5.93541">
        <ele>528.86</ele>
        <time>2014-03-02T15:19:53Z</time>
      </trkpt>
      <trkpt lat="45.53935" lon="5.93541">
        <ele>527.9</ele>
        <time>2014-03-02T15:19:58Z</time>
      </trkpt>
      <trkpt lat="45.53939" lon="5.9354">
        <ele>526.46</ele>
        <time>2014-03-02T15:20:01Z</time>
      </trkpt>
      <trkpt lat="45.53949" lon="5.93543">
        <ele>523.09</ele>
        <time>2014-03-02T15:20:06Z</time>
      </trkpt>
      <trkpt lat="45.53959" lon="5.93546">
        <ele>519.73</ele>
        <time>2014-03-02T15:20:10Z</time>
      </trkpt>
      <trkpt lat="45.53964" lon="5.93548">
        <ele>518.29</ele>
        <time>2014-03-02T15:20:12Z</time>
      </trkpt>
      <trkpt lat="45.53975" lon="5.93551">
        <ele>515.4</ele>
        <time>2014-03-02T15:20:15Z</time>
      </trkpt>
      <trkpt lat="45.53988" lon="5.93555">
        <ele>513.48</ele>
        <time>2014-03-02T15:20:18Z</time>
      </trkpt>
      <trkpt lat="45.53997" lon="5.93561">
        <ele>511.08</ele>
        <time>2014-03-02T15:20:20Z</time>
      </trkpt>
      <trkpt lat="45.54015" lon="5.93571">
        <ele>507.71</ele>
        <time>2014-03-02T15:20:24Z</time>
      </trkpt>
      <trkpt lat="45.54034" lon="5.93582">
        <ele>504.83</ele>
        <time>2014-03-02T15:20:28Z</time>
      </trkpt>
      <trkpt lat="45.54038" lon="5.93585">
        <ele>504.83</ele>
        <time>2014-03-02T15:20:29Z</time>
      </trkpt>
      <trkpt lat="45.54056" lon="5.93602">
        <ele>501.46</ele>
        <time>2014-03-02T15:20:34Z</time>
      </trkpt>
      <trkpt lat="45.54066" lon="5.93612">
        <ele>500.98</ele>
        <time>2014-03-02T15:20:37Z</time>
      </trkpt>
      <trkpt lat="45.5409" lon="5.93628">
        <ele>497.14</ele>
        <time>2014-03-02T15:20:44Z</time>
      </trkpt>
      <trkpt lat="45.54106" lon="5.93635">
        <ele>495.7</ele>
        <time>2014-03-02T15:20:47Z</time>
      </trkpt>
      <trkpt lat="45.54118" lon="5.93632">
        <ele>492.81</ele>
        <time>2014-03-02T15:20:52Z</time>
      </trkpt>
      <trkpt lat="45.54114" lon="5.93623">
        <ele>491.37</ele>
        <time>2014-03-02T15:20:54Z</time>
      </trkpt>
      <trkpt lat="45.5412" lon="5.93612">
        <ele>488.49</ele>
        <time>2014-03-02T15:20:57Z</time>
      </trkpt>
      <trkpt lat="45.54107" lon="5.9358">
        <ele>486.08</ele>
        <time>2014-03-02T15:21:02Z</time>
      </trkpt>
      <trkpt lat="45.54106" lon="5.93571">
        <ele>484.64</ele>
        <time>2014-03-02T15:21:10Z</time>
      </trkpt>
      <trkpt lat="45.54102" lon="5.93559">
        <ele>482.72</ele>
        <time>2014-03-02T15:21:14Z</time>
      </trkpt>
      <trkpt lat="45.54099" lon="5.93554">
        <ele>483.2</ele>
        <time>2014-03-02T15:21:15Z</time>
      </trkpt>
      <trkpt lat="45.54096" lon="5.93551">
        <ele>483.2</ele>
        <time>2014-03-02T15:21:16Z</time>
      </trkpt>
      <trkpt lat="45.54094" lon="5.93547">
        <ele>484.16</ele>
        <time>2014-03-02T15:21:17Z</time>
      </trkpt>
      <trkpt lat="45.54092" lon="5.93544">
        <ele>483.2</ele>
        <time>2014-03-02T15:21:18Z</time>
      </trkpt>
      <trkpt lat="45.54086" lon="5.93536">
        <ele>484.16</ele>
        <time>2014-03-02T15:21:28Z</time>
      </trkpt>
      <trkpt lat="45.54086" lon="5.93536">
        <ele>484.16</ele>
        <time>2014-03-02T15:21:45Z</time>
      </trkpt>
      <trkpt lat="45.54085" lon="5.93535">
        <ele>484.16</ele>
        <time>2014-03-02T15:21:58Z</time>
      </trkpt>
      <trkpt lat="45.54062" lon="5.93509">
        <ele>486.08</ele>
        <time>2014-03-02T15:22:14Z</time>
      </trkpt>
      <trkpt lat="45.54036" lon="5.93475">
        <ele>488.49</ele>
        <time>2014-03-02T15:22:32Z</time>
      </trkpt>
      <trkpt lat="45.54007" lon="5.93444">
        <ele>489.93</ele>
        <time>2014-03-02T15:22:49Z</time>
      </trkpt>
      <trkpt lat="45.53986" lon="5.9341">
        <ele>492.81</ele>
        <time>2014-03-02T15:23:05Z</time>
      </trkpt>
      <trkpt lat="45.53973" lon="5.9339">
        <ele>495.7</ele>
        <time>2014-03-02T15:23:17Z</time>
      </trkpt>
      <trkpt lat="45.53973" lon="5.93388">
        <ele>496.18</ele>
        <time>2014-03-02T15:23:18Z</time>
      </trkpt>
      <trkpt lat="45.53972" lon="5.93386">
        <ele>496.18</ele>
        <time>2014-03-02T15:23:19Z</time>
      </trkpt>
      <trkpt lat="45.53971" lon="5.93384">
        <ele>496.18</ele>
        <time>2014-03-02T15:23:20Z</time>
      </trkpt>
      <trkpt lat="45.53971" lon="5.93382">
        <ele>496.18</ele>
        <time>2014-03-02T15:23:21Z</time>
      </trkpt>
      <trkpt lat="45.5397" lon="5.93379">
        <ele>496.66</ele>
        <time>2014-03-02T15:23:22Z</time>
      </trkpt>
      <trkpt lat="45.5397" lon="5.93376">
        <ele>496.66</ele>
        <time>2014-03-02T15:23:23Z</time>
      </trkpt>
      <trkpt lat="45.5396" lon="5.93333">
        <ele>498.1</ele>
        <time>2014-03-02T15:23:38Z</time>
      </trkpt>
      <trkpt lat="45.53965" lon="5.93306">
        <ele>498.58</ele>
        <time>2014-03-02T15:23:53Z</time>
      </trkpt>
      <trkpt lat="45.53966" lon="5.93304">
        <ele>499.06</ele>
        <time>2014-03-02T15:24:02Z</time>
      </trkpt>
      <trkpt lat="45.53966" lon="5.93302">
        <ele>499.06</ele>
        <time>2014-03-02T15:24:03Z</time>
      </trkpt>
      <trkpt lat="45.5398" lon="5.93272">
        <ele>500.5</ele>
        <time>2014-03-02T15:24:15Z</time>
      </trkpt>
      <trkpt lat="45.54007" lon="5.93251">
        <ele>503.39</ele>
        <time>2014-03-02T15:24:30Z</time>
      </trkpt>
      <trkpt lat="45.54037" lon="5.9324">
        <ele>505.79</ele>
        <time>2014-03-02T15:24:45Z</time>
      </trkpt>
      <trkpt lat="45.54065" lon="5.93246">
        <ele>507.23</ele>
        <time>2014-03-02T15:24:59Z</time>
      </trkpt>
      <trkpt lat="45.54063" lon="5.93224">
        <ele>509.64</ele>
        <time>2014-03-02T15:25:08Z</time>
      </trkpt>
      <trkpt lat="45.54061" lon="5.93222">
        <ele>509.16</ele>
        <time>2014-03-02T15:25:09Z</time>
      </trkpt>
      <trkpt lat="45.54058" lon="5.93221">
        <ele>509.64</ele>
        <time>2014-03-02T15:25:10Z</time>
      </trkpt>
      <trkpt lat="45.54056" lon="5.9322">
        <ele>509.64</ele>
        <time>2014-03-02T15:25:11Z</time>
      </trkpt>
      <trkpt lat="45.54054" lon="5.93219">
        <ele>509.64</ele>
        <time>2014-03-02T15:25:12Z</time>
      </trkpt>
      <trkpt lat="45.54051" lon="5.93218">
        <ele>510.12</ele>
        <time>2014-03-02T15:25:13Z</time>
      </trkpt>
      <trkpt lat="45.54049" lon="5.93218">
        <ele>510.12</ele>
        <time>2014-03-02T15:25:14Z</time>
      </trkpt>
      <trkpt lat="45.5402" lon="5.9321">
        <ele>513.48</ele>
        <time>2014-03-02T15:25:29Z</time>
      </trkpt>
      <trkpt lat="45.53994" lon="5.93202">
        <ele>515.88</ele>
        <time>2014-03-02T15:25:43Z</time>
      </trkpt>
      <trkpt lat="45.5397" lon="5.93189">
        <ele>518.77</ele>
        <time>2014-03-02T15:25:57Z</time>
      </trkpt>
      <trkpt lat="45.53943" lon="5.93165">
        <ele>521.65</ele>
        <time>2014-03-02T15:26:14Z</time>
      </trkpt>
      <trkpt lat="45.53918" lon="5.93141">
        <ele>524.06</ele>
        <time>2014-03-02T15:26:30Z</time>
      </trkpt>
      <trkpt lat="45.53891" lon="5.93118">
        <ele>526.94</ele>
        <time>2014-03-02T15:26:47Z</time>
      </trkpt>
      <trkpt lat="45.53872" lon="5.931">
        <ele>529.34</ele>
        <time>2014-03-02T15:27:00Z</time>
      </trkpt>
      <trkpt lat="45.53853" lon="5.93079">
        <ele>531.75</ele>
        <time>2014-03-02T15:27:14Z</time>
      </trkpt>
      <trkpt lat="45.53832" lon="5.93065">
        <ele>534.15</ele>
        <time>2014-03-02T15:27:28Z</time>
      </trkpt>
      <trkpt lat="45.53809" lon="5.93087">
        <ele>536.55</ele>
        <time>2014-03-02T15:27:43Z</time>
      </trkpt>
      <trkpt lat="45.53785" lon="5.931">
        <ele>538.96</ele>
        <time>2014-03-02T15:27:58Z</time>
      </trkpt>
      <trkpt lat="45.53789" lon="5.93072">
        <ele>540.4</ele>
        <time>2014-03-02T15:28:10Z</time>
      </trkpt>
      <trkpt lat="45.53808" lon="5.93026">
        <ele>542.8</ele>
        <time>2014-03-02T15:28:27Z</time>
      </trkpt>
      <trkpt lat="45.53831" lon="5.92996">
        <ele>545.2</ele>
        <time>2014-03-02T15:28:43Z</time>
      </trkpt>
      <trkpt lat="45.53853" lon="5.92985">
        <ele>548.09</ele>
        <time>2014-03-02T15:28:55Z</time>
      </trkpt>
      <trkpt lat="45.53882" lon="5.92972">
        <ele>549.53</ele>
        <time>2014-03-02T15:29:11Z</time>
      </trkpt>
      <trkpt lat="45.53917" lon="5.92974">
        <ele>552.41</ele>
        <time>2014-03-02T15:29:29Z</time>
      </trkpt>
      <trkpt lat="45.5395" lon="5.92967">
        <ele>554.34</ele>
        <time>2014-03-02T15:29:45Z</time>
      </trkpt>
      <trkpt lat="45.53967" lon="5.9296">
        <ele>557.22</ele>
        <time>2014-03-02T15:29:54Z</time>
      </trkpt>
      <trkpt lat="45.54002" lon="5.92965">
        <ele>558.66</ele>
        <time>2014-03-02T15:30:12Z</time>
      </trkpt>
      <trkpt lat="45.54027" lon="5.92947">
        <ele>560.59</ele>
        <time>2014-03-02T15:30:28Z</time>
      </trkpt>
      <trkpt lat="45.54026" lon="5.92931">
        <ele>561.07</ele>
        <time>2014-03-02T15:30:34Z</time>
      </trkpt>
      <trkpt lat="45.54025" lon="5.92928">
        <ele>561.55</ele>
        <time>2014-03-02T15:30:35Z</time>
      </trkpt>
      <trkpt lat="45.54024" lon="5.92926">
        <ele>561.55</ele>
        <time>2014-03-02T15:30:36Z</time>
      </trkpt>
      <trkpt lat="45.54023" lon="5.92924">
        <ele>561.55</ele>
        <time>2014-03-02T15:30:37Z</time>
      </trkpt>
      <trkpt lat="45.54022" lon="5.92922">
        <ele>562.03</ele>
        <time>2014-03-02T15:30:38Z</time>
      </trkpt>
      <trkpt lat="45.5402" lon="5.92921">
        <ele>561.55</ele>
        <time>2014-03-02T15:30:39Z</time>
      </trkpt>
      <trkpt lat="45.54018" lon="5.92919">
        <ele>562.03</ele>
        <time>2014-03-02T15:30:40Z</time>
      </trkpt>
      <trkpt lat="45.54017" lon="5.92917">
        <ele>561.55</ele>
        <time>2014-03-02T15:30:41Z</time>
      </trkpt>
      <trkpt lat="45.54016" lon="5.92915">
        <ele>562.03</ele>
        <time>2014-03-02T15:30:42Z</time>
      </trkpt>
      <trkpt lat="45.54014" lon="5.92913">
        <ele>562.51</ele>
        <time>2014-03-02T15:30:43Z</time>
      </trkpt>
      <trkpt lat="45.54012" lon="5.92912">
        <ele>562.51</ele>
        <time>2014-03-02T15:30:44Z</time>
      </trkpt>
      <trkpt lat="45.5401" lon="5.92912">
        <ele>562.51</ele>
        <time>2014-03-02T15:30:45Z</time>
      </trkpt>
      <trkpt lat="45.54008" lon="5.92912">
        <ele>562.99</ele>
        <time>2014-03-02T15:30:46Z</time>
      </trkpt>
      <trkpt lat="45.54006" lon="5.92912">
        <ele>563.47</ele>
        <time>2014-03-02T15:30:47Z</time>
      </trkpt>
      <trkpt lat="45.54004" lon="5.92912">
        <ele>563.47</ele>
        <time>2014-03-02T15:30:48Z</time>
      </trkpt>
      <trkpt lat="45.53988" lon="5.92909">
        <ele>564.91</ele>
        <time>2014-03-02T15:30:56Z</time>
      </trkpt>
      <trkpt lat="45.53962" lon="5.92905">
        <ele>566.83</ele>
        <time>2014-03-02T15:31:10Z</time>
      </trkpt>
      <trkpt lat="45.5393" lon="5.92893">
        <ele>570.2</ele>
        <time>2014-03-02T15:31:28Z</time>
      </trkpt>
      <trkpt lat="45.53903" lon="5.92878">
        <ele>572.6</ele>
        <time>2014-03-02T15:31:44Z</time>
      </trkpt>
      <trkpt lat="45.53874" lon="5.92857">
        <ele>575.49</ele>
        <time>2014-03-02T15:32:03Z</time>
      </trkpt>
      <trkpt lat="45.53848" lon="5.92847">
        <ele>577.89</ele>
        <time>2014-03-02T15:32:19Z</time>
      </trkpt>
      <trkpt lat="45.53819" lon="5.92839">
        <ele>580.29</ele>
        <time>2014-03-02T15:32:36Z</time>
      </trkpt>
      <trkpt lat="45.53788" lon="5.9283">
        <ele>583.18</ele>
        <time>2014-03-02T15:32:54Z</time>
      </trkpt>
      <trkpt lat="45.53765" lon="5.92823">
        <ele>585.1</ele>
        <time>2014-03-02T15:33:08Z</time>
      </trkpt>
      <trkpt lat="45.53738" lon="5.92813">
        <ele>587.5</ele>
        <time>2014-03-02T15:33:24Z</time>
      </trkpt>
      <trkpt lat="45.5371" lon="5.92803">
        <ele>590.39</ele>
        <time>2014-03-02T15:33:41Z</time>
      </trkpt>
      <trkpt lat="45.53679" lon="5.92795">
        <ele>593.27</ele>
        <time>2014-03-02T15:33:58Z</time>
      </trkpt>
      <trkpt lat="45.53648" lon="5.92793">
        <ele>596.15</ele>
        <time>2014-03-02T15:34:15Z</time>
      </trkpt>
      <trkpt lat="45.53622" lon="5.92793">
        <ele>598.56</ele>
        <time>2014-03-02T15:34:30Z</time>
      </trkpt>
      <trkpt lat="45.53581" lon="5.92791">
        <ele>600.96</ele>
        <time>2014-03-02T15:34:50Z</time>
      </trkpt>
      <trkpt lat="45.53537" lon="5.92795">
        <ele>601.92</ele>
        <time>2014-03-02T15:35:06Z</time>
      </trkpt>
      <trkpt lat="45.53502" lon="5.92822">
        <ele>602.4</ele>
        <time>2014-03-02T15:35:19Z</time>
      </trkpt>
      <trkpt lat="45.53443" lon="5.92825">
        <ele>603.36</ele>
        <time>2014-03-02T15:35:37Z</time>
      </trkpt>
      <trkpt lat="45.53396" lon="5.92843">
        <ele>604.33</ele>
        <time>2014-03-02T15:35:51Z</time>
      </trkpt>
      <trkpt lat="45.53384" lon="5.92846">
        <ele>602.88</ele>
        <time>2014-03-02T15:35:54Z</time>
      </trkpt>
      <trkpt lat="45.53373" lon="5.92846">
        <ele>601.92</ele>
        <time>2014-03-02T15:35:56Z</time>
      </trkpt>
      <trkpt lat="45.53327" lon="5.92851">
        <ele>601.92</ele>
        <time>2014-03-02T15:36:04Z</time>
      </trkpt>
      <trkpt lat="45.53285" lon="5.92859">
        <ele>604.33</ele>
        <time>2014-03-02T15:36:15Z</time>
      </trkpt>
      <trkpt lat="45.5324" lon="5.92861">
        <ele>603.85</ele>
        <time>2014-03-02T15:36:27Z</time>
      </trkpt>
      <trkpt lat="45.53167" lon="5.92844">
        <ele>602.88</ele>
        <time>2014-03-02T15:36:44Z</time>
      </trkpt>
      <trkpt lat="45.53146" lon="5.92835">
        <ele>602.4</ele>
        <time>2014-03-02T15:36:49Z</time>
      </trkpt>
      <trkpt lat="45.53143" lon="5.92832">
        <ele>602.4</ele>
        <time>2014-03-02T15:36:50Z</time>
      </trkpt>
      <trkpt lat="45.53139" lon="5.9283">
        <ele>602.88</ele>
        <time>2014-03-02T15:36:51Z</time>
      </trkpt>
      <trkpt lat="45.53135" lon="5.92827">
        <ele>602.88</ele>
        <time>2014-03-02T15:36:52Z</time>
      </trkpt>
      <trkpt lat="45.53131" lon="5.92824">
        <ele>602.88</ele>
        <time>2014-03-02T15:36:53Z</time>
      </trkpt>
      <trkpt lat="45.53058" lon="5.92775">
        <ele>602.4</ele>
        <time>2014-03-02T15:37:12Z</time>
      </trkpt>
      <trkpt lat="45.52998" lon="5.92738">
        <ele>603.36</ele>
        <time>2014-03-02T15:37:29Z</time>
      </trkpt>
      <trkpt lat="45.52961" lon="5.92719">
        <ele>604.81</ele>
        <time>2014-03-02T15:37:43Z</time>
      </trkpt>
      <trkpt lat="45.52916" lon="5.92704">
        <ele>606.73</ele>
        <time>2014-03-02T15:38:01Z</time>
      </trkpt>
      <trkpt lat="45.52884" lon="5.92692">
        <ele>608.65</ele>
        <time>2014-03-02T15:38:17Z</time>
      </trkpt>
      <trkpt lat="45.52852" lon="5.92683">
        <ele>610.57</ele>
        <time>2014-03-02T15:38:32Z</time>
      </trkpt>
      <trkpt lat="45.52816" lon="5.92658">
        <ele>612.98</ele>
        <time>2014-03-02T15:38:50Z</time>
      </trkpt>
      <trkpt lat="45.52788" lon="5.92641">
        <ele>615.38</ele>
        <time>2014-03-02T15:39:05Z</time>
      </trkpt>
      <trkpt lat="45.52747" lon="5.92627">
        <ele>616.82</ele>
        <time>2014-03-02T15:39:23Z</time>
      </trkpt>
      <trkpt lat="45.5271" lon="5.92605">
        <ele>619.23</ele>
        <time>2014-03-02T15:39:40Z</time>
      </trkpt>
      <trkpt lat="45.52674" lon="5.92586">
        <ele>622.59</ele>
        <time>2014-03-02T15:40:00Z</time>
      </trkpt>
      <trkpt lat="45.52649" lon="5.92577">
        <ele>625.47</ele>
        <time>2014-03-02T15:40:16Z</time>
      </trkpt>
      <trkpt lat="45.52625" lon="5.92565">
        <ele>628.36</ele>
        <time>2014-03-02T15:40:33Z</time>
      </trkpt>
      <trkpt lat="45.52594" lon="5.92557">
        <ele>630.76</ele>
        <time>2014-03-02T15:40:51Z</time>
      </trkpt>
      <trkpt lat="45.5256" lon="5.92551">
        <ele>633.17</ele>
        <time>2014-03-02T15:41:10Z</time>
      </trkpt>
      <trkpt lat="45.52527" lon="5.92546">
        <ele>636.05</ele>
        <time>2014-03-02T15:41:29Z</time>
      </trkpt>
      <trkpt lat="45.525" lon="5.92541">
        <ele>639.41</ele>
        <time>2014-03-02T15:41:46Z</time>
      </trkpt>
      <trkpt lat="45.52474" lon="5.92532">
        <ele>641.82</ele>
        <time>2014-03-02T15:42:04Z</time>
      </trkpt>
      <trkpt lat="45.5247" lon="5.92531">
        <ele>642.78</ele>
        <time>2014-03-02T15:42:07Z</time>
      </trkpt>
      <trkpt lat="45.52469" lon="5.9253">
        <ele>642.3</ele>
        <time>2014-03-02T15:42:08Z</time>
      </trkpt>
      <trkpt lat="45.52468" lon="5.9253">
        <ele>642.78</ele>
        <time>2014-03-02T15:42:09Z</time>
      </trkpt>
      <trkpt lat="45.52439" lon="5.92524">
        <ele>645.18</ele>
        <time>2014-03-02T15:42:25Z</time>
      </trkpt>
      <trkpt lat="45.52411" lon="5.92529">
        <ele>648.07</ele>
        <time>2014-03-02T15:42:41Z</time>
      </trkpt>
      <trkpt lat="45.52385" lon="5.92529">
        <ele>649.03</ele>
        <time>2014-03-02T15:42:54Z</time>
      </trkpt>
      <trkpt lat="45.52376" lon="5.92526">
        <ele>649.03</ele>
        <time>2014-03-02T15:43:07Z</time>
      </trkpt>
      <trkpt lat="45.52376" lon="5.92526">
        <ele>649.03</ele>
        <time>2014-03-02T15:43:46Z</time>
      </trkpt>
      <trkpt lat="45.52376" lon="5.92526">
        <ele>649.03</ele>
        <time>2014-03-02T15:44:19Z</time>
      </trkpt>
      <trkpt lat="45.52377" lon="5.92526">
        <ele>649.03</ele>
        <time>2014-03-02T15:44:25Z</time>
      </trkpt>
      <trkpt lat="45.52377" lon="5.92526">
        <ele>649.03</ele>
        <time>2014-03-02T15:44:48Z</time>
      </trkpt>
      <trkpt lat="45.52377" lon="5.92526">
        <ele>649.03</ele>
        <time>2014-03-02T15:45:32Z</time>
      </trkpt>
      <trkpt lat="45.52376" lon="5.92528">
        <ele>649.03</ele>
        <time>2014-03-02T15:46:14Z</time>
      </trkpt>
      <trkpt lat="45.52358" lon="5.92525">
        <ele>649.03</ele>
        <time>2014-03-02T15:46:27Z</time>
      </trkpt>
      <trkpt lat="45.52312" lon="5.92525">
        <ele>651.43</ele>
        <time>2014-03-02T15:46:44Z</time>
      </trkpt>
      <trkpt lat="45.52275" lon="5.92523">
        <ele>653.35</ele>
        <time>2014-03-02T15:47:00Z</time>
      </trkpt>
      <trkpt lat="45.52239" lon="5.92512">
        <ele>655.28</ele>
        <time>2014-03-02T15:47:16Z</time>
      </trkpt>
      <trkpt lat="45.52207" lon="5.9246">
        <ele>656.72</ele>
        <time>2014-03-02T15:47:34Z</time>
      </trkpt>
      <trkpt lat="45.52187" lon="5.92434">
        <ele>659.6</ele>
        <time>2014-03-02T15:47:49Z</time>
      </trkpt>
      <trkpt lat="45.52173" lon="5.92414">
        <ele>662.97</ele>
        <time>2014-03-02T15:48:02Z</time>
      </trkpt>
      <trkpt lat="45.52145" lon="5.924">
        <ele>665.85</ele>
        <time>2014-03-02T15:48:19Z</time>
      </trkpt>
      <trkpt lat="45.5213" lon="5.92395">
        <ele>666.81</ele>
        <time>2014-03-02T15:48:29Z</time>
      </trkpt>
      <trkpt lat="45.52108" lon="5.92388">
        <ele>670.18</ele>
        <time>2014-03-02T15:48:44Z</time>
      </trkpt>
      <trkpt lat="45.52088" lon="5.92387">
        <ele>673.06</ele>
        <time>2014-03-02T15:48:58Z</time>
      </trkpt>
      <trkpt lat="45.52066" lon="5.92386">
        <ele>676.42</ele>
        <time>2014-03-02T15:49:13Z</time>
      </trkpt>
      <trkpt lat="45.52039" lon="5.92382">
        <ele>678.83</ele>
        <time>2014-03-02T15:49:29Z</time>
      </trkpt>
      <trkpt lat="45.52016" lon="5.92381">
        <ele>682.19</ele>
        <time>2014-03-02T15:49:42Z</time>
      </trkpt>
      <trkpt lat="45.51985" lon="5.92376">
        <ele>684.6</ele>
        <time>2014-03-02T15:49:59Z</time>
      </trkpt>
      <trkpt lat="45.51954" lon="5.92376">
        <ele>687</ele>
        <time>2014-03-02T15:50:14Z</time>
      </trkpt>
      <trkpt lat="45.51915" lon="5.92383">
        <ele>690.36</ele>
        <time>2014-03-02T15:50:32Z</time>
      </trkpt>
      <trkpt lat="45.51888" lon="5.924">
        <ele>692.77</ele>
        <time>2014-03-02T15:50:47Z</time>
      </trkpt>
      <trkpt lat="45.51847" lon="5.92403">
        <ele>694.69</ele>
        <time>2014-03-02T15:51:05Z</time>
      </trkpt>
      <trkpt lat="45.51817" lon="5.92404">
        <ele>697.57</ele>
        <time>2014-03-02T15:51:19Z</time>
      </trkpt>
      <trkpt lat="45.51797" lon="5.92409">
        <ele>699.5</ele>
        <time>2014-03-02T15:51:30Z</time>
      </trkpt>
      <trkpt lat="45.51753" lon="5.92399">
        <ele>699.98</ele>
        <time>2014-03-02T15:51:46Z</time>
      </trkpt>
      <trkpt lat="45.51708" lon="5.92375">
        <ele>702.38</ele>
        <time>2014-03-02T15:52:03Z</time>
      </trkpt>
      <trkpt lat="45.51651" lon="5.92322">
        <ele>702.38</ele>
        <time>2014-03-02T15:52:22Z</time>
      </trkpt>
      <trkpt lat="45.51617" lon="5.92284">
        <ele>701.9</ele>
        <time>2014-03-02T15:52:33Z</time>
      </trkpt>
      <trkpt lat="45.51562" lon="5.92214">
        <ele>700.46</ele>
        <time>2014-03-02T15:52:48Z</time>
      </trkpt>
      <trkpt lat="45.51511" lon="5.92182">
        <ele>703.34</ele>
        <time>2014-03-02T15:53:01Z</time>
      </trkpt>
      <trkpt lat="45.51485" lon="5.92175">
        <ele>705.26</ele>
        <time>2014-03-02T15:53:13Z</time>
      </trkpt>
      <trkpt lat="45.51475" lon="5.92172">
        <ele>705.75</ele>
        <time>2014-03-02T15:53:17Z</time>
      </trkpt>
      <trkpt lat="45.51473" lon="5.92171">
        <ele>705.75</ele>
        <time>2014-03-02T15:53:18Z</time>
      </trkpt>
      <trkpt lat="45.51458" lon="5.92127">
        <ele>708.15</ele>
        <time>2014-03-02T15:53:33Z</time>
      </trkpt>
      <trkpt lat="45.51445" lon="5.92081">
        <ele>710.07</ele>
        <time>2014-03-02T15:53:46Z</time>
      </trkpt>
      <trkpt lat="45.51413" lon="5.92048">
        <ele>710.55</ele>
        <time>2014-03-02T15:53:59Z</time>
      </trkpt>
      <trkpt lat="45.51393" lon="5.92019">
        <ele>708.15</ele>
        <time>2014-03-02T15:54:06Z</time>
      </trkpt>
      <trkpt lat="45.51359" lon="5.91955">
        <ele>704.78</ele>
        <time>2014-03-02T15:54:15Z</time>
      </trkpt>
      <trkpt lat="45.5135" lon="5.91936">
        <ele>703.34</ele>
        <time>2014-03-02T15:54:17Z</time>
      </trkpt>
      <trkpt lat="45.51336" lon="5.91893">
        <ele>702.38</ele>
        <time>2014-03-02T15:54:21Z</time>
      </trkpt>
      <trkpt lat="45.51322" lon="5.91829">
        <ele>699.02</ele>
        <time>2014-03-02T15:54:26Z</time>
      </trkpt>
      <trkpt lat="45.51317" lon="5.9177">
        <ele>698.53</ele>
        <time>2014-03-02T15:54:31Z</time>
      </trkpt>
      <trkpt lat="45.51314" lon="5.9176">
        <ele>698.05</ele>
        <time>2014-03-02T15:54:32Z</time>
      </trkpt>
      <trkpt lat="45.51311" lon="5.91751">
        <ele>697.09</ele>
        <time>2014-03-02T15:54:33Z</time>
      </trkpt>
      <trkpt lat="45.51307" lon="5.91741">
        <ele>697.09</ele>
        <time>2014-03-02T15:54:34Z</time>
      </trkpt>
      <trkpt lat="45.51284" lon="5.9168">
        <ele>696.13</ele>
        <time>2014-03-02T15:54:40Z</time>
      </trkpt>
      <trkpt lat="45.5128" lon="5.91671">
        <ele>695.65</ele>
        <time>2014-03-02T15:54:41Z</time>
      </trkpt>
      <trkpt lat="45.51275" lon="5.91662">
        <ele>694.69</ele>
        <time>2014-03-02T15:54:42Z</time>
      </trkpt>
      <trkpt lat="45.51268" lon="5.91655">
        <ele>694.69</ele>
        <time>2014-03-02T15:54:43Z</time>
      </trkpt>
      <trkpt lat="45.51263" lon="5.91647">
        <ele>694.69</ele>
        <time>2014-03-02T15:54:44Z</time>
      </trkpt>
      <trkpt lat="45.51258" lon="5.91637">
        <ele>694.21</ele>
        <time>2014-03-02T15:54:45Z</time>
      </trkpt>
      <trkpt lat="45.51255" lon="5.91625">
        <ele>693.73</ele>
        <time>2014-03-02T15:54:46Z</time>
      </trkpt>
      <trkpt lat="45.51255" lon="5.91613">
        <ele>693.25</ele>
        <time>2014-03-02T15:54:47Z</time>
      </trkpt>
      <trkpt lat="45.51257" lon="5.91602">
        <ele>693.25</ele>
        <time>2014-03-02T15:54:48Z</time>
      </trkpt>
      <trkpt lat="45.51262" lon="5.91593">
        <ele>693.25</ele>
        <time>2014-03-02T15:54:49Z</time>
      </trkpt>
      <trkpt lat="45.51268" lon="5.91588">
        <ele>693.25</ele>
        <time>2014-03-02T15:54:50Z</time>
      </trkpt>
      <trkpt lat="45.51276" lon="5.91586">
        <ele>692.77</ele>
        <time>2014-03-02T15:54:51Z</time>
      </trkpt>
      <trkpt lat="45.51284" lon="5.91586">
        <ele>692.29</ele>
        <time>2014-03-02T15:54:52Z</time>
      </trkpt>
      <trkpt lat="45.51292" lon="5.91587">
        <ele>692.29</ele>
        <time>2014-03-02T15:54:53Z</time>
      </trkpt>
      <trkpt lat="45.513" lon="5.91588">
        <ele>691.33</ele>
        <time>2014-03-02T15:54:54Z</time>
      </trkpt>
      <trkpt lat="45.51371" lon="5.91611">
        <ele>687.96</ele>
        <time>2014-03-02T15:55:03Z</time>
      </trkpt>
      <trkpt lat="45.5144" lon="5.91654">
        <ele>685.08</ele>
        <time>2014-03-02T15:55:12Z</time>
      </trkpt>
      <trkpt lat="45.51448" lon="5.91658">
        <ele>684.12</ele>
        <time>2014-03-02T15:55:13Z</time>
      </trkpt>
      <trkpt lat="45.51455" lon="5.9166">
        <ele>684.6</ele>
        <time>2014-03-02T15:55:14Z</time>
      </trkpt>
      <trkpt lat="45.51463" lon="5.91661">
        <ele>683.63</ele>
        <time>2014-03-02T15:55:15Z</time>
      </trkpt>
      <trkpt lat="45.51471" lon="5.91658">
        <ele>683.15</ele>
        <time>2014-03-02T15:55:16Z</time>
      </trkpt>
      <trkpt lat="45.51479" lon="5.91654">
        <ele>683.63</ele>
        <time>2014-03-02T15:55:17Z</time>
      </trkpt>
      <trkpt lat="45.51486" lon="5.91648">
        <ele>683.15</ele>
        <time>2014-03-02T15:55:18Z</time>
      </trkpt>
      <trkpt lat="45.51493" lon="5.91641">
        <ele>682.19</ele>
        <time>2014-03-02T15:55:19Z</time>
      </trkpt>
      <trkpt lat="45.51507" lon="5.91628">
        <ele>682.19</ele>
        <time>2014-03-02T15:55:21Z</time>
      </trkpt>
      <trkpt lat="45.51514" lon="5.91623">
        <ele>681.71</ele>
        <time>2014-03-02T15:55:22Z</time>
      </trkpt>
      <trkpt lat="45.51522" lon="5.91619">
        <ele>681.71</ele>
        <time>2014-03-02T15:55:23Z</time>
      </trkpt>
      <trkpt lat="45.51531" lon="5.91616">
        <ele>681.71</ele>
        <time>2014-03-02T15:55:24Z</time>
      </trkpt>
      <trkpt lat="45.51539" lon="5.91614">
        <ele>680.75</ele>
        <time>2014-03-02T15:55:25Z</time>
      </trkpt>
      <trkpt lat="45.51547" lon="5.91613">
        <ele>680.27</ele>
        <time>2014-03-02T15:55:26Z</time>
      </trkpt>
      <trkpt lat="45.51556" lon="5.91613">
        <ele>679.79</ele>
        <time>2014-03-02T15:55:27Z</time>
      </trkpt>
      <trkpt lat="45.51564" lon="5.91614">
        <ele>678.83</ele>
        <time>2014-03-02T15:55:28Z</time>
      </trkpt>
      <trkpt lat="45.51573" lon="5.91615">
        <ele>678.35</ele>
        <time>2014-03-02T15:55:29Z</time>
      </trkpt>
      <trkpt lat="45.51632" lon="5.91623">
        <ele>675.46</ele>
        <time>2014-03-02T15:55:36Z</time>
      </trkpt>
      <trkpt lat="45.51695" lon="5.9161">
        <ele>672.1</ele>
        <time>2014-03-02T15:55:43Z</time>
      </trkpt>
      <trkpt lat="45.5174" lon="5.91597">
        <ele>669.22</ele>
        <time>2014-03-02T15:55:48Z</time>
      </trkpt>
      <trkpt lat="45.5179" lon="5.91566">
        <ele>665.85</ele>
        <time>2014-03-02T15:55:54Z</time>
      </trkpt>
      <trkpt lat="45.51821" lon="5.91544">
        <ele>664.41</ele>
        <time>2014-03-02T15:55:58Z</time>
      </trkpt>
      <trkpt lat="45.51838" lon="5.91537">
        <ele>663.45</ele>
        <time>2014-03-02T15:56:00Z</time>
      </trkpt>
      <trkpt lat="45.51913" lon="5.91519">
        <ele>660.56</ele>
        <time>2014-03-02T15:56:09Z</time>
      </trkpt>
      <trkpt lat="45.5199" lon="5.91507">
        <ele>657.2</ele>
        <time>2014-03-02T15:56:18Z</time>
      </trkpt>
      <trkpt lat="45.52067" lon="5.91498">
        <ele>653.83</ele>
        <time>2014-03-02T15:56:27Z</time>
      </trkpt>
      <trkpt lat="45.52091" lon="5.91495">
        <ele>652.39</ele>
        <time>2014-03-02T15:56:30Z</time>
      </trkpt>
      <trkpt lat="45.52098" lon="5.91493">
        <ele>652.39</ele>
        <time>2014-03-02T15:56:31Z</time>
      </trkpt>
      <trkpt lat="45.52103" lon="5.9149">
        <ele>651.43</ele>
        <time>2014-03-02T15:56:32Z</time>
      </trkpt>
      <trkpt lat="45.52108" lon="5.91486">
        <ele>650.95</ele>
        <time>2014-03-02T15:56:33Z</time>
      </trkpt>
      <trkpt lat="45.52112" lon="5.91481">
        <ele>650.95</ele>
        <time>2014-03-02T15:56:34Z</time>
      </trkpt>
      <trkpt lat="45.52117" lon="5.91477">
        <ele>650.95</ele>
        <time>2014-03-02T15:56:35Z</time>
      </trkpt>
      <trkpt lat="45.52122" lon="5.91474">
        <ele>650.95</ele>
        <time>2014-03-02T15:56:36Z</time>
      </trkpt>
      <trkpt lat="45.52137" lon="5.91466">
        <ele>649.51</ele>
        <time>2014-03-02T15:56:39Z</time>
      </trkpt>
      <trkpt lat="45.52163" lon="5.91454">
        <ele>649.03</ele>
        <time>2014-03-02T15:56:44Z</time>
      </trkpt>
      <trkpt lat="45.52169" lon="5.91453">
        <ele>648.55</ele>
        <time>2014-03-02T15:56:45Z</time>
      </trkpt>
      <trkpt lat="45.52174" lon="5.91453">
        <ele>648.55</ele>
        <time>2014-03-02T15:56:46Z</time>
      </trkpt>
      <trkpt lat="45.5218" lon="5.91454">
        <ele>648.07</ele>
        <time>2014-03-02T15:56:47Z</time>
      </trkpt>
      <trkpt lat="45.52186" lon="5.91455">
        <ele>648.55</ele>
        <time>2014-03-02T15:56:48Z</time>
      </trkpt>
      <trkpt lat="45.52192" lon="5.91456">
        <ele>648.07</ele>
        <time>2014-03-02T15:56:49Z</time>
      </trkpt>
      <trkpt lat="45.52199" lon="5.91456">
        <ele>648.07</ele>
        <time>2014-03-02T15:56:50Z</time>
      </trkpt>
      <trkpt lat="45.52205" lon="5.91453">
        <ele>647.1</ele>
        <time>2014-03-02T15:56:51Z</time>
      </trkpt>
      <trkpt lat="45.52211" lon="5.91449">
        <ele>646.62</ele>
        <time>2014-03-02T15:56:52Z</time>
      </trkpt>
      <trkpt lat="45.52217" lon="5.91443">
        <ele>646.14</ele>
        <time>2014-03-02T15:56:53Z</time>
      </trkpt>
      <trkpt lat="45.52222" lon="5.91437">
        <ele>646.14</ele>
        <time>2014-03-02T15:56:54Z</time>
      </trkpt>
      <trkpt lat="45.52235" lon="5.91419">
        <ele>646.62</ele>
        <time>2014-03-02T15:56:57Z</time>
      </trkpt>
      <trkpt lat="45.52238" lon="5.91413">
        <ele>646.62</ele>
        <time>2014-03-02T15:56:58Z</time>
      </trkpt>
      <trkpt lat="45.5224" lon="5.91407">
        <ele>647.1</ele>
        <time>2014-03-02T15:56:59Z</time>
      </trkpt>
      <trkpt lat="45.52248" lon="5.91382">
        <ele>649.03</ele>
        <time>2014-03-02T15:57:05Z</time>
      </trkpt>
      <trkpt lat="45.52259" lon="5.91346">
        <ele>651.91</ele>
        <time>2014-03-02T15:57:20Z</time>
      </trkpt>
      <trkpt lat="45.5228" lon="5.91332">
        <ele>655.76</ele>
        <time>2014-03-02T15:57:35Z</time>
      </trkpt>
      <trkpt lat="45.52308" lon="5.91325">
        <ele>656.72</ele>
        <time>2014-03-02T15:57:51Z</time>
      </trkpt>
      <trkpt lat="45.52333" lon="5.91295">
        <ele>659.6</ele>
        <time>2014-03-02T15:58:08Z</time>
      </trkpt>
      <trkpt lat="45.52345" lon="5.91252">
        <ele>661.04</ele>
        <time>2014-03-02T15:58:26Z</time>
      </trkpt>
      <trkpt lat="45.52345" lon="5.9125">
        <ele>661.04</ele>
        <time>2014-03-02T15:58:27Z</time>
      </trkpt>
      <trkpt lat="45.52343" lon="5.91248">
        <ele>661.04</ele>
        <time>2014-03-02T15:58:28Z</time>
      </trkpt>
      <trkpt lat="45.52342" lon="5.91247">
        <ele>661.04</ele>
        <time>2014-03-02T15:58:29Z</time>
      </trkpt>
      <trkpt lat="45.52341" lon="5.91245">
        <ele>661.52</ele>
        <time>2014-03-02T15:58:30Z</time>
      </trkpt>
      <trkpt lat="45.5234" lon="5.91244">
        <ele>661.52</ele>
        <time>2014-03-02T15:58:31Z</time>
      </trkpt>
      <trkpt lat="45.52327" lon="5.91222">
        <ele>663.45</ele>
        <time>2014-03-02T15:58:45Z</time>
      </trkpt>
      <trkpt lat="45.52315" lon="5.91212">
        <ele>665.85</ele>
        <time>2014-03-02T15:58:56Z</time>
      </trkpt>
      <trkpt lat="45.52313" lon="5.91213">
        <ele>665.37</ele>
        <time>2014-03-02T15:58:57Z</time>
      </trkpt>
      <trkpt lat="45.52312" lon="5.91214">
        <ele>665.85</ele>
        <time>2014-03-02T15:58:58Z</time>
      </trkpt>
      <trkpt lat="45.52311" lon="5.91215">
        <ele>665.85</ele>
        <time>2014-03-02T15:58:59Z</time>
      </trkpt>
      <trkpt lat="45.5231" lon="5.91217">
        <ele>666.33</ele>
        <time>2014-03-02T15:59:00Z</time>
      </trkpt>
      <trkpt lat="45.52309" lon="5.91218">
        <ele>666.33</ele>
        <time>2014-03-02T15:59:01Z</time>
      </trkpt>
      <trkpt lat="45.52304" lon="5.91227">
        <ele>667.77</ele>
        <time>2014-03-02T15:59:09Z</time>
      </trkpt>
      <trkpt lat="45.52295" lon="5.91227">
        <ele>669.7</ele>
        <time>2014-03-02T15:59:19Z</time>
      </trkpt>
      <trkpt lat="45.5229" lon="5.91216">
        <ele>671.14</ele>
        <time>2014-03-02T15:59:26Z</time>
      </trkpt>
      <trkpt lat="45.52289" lon="5.91214">
        <ele>671.14</ele>
        <time>2014-03-02T15:59:27Z</time>
      </trkpt>
      <trkpt lat="45.52289" lon="5.91213">
        <ele>671.14</ele>
        <time>2014-03-02T15:59:28Z</time>
      </trkpt>
      <trkpt lat="45.52288" lon="5.91211">
        <ele>671.62</ele>
        <time>2014-03-02T15:59:29Z</time>
      </trkpt>
      <trkpt lat="45.52284" lon="5.91189">
        <ele>674.02</ele>
        <time>2014-03-02T15:59:43Z</time>
      </trkpt>
      <trkpt lat="45.5228" lon="5.91174">
        <ele>675.46</ele>
        <time>2014-03-02T15:59:53Z</time>
      </trkpt>
      <trkpt lat="45.5228" lon="5.91173">
        <ele>675.46</ele>
        <time>2014-03-02T15:59:54Z</time>
      </trkpt>
      <trkpt lat="45.52279" lon="5.91171">
        <ele>675.46</ele>
        <time>2014-03-02T15:59:55Z</time>
      </trkpt>
      <trkpt lat="45.52279" lon="5.9117">
        <ele>675.94</ele>
        <time>2014-03-02T15:59:56Z</time>
      </trkpt>
      <trkpt lat="45.52279" lon="5.91168">
        <ele>676.42</ele>
        <time>2014-03-02T15:59:57Z</time>
      </trkpt>
      <trkpt lat="45.52279" lon="5.91166">
        <ele>675.94</ele>
        <time>2014-03-02T15:59:58Z</time>
      </trkpt>
      <trkpt lat="45.5228" lon="5.91141">
        <ele>679.31</ele>
        <time>2014-03-02T16:00:12Z</time>
      </trkpt>
      <trkpt lat="45.52281" lon="5.91111">
        <ele>680.75</ele>
        <time>2014-03-02T16:00:28Z</time>
      </trkpt>
      <trkpt lat="45.52288" lon="5.91079">
        <ele>683.15</ele>
        <time>2014-03-02T16:00:45Z</time>
      </trkpt>
      <trkpt lat="45.52308" lon="5.91058">
        <ele>686.04</ele>
        <time>2014-03-02T16:01:02Z</time>
      </trkpt>
      <trkpt lat="45.5231" lon="5.91056">
        <ele>686.52</ele>
        <time>2014-03-02T16:01:04Z</time>
      </trkpt>
      <trkpt lat="45.52324" lon="5.9103">
        <ele>688.44</ele>
        <time>2014-03-02T16:01:21Z</time>
      </trkpt>
      <trkpt lat="45.52329" lon="5.91017">
        <ele>690.36</ele>
        <time>2014-03-02T16:01:29Z</time>
      </trkpt>
      <trkpt lat="45.5233" lon="5.91016">
        <ele>689.88</ele>
        <time>2014-03-02T16:01:30Z</time>
      </trkpt>
      <trkpt lat="45.52344" lon="5.91004">
        <ele>693.25</ele>
        <time>2014-03-02T16:01:43Z</time>
      </trkpt>
      <trkpt lat="45.52358" lon="5.90992">
        <ele>693.73</ele>
        <time>2014-03-02T16:01:56Z</time>
      </trkpt>
      <trkpt lat="45.52359" lon="5.90992">
        <ele>694.21</ele>
        <time>2014-03-02T16:01:57Z</time>
      </trkpt>
      <trkpt lat="45.52363" lon="5.90992">
        <ele>694.21</ele>
        <time>2014-03-02T16:02:01Z</time>
      </trkpt>
      <trkpt lat="45.52364" lon="5.90991">
        <ele>694.21</ele>
        <time>2014-03-02T16:02:02Z</time>
      </trkpt>
      <trkpt lat="45.52366" lon="5.90989">
        <ele>694.69</ele>
        <time>2014-03-02T16:02:04Z</time>
      </trkpt>
      <trkpt lat="45.52367" lon="5.9099">
        <ele>694.69</ele>
        <time>2014-03-02T16:02:05Z</time>
      </trkpt>
      <trkpt lat="45.52369" lon="5.9099">
        <ele>695.65</ele>
        <time>2014-03-02T16:02:07Z</time>
      </trkpt>
      <trkpt lat="45.52371" lon="5.90988">
        <ele>696.13</ele>
        <time>2014-03-02T16:02:08Z</time>
      </trkpt>
      <trkpt lat="45.52372" lon="5.90987">
        <ele>695.65</ele>
        <time>2014-03-02T16:02:09Z</time>
      </trkpt>
      <trkpt lat="45.5238" lon="5.90982">
        <ele>697.09</ele>
        <time>2014-03-02T16:02:19Z</time>
      </trkpt>
      <trkpt lat="45.5238" lon="5.90981">
        <ele>697.57</ele>
        <time>2014-03-02T16:02:20Z</time>
      </trkpt>
      <trkpt lat="45.52374" lon="5.90959">
        <ele>700.46</ele>
        <time>2014-03-02T16:02:35Z</time>
      </trkpt>
      <trkpt lat="45.52368" lon="5.90951">
        <ele>701.9</ele>
        <time>2014-03-02T16:02:43Z</time>
      </trkpt>
      <trkpt lat="45.52366" lon="5.90948">
        <ele>702.38</ele>
        <time>2014-03-02T16:02:46Z</time>
      </trkpt>
      <trkpt lat="45.52357" lon="5.90932">
        <ele>705.26</ele>
        <time>2014-03-02T16:03:01Z</time>
      </trkpt>
      <trkpt lat="45.52348" lon="5.90913">
        <ele>708.15</ele>
        <time>2014-03-02T16:03:15Z</time>
      </trkpt>
      <trkpt lat="45.52346" lon="5.90909">
        <ele>709.11</ele>
        <time>2014-03-02T16:03:18Z</time>
      </trkpt>
      <trkpt lat="45.52338" lon="5.90894">
        <ele>710.55</ele>
        <time>2014-03-02T16:03:28Z</time>
      </trkpt>
      <trkpt lat="45.52338" lon="5.90893">
        <ele>710.55</ele>
        <time>2014-03-02T16:03:29Z</time>
      </trkpt>
      <trkpt lat="45.52337" lon="5.90891">
        <ele>710.55</ele>
        <time>2014-03-02T16:03:30Z</time>
      </trkpt>
      <trkpt lat="45.52336" lon="5.90889">
        <ele>711.03</ele>
        <time>2014-03-02T16:03:31Z</time>
      </trkpt>
      <trkpt lat="45.52335" lon="5.90887">
        <ele>711.51</ele>
        <time>2014-03-02T16:03:32Z</time>
      </trkpt>
      <trkpt lat="45.52335" lon="5.90886">
        <ele>711.03</ele>
        <time>2014-03-02T16:03:33Z</time>
      </trkpt>
      <trkpt lat="45.52335" lon="5.90884">
        <ele>711.51</ele>
        <time>2014-03-02T16:03:34Z</time>
      </trkpt>
      <trkpt lat="45.52335" lon="5.90883">
        <ele>711.51</ele>
        <time>2014-03-02T16:03:35Z</time>
      </trkpt>
      <trkpt lat="45.52335" lon="5.90881">
        <ele>711.51</ele>
        <time>2014-03-02T16:03:36Z</time>
      </trkpt>
      <trkpt lat="45.52335" lon="5.90879">
        <ele>712.47</ele>
        <time>2014-03-02T16:03:37Z</time>
      </trkpt>
      <trkpt lat="45.52331" lon="5.90866">
        <ele>713.44</ele>
        <time>2014-03-02T16:03:45Z</time>
      </trkpt>
      <trkpt lat="45.5233" lon="5.90865">
        <ele>713.92</ele>
        <time>2014-03-02T16:03:46Z</time>
      </trkpt>
      <trkpt lat="45.5233" lon="5.90863">
        <ele>714.4</ele>
        <time>2014-03-02T16:03:47Z</time>
      </trkpt>
      <trkpt lat="45.52329" lon="5.90861">
        <ele>714.4</ele>
        <time>2014-03-02T16:03:48Z</time>
      </trkpt>
      <trkpt lat="45.52328" lon="5.90859">
        <ele>714.4</ele>
        <time>2014-03-02T16:03:49Z</time>
      </trkpt>
      <trkpt lat="45.52327" lon="5.90858">
        <ele>714.88</ele>
        <time>2014-03-02T16:03:50Z</time>
      </trkpt>
      <trkpt lat="45.52326" lon="5.90856">
        <ele>715.36</ele>
        <time>2014-03-02T16:03:51Z</time>
      </trkpt>
      <trkpt lat="45.52322" lon="5.90842">
        <ele>716.32</ele>
        <time>2014-03-02T16:03:59Z</time>
      </trkpt>
      <trkpt lat="45.52321" lon="5.9084">
        <ele>716.32</ele>
        <time>2014-03-02T16:04:00Z</time>
      </trkpt>
      <trkpt lat="45.5232" lon="5.90839">
        <ele>716.8</ele>
        <time>2014-03-02T16:04:01Z</time>
      </trkpt>
      <trkpt lat="45.52319" lon="5.90837">
        <ele>716.8</ele>
        <time>2014-03-02T16:04:02Z</time>
      </trkpt>
      <trkpt lat="45.52319" lon="5.90835">
        <ele>717.28</ele>
        <time>2014-03-02T16:04:03Z</time>
      </trkpt>
      <trkpt lat="45.52319" lon="5.90833">
        <ele>717.28</ele>
        <time>2014-03-02T16:04:04Z</time>
      </trkpt>
      <trkpt lat="45.52319" lon="5.90831">
        <ele>717.28</ele>
        <time>2014-03-02T16:04:05Z</time>
      </trkpt>
      <trkpt lat="45.52318" lon="5.90829">
        <ele>717.28</ele>
        <time>2014-03-02T16:04:06Z</time>
      </trkpt>
      <trkpt lat="45.52315" lon="5.90821">
        <ele>718.24</ele>
        <time>2014-03-02T16:04:23Z</time>
      </trkpt>
    </trkseg>
  </trk>
</gpx>